<?xml version="1.0" encoding="UTF-8" standalone="no" ?>
<gpx xmlns="http://www.topografix.com/GPX/1/1" xmlns:xsi="http://www.w3.org/2001/XMLSchema-instance" xsi:schemaLocation="http://www.topografix.com/GPX/1/1 http://www.topografix.com/GPX/1/1/gpx.xsd" version="1.1" creator="VisuGPX - https://www.visugpx.com">
  <metadata>
    <name>Boucle Rochetoirin </name>
    <desc><![CDATA[boucle équestre ]]></desc>
  </metadata>
  <trk>
    <name><![CDATA[Boucle Rochetoirin _1]]></name>
    <trkseg>
      <trkpt lat="45.58704" lon="5.4109">
        <ele>463.8</ele>
        <time>2016-06-26T10:13:32Z</time>
      </trkpt>
      <trkpt lat="45.5875" lon="5.41052">
        <ele>455.68738194203</ele>
        <time>2016-06-26T10:14:02Z</time>
      </trkpt>
      <trkpt lat="45.5874" lon="5.41042">
        <ele>457.32395565145</ele>
        <time>2016-06-26T10:14:07Z</time>
      </trkpt>
      <trkpt lat="45.58752" lon="5.41029">
        <ele>461.30363196883</ele>
        <time>2016-06-26T10:14:17Z</time>
      </trkpt>
      <trkpt lat="45.58755" lon="5.41023">
        <ele>461.30363196883</ele>
        <time>2016-06-26T10:14:22Z</time>
      </trkpt>
      <trkpt lat="45.58767" lon="5.40995">
        <ele>465.33408674425</ele>
        <time>2016-06-26T10:14:37Z</time>
      </trkpt>
      <trkpt lat="45.58771" lon="5.40987">
        <ele>465.33408674425</ele>
        <time>2016-06-26T10:14:42Z</time>
      </trkpt>
      <trkpt lat="45.58778" lon="5.40974">
        <ele>467.03415976221</ele>
        <time>2016-06-26T10:14:52Z</time>
      </trkpt>
      <trkpt lat="45.5878" lon="5.40966">
        <ele>467.03415976221</ele>
        <time>2016-06-26T10:14:57Z</time>
      </trkpt>
      <trkpt lat="45.58788" lon="5.40947">
        <ele>469.0195843907</ele>
        <time>2016-06-26T10:15:07Z</time>
      </trkpt>
      <trkpt lat="45.58793" lon="5.40937">
        <ele>469.0195843907</ele>
        <time>2016-06-26T10:15:12Z</time>
      </trkpt>
      <trkpt lat="45.58797" lon="5.4092">
        <ele>470.7273074882</ele>
        <time>2016-06-26T10:15:22Z</time>
      </trkpt>
      <trkpt lat="45.58799" lon="5.40911">
        <ele>470.7273074882</ele>
        <time>2016-06-26T10:15:27Z</time>
      </trkpt>
      <trkpt lat="45.58806" lon="5.40893">
        <ele>472.37795776658</ele>
        <time>2016-06-26T10:15:37Z</time>
      </trkpt>
      <trkpt lat="45.58808" lon="5.40884">
        <ele>472.37795776658</ele>
        <time>2016-06-26T10:15:42Z</time>
      </trkpt>
      <trkpt lat="45.58825" lon="5.40866">
        <ele>472.84239405902</ele>
        <time>2016-06-26T10:15:57Z</time>
      </trkpt>
      <trkpt lat="45.58831" lon="5.40861">
        <ele>472.84239405902</ele>
        <time>2016-06-26T10:16:02Z</time>
      </trkpt>
      <trkpt lat="45.58847" lon="5.40851">
        <ele>472.90568469629</ele>
        <time>2016-06-26T10:16:12Z</time>
      </trkpt>
      <trkpt lat="45.58854" lon="5.40845">
        <ele>472.90568469629</ele>
        <time>2016-06-26T10:16:17Z</time>
      </trkpt>
      <trkpt lat="45.58866" lon="5.40832">
        <ele>473.05135207333</ele>
        <time>2016-06-26T10:16:27Z</time>
      </trkpt>
      <trkpt lat="45.58871" lon="5.40825">
        <ele>473.05135207333</ele>
        <time>2016-06-26T10:16:32Z</time>
      </trkpt>
      <trkpt lat="45.5888" lon="5.4081">
        <ele>472.49710617416</ele>
        <time>2016-06-26T10:16:42Z</time>
      </trkpt>
      <trkpt lat="45.58884" lon="5.40803">
        <ele>472.49710617416</ele>
        <time>2016-06-26T10:16:47Z</time>
      </trkpt>
      <trkpt lat="45.58892" lon="5.40786">
        <ele>472.22869604813</ele>
        <time>2016-06-26T10:16:57Z</time>
      </trkpt>
      <trkpt lat="45.58897" lon="5.40779">
        <ele>472.22869604813</ele>
        <time>2016-06-26T10:17:02Z</time>
      </trkpt>
      <trkpt lat="45.58908" lon="5.40765">
        <ele>471.23702254578</ele>
        <time>2016-06-26T10:17:12Z</time>
      </trkpt>
      <trkpt lat="45.58912" lon="5.40756">
        <ele>471.23702254578</ele>
        <time>2016-06-26T10:17:17Z</time>
      </trkpt>
      <trkpt lat="45.5892" lon="5.4074">
        <ele>469.74089400331</ele>
        <time>2016-06-26T10:17:27Z</time>
      </trkpt>
      <trkpt lat="45.58928" lon="5.40732">
        <ele>469.74089400331</ele>
        <time>2016-06-26T10:17:32Z</time>
      </trkpt>
      <trkpt lat="45.5894" lon="5.40716">
        <ele>468.56978272484</ele>
        <time>2016-06-26T10:17:42Z</time>
      </trkpt>
      <trkpt lat="45.58945" lon="5.40709">
        <ele>468.56978272484</ele>
        <time>2016-06-26T10:17:47Z</time>
      </trkpt>
      <trkpt lat="45.58946" lon="5.40699">
        <ele>466.90443094363</ele>
        <time>2016-06-26T10:18:02Z</time>
      </trkpt>
      <trkpt lat="45.58946" lon="5.407">
        <ele>466.90443094363</ele>
        <time>2016-06-26T10:18:07Z</time>
      </trkpt>
      <trkpt lat="45.58946" lon="5.40701">
        <ele>466.90443094363</ele>
        <time>2016-06-26T10:18:17Z</time>
      </trkpt>
      <trkpt lat="45.58946" lon="5.40701">
        <ele>466.90443094363</ele>
        <time>2016-06-26T10:18:22Z</time>
      </trkpt>
      <trkpt lat="45.58945" lon="5.40699">
        <ele>466.90443094363</ele>
        <time>2016-06-26T10:18:32Z</time>
      </trkpt>
      <trkpt lat="45.58945" lon="5.40699">
        <ele>466.90443094363</ele>
        <time>2016-06-26T10:18:37Z</time>
      </trkpt>
      <trkpt lat="45.58948" lon="5.40699">
        <ele>466.90443094363</ele>
        <time>2016-06-26T10:18:47Z</time>
      </trkpt>
      <trkpt lat="45.5895" lon="5.40697">
        <ele>465.50372496414</ele>
        <time>2016-06-26T10:18:52Z</time>
      </trkpt>
      <trkpt lat="45.58963" lon="5.40679">
        <ele>464.51808553246</ele>
        <time>2016-06-26T10:19:02Z</time>
      </trkpt>
      <trkpt lat="45.58967" lon="5.40669">
        <ele>464.51808553246</ele>
        <time>2016-06-26T10:19:07Z</time>
      </trkpt>
      <trkpt lat="45.58977" lon="5.40659">
        <ele>463.50590414532</ele>
        <time>2016-06-26T10:19:22Z</time>
      </trkpt>
      <trkpt lat="45.58984" lon="5.40649">
        <ele>462.89742941713</ele>
        <time>2016-06-26T10:19:27Z</time>
      </trkpt>
      <trkpt lat="45.58988" lon="5.40635">
        <ele>462.31746842087</ele>
        <time>2016-06-26T10:19:37Z</time>
      </trkpt>
      <trkpt lat="45.58994" lon="5.40629">
        <ele>462.31746842087</ele>
        <time>2016-06-26T10:19:42Z</time>
      </trkpt>
      <trkpt lat="45.59003" lon="5.40616">
        <ele>462.50089554112</ele>
        <time>2016-06-26T10:19:52Z</time>
      </trkpt>
      <trkpt lat="45.59009" lon="5.40607">
        <ele>462.50089554112</ele>
        <time>2016-06-26T10:19:57Z</time>
      </trkpt>
      <trkpt lat="45.5902" lon="5.40587">
        <ele>463.51108846533</ele>
        <time>2016-06-26T10:20:07Z</time>
      </trkpt>
      <trkpt lat="45.59025" lon="5.40576">
        <ele>463.51108846533</ele>
        <time>2016-06-26T10:20:12Z</time>
      </trkpt>
      <trkpt lat="45.59032" lon="5.40559">
        <ele>464.44119125222</ele>
        <time>2016-06-26T10:20:22Z</time>
      </trkpt>
      <trkpt lat="45.59035" lon="5.40553">
        <ele>464.44119125222</ele>
        <time>2016-06-26T10:20:27Z</time>
      </trkpt>
      <trkpt lat="45.5904" lon="5.40537">
        <ele>464.95327449835</ele>
        <time>2016-06-26T10:20:37Z</time>
      </trkpt>
      <trkpt lat="45.59044" lon="5.40527">
        <ele>464.95327449835</ele>
        <time>2016-06-26T10:20:42Z</time>
      </trkpt>
      <trkpt lat="45.59052" lon="5.40511">
        <ele>464.98919464424</ele>
        <time>2016-06-26T10:20:52Z</time>
      </trkpt>
      <trkpt lat="45.59057" lon="5.40504">
        <ele>464.98919464424</ele>
        <time>2016-06-26T10:20:57Z</time>
      </trkpt>
      <trkpt lat="45.59067" lon="5.40491">
        <ele>464.94703798843</ele>
        <time>2016-06-26T10:21:07Z</time>
      </trkpt>
      <trkpt lat="45.59071" lon="5.40485">
        <ele>464.94703798843</ele>
        <time>2016-06-26T10:21:12Z</time>
      </trkpt>
      <trkpt lat="45.59083" lon="5.40473">
        <ele>464.67870995889</ele>
        <time>2016-06-26T10:21:22Z</time>
      </trkpt>
      <trkpt lat="45.5909" lon="5.40467">
        <ele>464.67870995889</ele>
        <time>2016-06-26T10:21:27Z</time>
      </trkpt>
      <trkpt lat="45.59102" lon="5.40455">
        <ele>464.55127303471</ele>
        <time>2016-06-26T10:21:37Z</time>
      </trkpt>
      <trkpt lat="45.5911" lon="5.40449">
        <ele>464.41306285782</ele>
        <time>2016-06-26T10:21:42Z</time>
      </trkpt>
      <trkpt lat="45.59129" lon="5.40433">
        <ele>464.47213367665</ele>
        <time>2016-06-26T10:21:57Z</time>
      </trkpt>
      <trkpt lat="45.59133" lon="5.40428">
        <ele>464.47213367665</ele>
        <time>2016-06-26T10:22:02Z</time>
      </trkpt>
      <trkpt lat="45.59147" lon="5.40419">
        <ele>464.11656656891</ele>
        <time>2016-06-26T10:22:12Z</time>
      </trkpt>
      <trkpt lat="45.59152" lon="5.40413">
        <ele>464.11656656891</ele>
        <time>2016-06-26T10:22:17Z</time>
      </trkpt>
      <trkpt lat="45.59167" lon="5.40405">
        <ele>464.09782557703</ele>
        <time>2016-06-26T10:22:27Z</time>
      </trkpt>
      <trkpt lat="45.59173" lon="5.40398">
        <ele>464.09782557703</ele>
        <time>2016-06-26T10:22:32Z</time>
      </trkpt>
      <trkpt lat="45.59183" lon="5.40385">
        <ele>463.11034061129</ele>
        <time>2016-06-26T10:22:42Z</time>
      </trkpt>
      <trkpt lat="45.59188" lon="5.40379">
        <ele>463.11034061129</ele>
        <time>2016-06-26T10:22:47Z</time>
      </trkpt>
      <trkpt lat="45.59199" lon="5.40367">
        <ele>461.90269130724</ele>
        <time>2016-06-26T10:22:57Z</time>
      </trkpt>
      <trkpt lat="45.59204" lon="5.40361">
        <ele>461.90269130724</ele>
        <time>2016-06-26T10:23:02Z</time>
      </trkpt>
      <trkpt lat="45.59216" lon="5.40355">
        <ele>461.67472329328</ele>
        <time>2016-06-26T10:23:12Z</time>
      </trkpt>
      <trkpt lat="45.59221" lon="5.40351">
        <ele>461.67472329328</ele>
        <time>2016-06-26T10:23:17Z</time>
      </trkpt>
      <trkpt lat="45.59231" lon="5.40336">
        <ele>461.44968964495</ele>
        <time>2016-06-26T10:23:27Z</time>
      </trkpt>
      <trkpt lat="45.59236" lon="5.40332">
        <ele>461.44968964495</ele>
        <time>2016-06-26T10:23:32Z</time>
      </trkpt>
      <trkpt lat="45.59262" lon="5.40345">
        <ele>459.97312493547</ele>
        <time>2016-06-26T10:23:47Z</time>
      </trkpt>
      <trkpt lat="45.59267" lon="5.4035">
        <ele>459.97312493547</ele>
        <time>2016-06-26T10:23:52Z</time>
      </trkpt>
      <trkpt lat="45.59273" lon="5.40365">
        <ele>458.19826811898</ele>
        <time>2016-06-26T10:24:02Z</time>
      </trkpt>
      <trkpt lat="45.59275" lon="5.40373">
        <ele>458.19826811898</ele>
        <time>2016-06-26T10:24:07Z</time>
      </trkpt>
      <trkpt lat="45.59278" lon="5.40395">
        <ele>456.33796661128</ele>
        <time>2016-06-26T10:24:17Z</time>
      </trkpt>
      <trkpt lat="45.59282" lon="5.40405">
        <ele>456.33796661128</ele>
        <time>2016-06-26T10:24:22Z</time>
      </trkpt>
      <trkpt lat="45.59288" lon="5.40431">
        <ele>453.85217026192</ele>
        <time>2016-06-26T10:24:32Z</time>
      </trkpt>
      <trkpt lat="45.59292" lon="5.4044">
        <ele>453.85217026192</ele>
        <time>2016-06-26T10:24:37Z</time>
      </trkpt>
      <trkpt lat="45.59298" lon="5.40444">
        <ele>451.43403181</ele>
        <time>2016-06-26T10:24:47Z</time>
      </trkpt>
      <trkpt lat="45.59305" lon="5.40445">
        <ele>451.43403181</ele>
        <time>2016-06-26T10:24:52Z</time>
      </trkpt>
      <trkpt lat="45.59318" lon="5.40438">
        <ele>448.64858352162</ele>
        <time>2016-06-26T10:25:02Z</time>
      </trkpt>
      <trkpt lat="45.59325" lon="5.40432">
        <ele>448.64858352162</ele>
        <time>2016-06-26T10:25:07Z</time>
      </trkpt>
      <trkpt lat="45.5934" lon="5.40421">
        <ele>446.43596327258</ele>
        <time>2016-06-26T10:25:17Z</time>
      </trkpt>
      <trkpt lat="45.59344" lon="5.40416">
        <ele>446.43596327258</ele>
        <time>2016-06-26T10:25:22Z</time>
      </trkpt>
      <trkpt lat="45.59355" lon="5.40395">
        <ele>444.18922278465</ele>
        <time>2016-06-26T10:25:37Z</time>
      </trkpt>
      <trkpt lat="45.59357" lon="5.40386">
        <ele>444.18922278465</ele>
        <time>2016-06-26T10:25:42Z</time>
      </trkpt>
      <trkpt lat="45.5936" lon="5.40377">
        <ele>441.74097352344</ele>
        <time>2016-06-26T10:25:52Z</time>
      </trkpt>
      <trkpt lat="45.5936" lon="5.40375">
        <ele>441.74097352344</ele>
        <time>2016-06-26T10:25:57Z</time>
      </trkpt>
      <trkpt lat="45.59361" lon="5.40372">
        <ele>441.74097352344</ele>
        <time>2016-06-26T10:26:07Z</time>
      </trkpt>
      <trkpt lat="45.59363" lon="5.40362">
        <ele>439.29512206324</ele>
        <time>2016-06-26T10:26:12Z</time>
      </trkpt>
      <trkpt lat="45.59369" lon="5.40335">
        <ele>437.35770034448</ele>
        <time>2016-06-26T10:26:22Z</time>
      </trkpt>
      <trkpt lat="45.59371" lon="5.4032">
        <ele>435.50762848664</ele>
        <time>2016-06-26T10:26:27Z</time>
      </trkpt>
      <trkpt lat="45.59378" lon="5.40296">
        <ele>434.39336688429</ele>
        <time>2016-06-26T10:26:37Z</time>
      </trkpt>
      <trkpt lat="45.59379" lon="5.40294">
        <ele>434.39336688429</ele>
        <time>2016-06-26T10:26:42Z</time>
      </trkpt>
      <trkpt lat="45.59386" lon="5.40276">
        <ele>432.54343956358</ele>
        <time>2016-06-26T10:26:52Z</time>
      </trkpt>
      <trkpt lat="45.5939" lon="5.40265">
        <ele>432.54343956358</ele>
        <time>2016-06-26T10:26:57Z</time>
      </trkpt>
      <trkpt lat="45.59392" lon="5.40256">
        <ele>430.93989924592</ele>
        <time>2016-06-26T10:27:02Z</time>
      </trkpt>
      <trkpt lat="45.59392" lon="5.40246">
        <ele>430.93989924592</ele>
        <time>2016-06-26T10:27:07Z</time>
      </trkpt>
      <trkpt lat="45.59394" lon="5.40238">
        <ele>428.70755638779</ele>
        <time>2016-06-26T10:27:12Z</time>
      </trkpt>
      <trkpt lat="45.59398" lon="5.40232">
        <ele>428.70755638779</ele>
        <time>2016-06-26T10:27:17Z</time>
      </trkpt>
      <trkpt lat="45.59402" lon="5.40228">
        <ele>426.02238320822</ele>
        <time>2016-06-26T10:27:22Z</time>
      </trkpt>
      <trkpt lat="45.5941" lon="5.40224">
        <ele>426.02238320822</ele>
        <time>2016-06-26T10:27:27Z</time>
      </trkpt>
      <trkpt lat="45.59416" lon="5.40219">
        <ele>423.25879616758</ele>
        <time>2016-06-26T10:27:32Z</time>
      </trkpt>
      <trkpt lat="45.59421" lon="5.40216">
        <ele>423.25879616758</ele>
        <time>2016-06-26T10:27:37Z</time>
      </trkpt>
      <trkpt lat="45.59429" lon="5.40214">
        <ele>420.62552141038</ele>
        <time>2016-06-26T10:27:47Z</time>
      </trkpt>
      <trkpt lat="45.59434" lon="5.40213">
        <ele>420.62552141038</ele>
        <time>2016-06-26T10:27:52Z</time>
      </trkpt>
      <trkpt lat="45.59447" lon="5.40212">
        <ele>417.6233192915</ele>
        <time>2016-06-26T10:28:02Z</time>
      </trkpt>
      <trkpt lat="45.59452" lon="5.40212">
        <ele>417.6233192915</ele>
        <time>2016-06-26T10:28:07Z</time>
      </trkpt>
      <trkpt lat="45.59464" lon="5.40209">
        <ele>413.75053006886</ele>
        <time>2016-06-26T10:28:17Z</time>
      </trkpt>
      <trkpt lat="45.59472" lon="5.40207">
        <ele>413.75053006886</ele>
        <time>2016-06-26T10:28:22Z</time>
      </trkpt>
      <trkpt lat="45.59488" lon="5.40203">
        <ele>409.83413552887</ele>
        <time>2016-06-26T10:28:32Z</time>
      </trkpt>
      <trkpt lat="45.595" lon="5.40198">
        <ele>406.78036147007</ele>
        <time>2016-06-26T10:28:37Z</time>
      </trkpt>
      <trkpt lat="45.59517" lon="5.40196">
        <ele>404.77726054431</ele>
        <time>2016-06-26T10:28:47Z</time>
      </trkpt>
      <trkpt lat="45.59527" lon="5.40191">
        <ele>403.88998339764</ele>
        <time>2016-06-26T10:28:52Z</time>
      </trkpt>
      <trkpt lat="45.59537" lon="5.40183">
        <ele>403.15498488815</ele>
        <time>2016-06-26T10:29:02Z</time>
      </trkpt>
      <trkpt lat="45.59542" lon="5.40178">
        <ele>403.15498488815</ele>
        <time>2016-06-26T10:29:07Z</time>
      </trkpt>
      <trkpt lat="45.59557" lon="5.40156">
        <ele>403.66513837065</ele>
        <time>2016-06-26T10:29:22Z</time>
      </trkpt>
      <trkpt lat="45.59561" lon="5.40146">
        <ele>403.66513837065</ele>
        <time>2016-06-26T10:29:27Z</time>
      </trkpt>
      <trkpt lat="45.59573" lon="5.4013">
        <ele>404.80056338373</ele>
        <time>2016-06-26T10:29:37Z</time>
      </trkpt>
      <trkpt lat="45.59582" lon="5.40118">
        <ele>406.43178741276</ele>
        <time>2016-06-26T10:29:42Z</time>
      </trkpt>
      <trkpt lat="45.59591" lon="5.40098">
        <ele>407.60401556405</ele>
        <time>2016-06-26T10:29:52Z</time>
      </trkpt>
      <trkpt lat="45.59595" lon="5.40089">
        <ele>407.60401556405</ele>
        <time>2016-06-26T10:29:57Z</time>
      </trkpt>
      <trkpt lat="45.59606" lon="5.40067">
        <ele>409.23981393374</ele>
        <time>2016-06-26T10:30:07Z</time>
      </trkpt>
      <trkpt lat="45.59611" lon="5.40057">
        <ele>409.23981393374</ele>
        <time>2016-06-26T10:30:12Z</time>
      </trkpt>
      <trkpt lat="45.59617" lon="5.40037">
        <ele>410.79941438765</ele>
        <time>2016-06-26T10:30:22Z</time>
      </trkpt>
      <trkpt lat="45.59621" lon="5.40028">
        <ele>410.79941438765</ele>
        <time>2016-06-26T10:30:27Z</time>
      </trkpt>
      <trkpt lat="45.59626" lon="5.4001">
        <ele>412.07814250063</ele>
        <time>2016-06-26T10:30:37Z</time>
      </trkpt>
      <trkpt lat="45.59627" lon="5.40001">
        <ele>412.07814250063</ele>
        <time>2016-06-26T10:30:42Z</time>
      </trkpt>
      <trkpt lat="45.59624" lon="5.3998">
        <ele>412.52473328012</ele>
        <time>2016-06-26T10:30:57Z</time>
      </trkpt>
      <trkpt lat="45.59625" lon="5.3997">
        <ele>412.52473328012</ele>
        <time>2016-06-26T10:31:02Z</time>
      </trkpt>
      <trkpt lat="45.59624" lon="5.39954">
        <ele>413.12928065087</ele>
        <time>2016-06-26T10:31:12Z</time>
      </trkpt>
      <trkpt lat="45.59624" lon="5.39945">
        <ele>413.12928065087</ele>
        <time>2016-06-26T10:31:17Z</time>
      </trkpt>
      <trkpt lat="45.59622" lon="5.39927">
        <ele>413.81704644475</ele>
        <time>2016-06-26T10:31:27Z</time>
      </trkpt>
      <trkpt lat="45.59622" lon="5.39916">
        <ele>413.81704644475</ele>
        <time>2016-06-26T10:31:32Z</time>
      </trkpt>
      <trkpt lat="45.59626" lon="5.399">
        <ele>414.54793373133</ele>
        <time>2016-06-26T10:31:42Z</time>
      </trkpt>
      <trkpt lat="45.59626" lon="5.39899">
        <ele>414.54793373133</ele>
        <time>2016-06-26T10:31:47Z</time>
      </trkpt>
      <trkpt lat="45.59627" lon="5.39897">
        <ele>414.54793373133</ele>
        <time>2016-06-26T10:31:57Z</time>
      </trkpt>
      <trkpt lat="45.59627" lon="5.39897">
        <ele>414.54793373133</ele>
        <time>2016-06-26T10:32:02Z</time>
      </trkpt>
      <trkpt lat="45.59626" lon="5.39897">
        <ele>414.54793373133</ele>
        <time>2016-06-26T10:32:12Z</time>
      </trkpt>
      <trkpt lat="45.59627" lon="5.39899">
        <ele>414.54793373133</ele>
        <time>2016-06-26T10:32:17Z</time>
      </trkpt>
      <trkpt lat="45.59624" lon="5.39916">
        <ele>415.06776005562</ele>
        <time>2016-06-26T10:32:27Z</time>
      </trkpt>
      <trkpt lat="45.59624" lon="5.39918">
        <ele>415.06776005562</ele>
        <time>2016-06-26T10:32:32Z</time>
      </trkpt>
      <trkpt lat="45.59624" lon="5.39937">
        <ele>415.53289232322</ele>
        <time>2016-06-26T10:32:42Z</time>
      </trkpt>
      <trkpt lat="45.59625" lon="5.39953">
        <ele>416.01558457437</ele>
        <time>2016-06-26T10:32:47Z</time>
      </trkpt>
      <trkpt lat="45.5962" lon="5.40003">
        <ele>416.81365754951</ele>
        <time>2016-06-26T10:32:57Z</time>
      </trkpt>
      <trkpt lat="45.59604" lon="5.40048">
        <ele>417.34997462795</ele>
        <time>2016-06-26T10:33:02Z</time>
      </trkpt>
      <trkpt lat="45.59594" lon="5.40079">
        <ele>418.00064479404</ele>
        <time>2016-06-26T10:33:12Z</time>
      </trkpt>
      <trkpt lat="45.59597" lon="5.40086">
        <ele>418.00064479404</ele>
        <time>2016-06-26T10:33:17Z</time>
      </trkpt>
      <trkpt lat="45.59612" lon="5.40073">
        <ele>418.40649934046</ele>
        <time>2016-06-26T10:33:32Z</time>
      </trkpt>
      <trkpt lat="45.59615" lon="5.40071">
        <ele>418.40649934046</ele>
        <time>2016-06-26T10:33:37Z</time>
      </trkpt>
      <trkpt lat="45.59623" lon="5.40068">
        <ele>418.30796695797</ele>
        <time>2016-06-26T10:33:47Z</time>
      </trkpt>
      <trkpt lat="45.59627" lon="5.40064">
        <ele>418.30796695797</ele>
        <time>2016-06-26T10:33:52Z</time>
      </trkpt>
      <trkpt lat="45.59634" lon="5.40059">
        <ele>418.30250467025</ele>
        <time>2016-06-26T10:34:02Z</time>
      </trkpt>
      <trkpt lat="45.59636" lon="5.40055">
        <ele>418.30250467025</ele>
        <time>2016-06-26T10:34:07Z</time>
      </trkpt>
      <trkpt lat="45.59642" lon="5.4005">
        <ele>418.72686933289</ele>
        <time>2016-06-26T10:34:17Z</time>
      </trkpt>
      <trkpt lat="45.59648" lon="5.40042">
        <ele>418.72686933289</ele>
        <time>2016-06-26T10:34:22Z</time>
      </trkpt>
      <trkpt lat="45.59661" lon="5.4002">
        <ele>419.34403461304</ele>
        <time>2016-06-26T10:34:32Z</time>
      </trkpt>
      <trkpt lat="45.59671" lon="5.39997">
        <ele>419.73219861438</ele>
        <time>2016-06-26T10:34:37Z</time>
      </trkpt>
      <trkpt lat="45.59677" lon="5.39978">
        <ele>419.74642061179</ele>
        <time>2016-06-26T10:34:47Z</time>
      </trkpt>
      <trkpt lat="45.5968" lon="5.3997">
        <ele>419.74642061179</ele>
        <time>2016-06-26T10:34:52Z</time>
      </trkpt>
      <trkpt lat="45.59683" lon="5.39956">
        <ele>419.64282076736</ele>
        <time>2016-06-26T10:35:02Z</time>
      </trkpt>
      <trkpt lat="45.59686" lon="5.39946">
        <ele>419.64282076736</ele>
        <time>2016-06-26T10:35:07Z</time>
      </trkpt>
      <trkpt lat="45.59688" lon="5.39935">
        <ele>419.39961321484</ele>
        <time>2016-06-26T10:35:17Z</time>
      </trkpt>
      <trkpt lat="45.59689" lon="5.39934">
        <ele>419.39961321484</ele>
        <time>2016-06-26T10:35:22Z</time>
      </trkpt>
      <trkpt lat="45.59689" lon="5.39934">
        <ele>419.39961321484</ele>
        <time>2016-06-26T10:35:37Z</time>
      </trkpt>
      <trkpt lat="45.59688" lon="5.39933">
        <ele>419.39961321484</ele>
        <time>2016-06-26T10:35:42Z</time>
      </trkpt>
      <trkpt lat="45.59688" lon="5.3993">
        <ele>419.39961321484</ele>
        <time>2016-06-26T10:35:52Z</time>
      </trkpt>
      <trkpt lat="45.59691" lon="5.39923">
        <ele>419.08362419305</ele>
        <time>2016-06-26T10:35:57Z</time>
      </trkpt>
      <trkpt lat="45.59693" lon="5.39908">
        <ele>418.77151014949</ele>
        <time>2016-06-26T10:36:07Z</time>
      </trkpt>
      <trkpt lat="45.59696" lon="5.39901">
        <ele>418.77151014949</ele>
        <time>2016-06-26T10:36:12Z</time>
      </trkpt>
      <trkpt lat="45.597" lon="5.39886">
        <ele>418.62092565599</ele>
        <time>2016-06-26T10:36:22Z</time>
      </trkpt>
      <trkpt lat="45.59703" lon="5.39879">
        <ele>418.62092565599</ele>
        <time>2016-06-26T10:36:27Z</time>
      </trkpt>
      <trkpt lat="45.5971" lon="5.39864">
        <ele>418.21515471303</ele>
        <time>2016-06-26T10:36:37Z</time>
      </trkpt>
      <trkpt lat="45.59712" lon="5.39855">
        <ele>418.21515471303</ele>
        <time>2016-06-26T10:36:42Z</time>
      </trkpt>
      <trkpt lat="45.59715" lon="5.39841">
        <ele>418.01978344161</ele>
        <time>2016-06-26T10:36:52Z</time>
      </trkpt>
      <trkpt lat="45.59717" lon="5.3983">
        <ele>418.01978344161</ele>
        <time>2016-06-26T10:36:57Z</time>
      </trkpt>
      <trkpt lat="45.59723" lon="5.3981">
        <ele>417.29745663841</ele>
        <time>2016-06-26T10:37:07Z</time>
      </trkpt>
      <trkpt lat="45.59725" lon="5.398">
        <ele>417.29745663841</ele>
        <time>2016-06-26T10:37:12Z</time>
      </trkpt>
      <trkpt lat="45.59727" lon="5.39793">
        <ele>416.85213993457</ele>
        <time>2016-06-26T10:37:22Z</time>
      </trkpt>
      <trkpt lat="45.59729" lon="5.39784">
        <ele>416.85213993457</ele>
        <time>2016-06-26T10:37:27Z</time>
      </trkpt>
      <trkpt lat="45.59739" lon="5.39768">
        <ele>415.95681347219</ele>
        <time>2016-06-26T10:37:37Z</time>
      </trkpt>
      <trkpt lat="45.59747" lon="5.39763">
        <ele>415.95681347219</ele>
        <time>2016-06-26T10:37:42Z</time>
      </trkpt>
      <trkpt lat="45.59762" lon="5.39763">
        <ele>415.16525689832</ele>
        <time>2016-06-26T10:37:52Z</time>
      </trkpt>
      <trkpt lat="45.59774" lon="5.39772">
        <ele>414.26910460246</ele>
        <time>2016-06-26T10:37:57Z</time>
      </trkpt>
      <trkpt lat="45.59839" lon="5.39792">
        <ele>414.93639175488</ele>
        <time>2016-06-26T10:38:12Z</time>
      </trkpt>
      <trkpt lat="45.59845" lon="5.39794">
        <ele>414.93639175488</ele>
        <time>2016-06-26T10:38:17Z</time>
      </trkpt>
      <trkpt lat="45.59854" lon="5.39794">
        <ele>414.97223365341</ele>
        <time>2016-06-26T10:38:27Z</time>
      </trkpt>
      <trkpt lat="45.5986" lon="5.39796">
        <ele>414.97223365341</ele>
        <time>2016-06-26T10:38:32Z</time>
      </trkpt>
      <trkpt lat="45.59873" lon="5.39796">
        <ele>413.98936511482</ele>
        <time>2016-06-26T10:38:42Z</time>
      </trkpt>
      <trkpt lat="45.59881" lon="5.39795">
        <ele>413.98936511482</ele>
        <time>2016-06-26T10:38:47Z</time>
      </trkpt>
      <trkpt lat="45.59896" lon="5.39798">
        <ele>412.25215955161</ele>
        <time>2016-06-26T10:38:57Z</time>
      </trkpt>
      <trkpt lat="45.59902" lon="5.39796">
        <ele>412.25215955161</ele>
        <time>2016-06-26T10:39:02Z</time>
      </trkpt>
      <trkpt lat="45.59915" lon="5.39794">
        <ele>410.18077073891</ele>
        <time>2016-06-26T10:39:12Z</time>
      </trkpt>
      <trkpt lat="45.59921" lon="5.39796">
        <ele>410.18077073891</ele>
        <time>2016-06-26T10:39:17Z</time>
      </trkpt>
      <trkpt lat="45.59938" lon="5.39807">
        <ele>407.06927371561</ele>
        <time>2016-06-26T10:39:32Z</time>
      </trkpt>
      <trkpt lat="45.59942" lon="5.39809">
        <ele>407.06927371561</ele>
        <time>2016-06-26T10:39:37Z</time>
      </trkpt>
      <trkpt lat="45.59956" lon="5.39812">
        <ele>405.09332356859</ele>
        <time>2016-06-26T10:39:47Z</time>
      </trkpt>
      <trkpt lat="45.59959" lon="5.39812">
        <ele>405.09332356859</ele>
        <time>2016-06-26T10:39:52Z</time>
      </trkpt>
      <trkpt lat="45.59973" lon="5.39802">
        <ele>402.84730289598</ele>
        <time>2016-06-26T10:40:02Z</time>
      </trkpt>
      <trkpt lat="45.59982" lon="5.39797">
        <ele>400.73146631525</ele>
        <time>2016-06-26T10:40:07Z</time>
      </trkpt>
      <trkpt lat="45.59991" lon="5.39787">
        <ele>398.71241577442</ele>
        <time>2016-06-26T10:40:17Z</time>
      </trkpt>
      <trkpt lat="45.59997" lon="5.39782">
        <ele>398.71241577442</ele>
        <time>2016-06-26T10:40:22Z</time>
      </trkpt>
      <trkpt lat="45.60006" lon="5.39766">
        <ele>396.83097604432</ele>
        <time>2016-06-26T10:40:32Z</time>
      </trkpt>
      <trkpt lat="45.60012" lon="5.39758">
        <ele>396.83097604432</ele>
        <time>2016-06-26T10:40:37Z</time>
      </trkpt>
      <trkpt lat="45.60021" lon="5.39743">
        <ele>395.02358279241</ele>
        <time>2016-06-26T10:40:47Z</time>
      </trkpt>
      <trkpt lat="45.60025" lon="5.39737">
        <ele>395.02358279241</ele>
        <time>2016-06-26T10:40:52Z</time>
      </trkpt>
      <trkpt lat="45.60039" lon="5.3972">
        <ele>393.274323037</ele>
        <time>2016-06-26T10:41:07Z</time>
      </trkpt>
      <trkpt lat="45.60046" lon="5.39717">
        <ele>393.274323037</ele>
        <time>2016-06-26T10:41:12Z</time>
      </trkpt>
      <trkpt lat="45.60051" lon="5.39712">
        <ele>389.2182931311</ele>
        <time>2016-06-26T10:41:22Z</time>
      </trkpt>
      <trkpt lat="45.60055" lon="5.39712">
        <ele>389.2182931311</ele>
        <time>2016-06-26T10:41:27Z</time>
      </trkpt>
      <trkpt lat="45.60068" lon="5.39712">
        <ele>385.01033771115</ele>
        <time>2016-06-26T10:41:37Z</time>
      </trkpt>
      <trkpt lat="45.60076" lon="5.39714">
        <ele>385.01033771115</ele>
        <time>2016-06-26T10:41:42Z</time>
      </trkpt>
      <trkpt lat="45.60094" lon="5.39727">
        <ele>383.07938387713</ele>
        <time>2016-06-26T10:41:52Z</time>
      </trkpt>
      <trkpt lat="45.601" lon="5.39734">
        <ele>383.07938387713</ele>
        <time>2016-06-26T10:41:57Z</time>
      </trkpt>
      <trkpt lat="45.60111" lon="5.39744">
        <ele>381.5031614299</ele>
        <time>2016-06-26T10:42:07Z</time>
      </trkpt>
      <trkpt lat="45.60115" lon="5.39741">
        <ele>381.5031614299</ele>
        <time>2016-06-26T10:42:12Z</time>
      </trkpt>
      <trkpt lat="45.60127" lon="5.39738">
        <ele>379.17726511572</ele>
        <time>2016-06-26T10:42:22Z</time>
      </trkpt>
      <trkpt lat="45.60133" lon="5.39737">
        <ele>379.17726511572</ele>
        <time>2016-06-26T10:42:27Z</time>
      </trkpt>
      <trkpt lat="45.60154" lon="5.39737">
        <ele>377.17053162846</ele>
        <time>2016-06-26T10:42:42Z</time>
      </trkpt>
      <trkpt lat="45.6016" lon="5.39738">
        <ele>377.17053162846</ele>
        <time>2016-06-26T10:42:47Z</time>
      </trkpt>
      <trkpt lat="45.60171" lon="5.39734">
        <ele>375.83792837715</ele>
        <time>2016-06-26T10:42:57Z</time>
      </trkpt>
      <trkpt lat="45.60178" lon="5.39732">
        <ele>375.83792837715</ele>
        <time>2016-06-26T10:43:02Z</time>
      </trkpt>
      <trkpt lat="45.60192" lon="5.39728">
        <ele>375.08831640836</ele>
        <time>2016-06-26T10:43:12Z</time>
      </trkpt>
      <trkpt lat="45.60199" lon="5.39728">
        <ele>375.08831640836</ele>
        <time>2016-06-26T10:43:17Z</time>
      </trkpt>
      <trkpt lat="45.60214" lon="5.39727">
        <ele>374.12928812686</ele>
        <time>2016-06-26T10:43:27Z</time>
      </trkpt>
      <trkpt lat="45.6022" lon="5.39727">
        <ele>374.12928812686</ele>
        <time>2016-06-26T10:43:32Z</time>
      </trkpt>
      <trkpt lat="45.60234" lon="5.39723">
        <ele>373.1351544685</ele>
        <time>2016-06-26T10:43:42Z</time>
      </trkpt>
      <trkpt lat="45.60241" lon="5.39722">
        <ele>373.1351544685</ele>
        <time>2016-06-26T10:43:47Z</time>
      </trkpt>
      <trkpt lat="45.60255" lon="5.39725">
        <ele>371.82061619824</ele>
        <time>2016-06-26T10:43:57Z</time>
      </trkpt>
      <trkpt lat="45.6026" lon="5.39726">
        <ele>371.82061619824</ele>
        <time>2016-06-26T10:44:02Z</time>
      </trkpt>
      <trkpt lat="45.60272" lon="5.39728">
        <ele>370.61390579154</ele>
        <time>2016-06-26T10:44:12Z</time>
      </trkpt>
      <trkpt lat="45.60279" lon="5.39729">
        <ele>370.61390579154</ele>
        <time>2016-06-26T10:44:17Z</time>
      </trkpt>
      <trkpt lat="45.60292" lon="5.39732">
        <ele>369.83931299801</ele>
        <time>2016-06-26T10:44:27Z</time>
      </trkpt>
      <trkpt lat="45.60298" lon="5.39735">
        <ele>369.83931299801</ele>
        <time>2016-06-26T10:44:32Z</time>
      </trkpt>
      <trkpt lat="45.60309" lon="5.39738">
        <ele>368.31159838809</ele>
        <time>2016-06-26T10:44:42Z</time>
      </trkpt>
      <trkpt lat="45.60314" lon="5.39741">
        <ele>368.31159838809</ele>
        <time>2016-06-26T10:44:47Z</time>
      </trkpt>
      <trkpt lat="45.60328" lon="5.39751">
        <ele>367.08195178894</ele>
        <time>2016-06-26T10:44:57Z</time>
      </trkpt>
      <trkpt lat="45.60335" lon="5.39755">
        <ele>367.08195178894</ele>
        <time>2016-06-26T10:45:02Z</time>
      </trkpt>
      <trkpt lat="45.60348" lon="5.3976">
        <ele>365.7110812034</ele>
        <time>2016-06-26T10:45:12Z</time>
      </trkpt>
      <trkpt lat="45.60355" lon="5.39762">
        <ele>365.7110812034</ele>
        <time>2016-06-26T10:45:17Z</time>
      </trkpt>
      <trkpt lat="45.60366" lon="5.39765">
        <ele>363.72023091142</ele>
        <time>2016-06-26T10:45:27Z</time>
      </trkpt>
      <trkpt lat="45.60374" lon="5.39766">
        <ele>363.72023091142</ele>
        <time>2016-06-26T10:45:32Z</time>
      </trkpt>
      <trkpt lat="45.60385" lon="5.39764">
        <ele>361.79155622402</ele>
        <time>2016-06-26T10:45:47Z</time>
      </trkpt>
      <trkpt lat="45.60387" lon="5.39766">
        <ele>361.79155622402</ele>
        <time>2016-06-26T10:45:52Z</time>
      </trkpt>
      <trkpt lat="45.60386" lon="5.39766">
        <ele>361.79155622402</ele>
        <time>2016-06-26T10:46:02Z</time>
      </trkpt>
      <trkpt lat="45.60386" lon="5.39766">
        <ele>361.79155622402</ele>
        <time>2016-06-26T10:46:07Z</time>
      </trkpt>
      <trkpt lat="45.60386" lon="5.39766">
        <ele>361.79155622402</ele>
        <time>2016-06-26T10:46:17Z</time>
      </trkpt>
      <trkpt lat="45.60386" lon="5.39766">
        <ele>361.79155622402</ele>
        <time>2016-06-26T10:46:22Z</time>
      </trkpt>
      <trkpt lat="45.6039" lon="5.39769">
        <ele>361.79155622402</ele>
        <time>2016-06-26T10:46:32Z</time>
      </trkpt>
      <trkpt lat="45.60385" lon="5.39781">
        <ele>359.49040854227</ele>
        <time>2016-06-26T10:46:37Z</time>
      </trkpt>
      <trkpt lat="45.60356" lon="5.39816">
        <ele>357.61116815398</ele>
        <time>2016-06-26T10:46:47Z</time>
      </trkpt>
      <trkpt lat="45.60342" lon="5.39835">
        <ele>355.83657382581</ele>
        <time>2016-06-26T10:46:52Z</time>
      </trkpt>
      <trkpt lat="45.60314" lon="5.39868">
        <ele>354.08846457176</ele>
        <time>2016-06-26T10:47:02Z</time>
      </trkpt>
      <trkpt lat="45.60303" lon="5.39885">
        <ele>352.19338651501</ele>
        <time>2016-06-26T10:47:07Z</time>
      </trkpt>
      <trkpt lat="45.60283" lon="5.39929">
        <ele>351.24474569004</ele>
        <time>2016-06-26T10:47:22Z</time>
      </trkpt>
      <trkpt lat="45.6028" lon="5.39935">
        <ele>351.24474569004</ele>
        <time>2016-06-26T10:47:27Z</time>
      </trkpt>
      <trkpt lat="45.60274" lon="5.39952">
        <ele>350.59559891273</ele>
        <time>2016-06-26T10:47:37Z</time>
      </trkpt>
      <trkpt lat="45.60271" lon="5.39961">
        <ele>350.59559891273</ele>
        <time>2016-06-26T10:47:42Z</time>
      </trkpt>
      <trkpt lat="45.60272" lon="5.39977">
        <ele>350.22207169523</ele>
        <time>2016-06-26T10:47:52Z</time>
      </trkpt>
      <trkpt lat="45.60278" lon="5.39976">
        <ele>350.22207169523</ele>
        <time>2016-06-26T10:47:57Z</time>
      </trkpt>
      <trkpt lat="45.60288" lon="5.39982">
        <ele>348.94829896171</ele>
        <time>2016-06-26T10:48:07Z</time>
      </trkpt>
      <trkpt lat="45.60293" lon="5.39985">
        <ele>348.94829896171</ele>
        <time>2016-06-26T10:48:12Z</time>
      </trkpt>
      <trkpt lat="45.603" lon="5.39983">
        <ele>348.87219034006</ele>
        <time>2016-06-26T10:48:22Z</time>
      </trkpt>
      <trkpt lat="45.60301" lon="5.39982">
        <ele>348.87219034006</ele>
        <time>2016-06-26T10:48:27Z</time>
      </trkpt>
      <trkpt lat="45.60302" lon="5.39982">
        <ele>348.87219034006</ele>
        <time>2016-06-26T10:48:37Z</time>
      </trkpt>
      <trkpt lat="45.60302" lon="5.39982">
        <ele>348.87219034006</ele>
        <time>2016-06-26T10:48:42Z</time>
      </trkpt>
      <trkpt lat="45.60302" lon="5.39982">
        <ele>348.87219034006</ele>
        <time>2016-06-26T10:48:52Z</time>
      </trkpt>
      <trkpt lat="45.60302" lon="5.39982">
        <ele>348.87219034006</ele>
        <time>2016-06-26T10:48:57Z</time>
      </trkpt>
      <trkpt lat="45.60302" lon="5.39982">
        <ele>348.87219034006</ele>
        <time>2016-06-26T10:49:07Z</time>
      </trkpt>
      <trkpt lat="45.60302" lon="5.39982">
        <ele>348.87219034006</ele>
        <time>2016-06-26T10:49:12Z</time>
      </trkpt>
      <trkpt lat="45.60302" lon="5.39982">
        <ele>348.87219034006</ele>
        <time>2016-06-26T10:49:27Z</time>
      </trkpt>
      <trkpt lat="45.60302" lon="5.39982">
        <ele>348.87219034006</ele>
        <time>2016-06-26T10:49:32Z</time>
      </trkpt>
      <trkpt lat="45.60302" lon="5.39982">
        <ele>348.87219034006</ele>
        <time>2016-06-26T10:49:42Z</time>
      </trkpt>
      <trkpt lat="45.60303" lon="5.39981">
        <ele>348.87219034006</ele>
        <time>2016-06-26T10:49:47Z</time>
      </trkpt>
      <trkpt lat="45.60303" lon="5.3998">
        <ele>348.87219034006</ele>
        <time>2016-06-26T10:49:57Z</time>
      </trkpt>
      <trkpt lat="45.60303" lon="5.39981">
        <ele>348.87219034006</ele>
        <time>2016-06-26T10:50:02Z</time>
      </trkpt>
      <trkpt lat="45.60303" lon="5.39981">
        <ele>348.87219034006</ele>
        <time>2016-06-26T10:50:12Z</time>
      </trkpt>
      <trkpt lat="45.60303" lon="5.39981">
        <ele>348.87219034006</ele>
        <time>2016-06-26T10:50:17Z</time>
      </trkpt>
      <trkpt lat="45.60305" lon="5.39981">
        <ele>348.87219034006</ele>
        <time>2016-06-26T10:50:27Z</time>
      </trkpt>
      <trkpt lat="45.60306" lon="5.39981">
        <ele>348.87219034006</ele>
        <time>2016-06-26T10:50:32Z</time>
      </trkpt>
      <trkpt lat="45.60306" lon="5.39981">
        <ele>348.87219034006</ele>
        <time>2016-06-26T10:50:42Z</time>
      </trkpt>
      <trkpt lat="45.60306" lon="5.39981">
        <ele>348.87219034006</ele>
        <time>2016-06-26T10:50:47Z</time>
      </trkpt>
      <trkpt lat="45.60306" lon="5.39981">
        <ele>348.87219034006</ele>
        <time>2016-06-26T10:50:57Z</time>
      </trkpt>
      <trkpt lat="45.60306" lon="5.39981">
        <ele>348.87219034006</ele>
        <time>2016-06-26T10:51:02Z</time>
      </trkpt>
      <trkpt lat="45.60306" lon="5.39981">
        <ele>348.87219034006</ele>
        <time>2016-06-26T10:51:17Z</time>
      </trkpt>
      <trkpt lat="45.60306" lon="5.39981">
        <ele>348.87219034006</ele>
        <time>2016-06-26T10:51:22Z</time>
      </trkpt>
      <trkpt lat="45.60306" lon="5.39981">
        <ele>348.87219034006</ele>
        <time>2016-06-26T10:51:32Z</time>
      </trkpt>
      <trkpt lat="45.60306" lon="5.39981">
        <ele>348.87219034006</ele>
        <time>2016-06-26T10:51:37Z</time>
      </trkpt>
      <trkpt lat="45.60306" lon="5.39981">
        <ele>348.87219034006</ele>
        <time>2016-06-26T10:51:47Z</time>
      </trkpt>
      <trkpt lat="45.60306" lon="5.3998">
        <ele>348.87219034006</ele>
        <time>2016-06-26T10:51:52Z</time>
      </trkpt>
      <trkpt lat="45.60304" lon="5.39982">
        <ele>349.35450707613</ele>
        <time>2016-06-26T10:52:02Z</time>
      </trkpt>
      <trkpt lat="45.60304" lon="5.39981">
        <ele>349.35450707613</ele>
        <time>2016-06-26T10:52:07Z</time>
      </trkpt>
      <trkpt lat="45.60303" lon="5.39981">
        <ele>349.35450707613</ele>
        <time>2016-06-26T10:52:17Z</time>
      </trkpt>
      <trkpt lat="45.60303" lon="5.3998">
        <ele>349.35450707613</ele>
        <time>2016-06-26T10:52:22Z</time>
      </trkpt>
      <trkpt lat="45.60302" lon="5.39977">
        <ele>349.35450707613</ele>
        <time>2016-06-26T10:52:32Z</time>
      </trkpt>
      <trkpt lat="45.60302" lon="5.39977">
        <ele>349.35450707613</ele>
        <time>2016-06-26T10:52:37Z</time>
      </trkpt>
      <trkpt lat="45.60302" lon="5.39977">
        <ele>349.35450707613</ele>
        <time>2016-06-26T10:52:47Z</time>
      </trkpt>
      <trkpt lat="45.60302" lon="5.39977">
        <ele>349.35450707613</ele>
        <time>2016-06-26T10:52:52Z</time>
      </trkpt>
      <trkpt lat="45.60303" lon="5.39979">
        <ele>349.35450707613</ele>
        <time>2016-06-26T10:53:07Z</time>
      </trkpt>
      <trkpt lat="45.60304" lon="5.3998">
        <ele>349.35450707613</ele>
        <time>2016-06-26T10:53:12Z</time>
      </trkpt>
      <trkpt lat="45.60304" lon="5.39981">
        <ele>349.35450707613</ele>
        <time>2016-06-26T10:53:22Z</time>
      </trkpt>
      <trkpt lat="45.60304" lon="5.39981">
        <ele>349.35450707613</ele>
        <time>2016-06-26T10:53:27Z</time>
      </trkpt>
      <trkpt lat="45.60304" lon="5.39982">
        <ele>349.35450707613</ele>
        <time>2016-06-26T10:53:37Z</time>
      </trkpt>
      <trkpt lat="45.60304" lon="5.39982">
        <ele>349.35450707613</ele>
        <time>2016-06-26T10:53:42Z</time>
      </trkpt>
      <trkpt lat="45.60304" lon="5.39982">
        <ele>349.35450707613</ele>
        <time>2016-06-26T10:53:52Z</time>
      </trkpt>
      <trkpt lat="45.60305" lon="5.39982">
        <ele>349.35450707613</ele>
        <time>2016-06-26T10:53:57Z</time>
      </trkpt>
      <trkpt lat="45.60303" lon="5.39981">
        <ele>349.97431296022</ele>
        <time>2016-06-26T10:54:07Z</time>
      </trkpt>
      <trkpt lat="45.60303" lon="5.39981">
        <ele>349.97431296022</ele>
        <time>2016-06-26T10:54:12Z</time>
      </trkpt>
      <trkpt lat="45.60303" lon="5.39981">
        <ele>349.97431296022</ele>
        <time>2016-06-26T10:54:22Z</time>
      </trkpt>
      <trkpt lat="45.60303" lon="5.39981">
        <ele>349.97431296022</ele>
        <time>2016-06-26T10:54:27Z</time>
      </trkpt>
      <trkpt lat="45.60305" lon="5.39981">
        <ele>349.97431296022</ele>
        <time>2016-06-26T10:54:37Z</time>
      </trkpt>
      <trkpt lat="45.60305" lon="5.39981">
        <ele>349.97431296022</ele>
        <time>2016-06-26T10:54:42Z</time>
      </trkpt>
      <trkpt lat="45.60304" lon="5.39981">
        <ele>349.97431296022</ele>
        <time>2016-06-26T10:54:52Z</time>
      </trkpt>
      <trkpt lat="45.60304" lon="5.39982">
        <ele>349.97431296022</ele>
        <time>2016-06-26T10:54:57Z</time>
      </trkpt>
      <trkpt lat="45.60304" lon="5.39981">
        <ele>349.97431296022</ele>
        <time>2016-06-26T10:55:07Z</time>
      </trkpt>
      <trkpt lat="45.60304" lon="5.39981">
        <ele>349.97431296022</ele>
        <time>2016-06-26T10:55:12Z</time>
      </trkpt>
      <trkpt lat="45.60304" lon="5.39979">
        <ele>349.97431296022</ele>
        <time>2016-06-26T10:55:22Z</time>
      </trkpt>
      <trkpt lat="45.60304" lon="5.3998">
        <ele>349.97431296022</ele>
        <time>2016-06-26T10:55:27Z</time>
      </trkpt>
      <trkpt lat="45.60304" lon="5.39977">
        <ele>350.57178097137</ele>
        <time>2016-06-26T10:55:37Z</time>
      </trkpt>
      <trkpt lat="45.60304" lon="5.39977">
        <ele>350.57178097137</ele>
        <time>2016-06-26T10:55:42Z</time>
      </trkpt>
      <trkpt lat="45.60304" lon="5.39977">
        <ele>350.57178097137</ele>
        <time>2016-06-26T10:55:57Z</time>
      </trkpt>
      <trkpt lat="45.60304" lon="5.39977">
        <ele>350.57178097137</ele>
        <time>2016-06-26T10:56:02Z</time>
      </trkpt>
      <trkpt lat="45.60304" lon="5.39977">
        <ele>350.57178097137</ele>
        <time>2016-06-26T10:56:12Z</time>
      </trkpt>
      <trkpt lat="45.60304" lon="5.39977">
        <ele>350.57178097137</ele>
        <time>2016-06-26T10:56:17Z</time>
      </trkpt>
      <trkpt lat="45.60304" lon="5.39977">
        <ele>350.57178097137</ele>
        <time>2016-06-26T10:56:27Z</time>
      </trkpt>
      <trkpt lat="45.60303" lon="5.39977">
        <ele>350.57178097137</ele>
        <time>2016-06-26T10:56:32Z</time>
      </trkpt>
      <trkpt lat="45.60301" lon="5.39977">
        <ele>350.57178097137</ele>
        <time>2016-06-26T10:56:42Z</time>
      </trkpt>
      <trkpt lat="45.60301" lon="5.39977">
        <ele>350.57178097137</ele>
        <time>2016-06-26T10:56:47Z</time>
      </trkpt>
      <trkpt lat="45.60301" lon="5.39977">
        <ele>350.57178097137</ele>
        <time>2016-06-26T10:56:57Z</time>
      </trkpt>
      <trkpt lat="45.60301" lon="5.39977">
        <ele>350.57178097137</ele>
        <time>2016-06-26T10:57:02Z</time>
      </trkpt>
      <trkpt lat="45.60301" lon="5.39977">
        <ele>350.57178097137</ele>
        <time>2016-06-26T10:57:12Z</time>
      </trkpt>
      <trkpt lat="45.60301" lon="5.39977">
        <ele>350.57178097137</ele>
        <time>2016-06-26T10:57:17Z</time>
      </trkpt>
      <trkpt lat="45.603" lon="5.39977">
        <ele>350.57178097137</ele>
        <time>2016-06-26T10:57:27Z</time>
      </trkpt>
      <trkpt lat="45.603" lon="5.39979">
        <ele>350.57178097137</ele>
        <time>2016-06-26T10:57:32Z</time>
      </trkpt>
      <trkpt lat="45.60302" lon="5.39981">
        <ele>350.57178097137</ele>
        <time>2016-06-26T10:57:47Z</time>
      </trkpt>
      <trkpt lat="45.60308" lon="5.39988">
        <ele>351.3015359257</ele>
        <time>2016-06-26T10:57:52Z</time>
      </trkpt>
      <trkpt lat="45.6032" lon="5.4">
        <ele>350.95181552769</ele>
        <time>2016-06-26T10:58:02Z</time>
      </trkpt>
      <trkpt lat="45.60329" lon="5.40006">
        <ele>350.37731069701</ele>
        <time>2016-06-26T10:58:07Z</time>
      </trkpt>
      <trkpt lat="45.60365" lon="5.40009">
        <ele>350.41383522968</ele>
        <time>2016-06-26T10:58:17Z</time>
      </trkpt>
      <trkpt lat="45.60378" lon="5.40011">
        <ele>350.34975686737</ele>
        <time>2016-06-26T10:58:22Z</time>
      </trkpt>
      <trkpt lat="45.60395" lon="5.40016">
        <ele>350.13134191727</ele>
        <time>2016-06-26T10:58:32Z</time>
      </trkpt>
      <trkpt lat="45.60403" lon="5.4002">
        <ele>350.13134191727</ele>
        <time>2016-06-26T10:58:37Z</time>
      </trkpt>
      <trkpt lat="45.60419" lon="5.40024">
        <ele>350.25693463921</ele>
        <time>2016-06-26T10:58:47Z</time>
      </trkpt>
      <trkpt lat="45.60419" lon="5.40024">
        <ele>350.25693463921</ele>
        <time>2016-06-26T10:58:52Z</time>
      </trkpt>
      <trkpt lat="45.60424" lon="5.40021">
        <ele>350.25693463921</ele>
        <time>2016-06-26T10:59:02Z</time>
      </trkpt>
      <trkpt lat="45.60428" lon="5.40017">
        <ele>350.40915432188</ele>
        <time>2016-06-26T10:59:07Z</time>
      </trkpt>
      <trkpt lat="45.60428" lon="5.40007">
        <ele>350.40915432188</ele>
        <time>2016-06-26T10:59:17Z</time>
      </trkpt>
      <trkpt lat="45.60433" lon="5.4">
        <ele>350.40922678966</ele>
        <time>2016-06-26T10:59:22Z</time>
      </trkpt>
      <trkpt lat="45.60442" lon="5.39966">
        <ele>350.6684736687</ele>
        <time>2016-06-26T10:59:37Z</time>
      </trkpt>
      <trkpt lat="45.60449" lon="5.39962">
        <ele>350.6684736687</ele>
        <time>2016-06-26T10:59:42Z</time>
      </trkpt>
      <trkpt lat="45.60463" lon="5.39951">
        <ele>351.71147146376</ele>
        <time>2016-06-26T10:59:52Z</time>
      </trkpt>
      <trkpt lat="45.60467" lon="5.39948">
        <ele>351.71147146376</ele>
        <time>2016-06-26T10:59:57Z</time>
      </trkpt>
      <trkpt lat="45.60475" lon="5.39944">
        <ele>352.55219379716</ele>
        <time>2016-06-26T11:00:07Z</time>
      </trkpt>
      <trkpt lat="45.60479" lon="5.39942">
        <ele>352.55219379716</ele>
        <time>2016-06-26T11:00:12Z</time>
      </trkpt>
      <trkpt lat="45.60489" lon="5.39937">
        <ele>352.68123780408</ele>
        <time>2016-06-26T11:00:22Z</time>
      </trkpt>
      <trkpt lat="45.60493" lon="5.39933">
        <ele>352.68123780408</ele>
        <time>2016-06-26T11:00:27Z</time>
      </trkpt>
      <trkpt lat="45.605" lon="5.39929">
        <ele>352.13312158419</ele>
        <time>2016-06-26T11:00:37Z</time>
      </trkpt>
      <trkpt lat="45.60505" lon="5.39922">
        <ele>352.13312158419</ele>
        <time>2016-06-26T11:00:42Z</time>
      </trkpt>
      <trkpt lat="45.6052" lon="5.3991">
        <ele>352.26767521187</ele>
        <time>2016-06-26T11:00:52Z</time>
      </trkpt>
      <trkpt lat="45.60531" lon="5.39909">
        <ele>352.77219443074</ele>
        <time>2016-06-26T11:00:57Z</time>
      </trkpt>
      <trkpt lat="45.60546" lon="5.39908">
        <ele>353.88923907105</ele>
        <time>2016-06-26T11:01:07Z</time>
      </trkpt>
      <trkpt lat="45.60555" lon="5.39907">
        <ele>354.06936244655</ele>
        <time>2016-06-26T11:01:12Z</time>
      </trkpt>
      <trkpt lat="45.60574" lon="5.39911">
        <ele>355.68425878973</ele>
        <time>2016-06-26T11:01:27Z</time>
      </trkpt>
      <trkpt lat="45.6058" lon="5.39915">
        <ele>355.68425878973</ele>
        <time>2016-06-26T11:01:32Z</time>
      </trkpt>
      <trkpt lat="45.60588" lon="5.39922">
        <ele>356.47442399248</ele>
        <time>2016-06-26T11:01:42Z</time>
      </trkpt>
      <trkpt lat="45.60591" lon="5.39924">
        <ele>356.47442399248</ele>
        <time>2016-06-26T11:01:47Z</time>
      </trkpt>
      <trkpt lat="45.60604" lon="5.39934">
        <ele>357.01485966958</ele>
        <time>2016-06-26T11:01:57Z</time>
      </trkpt>
      <trkpt lat="45.60613" lon="5.39938">
        <ele>357.76710369189</ele>
        <time>2016-06-26T11:02:02Z</time>
      </trkpt>
      <trkpt lat="45.60626" lon="5.39947">
        <ele>357.37134285108</ele>
        <time>2016-06-26T11:02:12Z</time>
      </trkpt>
      <trkpt lat="45.60634" lon="5.39953">
        <ele>357.37134285108</ele>
        <time>2016-06-26T11:02:17Z</time>
      </trkpt>
      <trkpt lat="45.60649" lon="5.39963">
        <ele>356.64621863636</ele>
        <time>2016-06-26T11:02:27Z</time>
      </trkpt>
      <trkpt lat="45.60655" lon="5.39967">
        <ele>356.64621863636</ele>
        <time>2016-06-26T11:02:32Z</time>
      </trkpt>
      <trkpt lat="45.60663" lon="5.39977">
        <ele>355.84689302548</ele>
        <time>2016-06-26T11:02:42Z</time>
      </trkpt>
      <trkpt lat="45.60668" lon="5.39984">
        <ele>355.84689302548</ele>
        <time>2016-06-26T11:02:47Z</time>
      </trkpt>
      <trkpt lat="45.60682" lon="5.4">
        <ele>355.48392190304</ele>
        <time>2016-06-26T11:03:02Z</time>
      </trkpt>
      <trkpt lat="45.60692" lon="5.40002">
        <ele>355.48161779976</ele>
        <time>2016-06-26T11:03:07Z</time>
      </trkpt>
      <trkpt lat="45.60703" lon="5.40009">
        <ele>355.56718860377</ele>
        <time>2016-06-26T11:03:17Z</time>
      </trkpt>
      <trkpt lat="45.60709" lon="5.40021">
        <ele>356.16505669405</ele>
        <time>2016-06-26T11:03:22Z</time>
      </trkpt>
      <trkpt lat="45.60718" lon="5.40041">
        <ele>356.65834602182</ele>
        <time>2016-06-26T11:03:32Z</time>
      </trkpt>
      <trkpt lat="45.60724" lon="5.4005">
        <ele>356.65834602182</ele>
        <time>2016-06-26T11:03:37Z</time>
      </trkpt>
      <trkpt lat="45.6073" lon="5.40067">
        <ele>356.79292873712</ele>
        <time>2016-06-26T11:03:47Z</time>
      </trkpt>
      <trkpt lat="45.60734" lon="5.40079">
        <ele>356.78118885062</ele>
        <time>2016-06-26T11:03:52Z</time>
      </trkpt>
      <trkpt lat="45.60739" lon="5.40101">
        <ele>357.0509879349</ele>
        <time>2016-06-26T11:04:02Z</time>
      </trkpt>
      <trkpt lat="45.60739" lon="5.40111">
        <ele>357.0509879349</ele>
        <time>2016-06-26T11:04:07Z</time>
      </trkpt>
      <trkpt lat="45.60739" lon="5.40143">
        <ele>357.29191046894</ele>
        <time>2016-06-26T11:04:17Z</time>
      </trkpt>
      <trkpt lat="45.6074" lon="5.40167">
        <ele>357.43267679965</ele>
        <time>2016-06-26T11:04:22Z</time>
      </trkpt>
      <trkpt lat="45.60738" lon="5.40195">
        <ele>356.70146001704</ele>
        <time>2016-06-26T11:04:32Z</time>
      </trkpt>
      <trkpt lat="45.60736" lon="5.40201">
        <ele>356.70146001704</ele>
        <time>2016-06-26T11:04:37Z</time>
      </trkpt>
      <trkpt lat="45.60736" lon="5.4021">
        <ele>355.62500812365</ele>
        <time>2016-06-26T11:04:52Z</time>
      </trkpt>
      <trkpt lat="45.60739" lon="5.40204">
        <ele>355.62500812365</ele>
        <time>2016-06-26T11:04:57Z</time>
      </trkpt>
      <trkpt lat="45.60739" lon="5.40185">
        <ele>354.99504344037</ele>
        <time>2016-06-26T11:05:07Z</time>
      </trkpt>
      <trkpt lat="45.60741" lon="5.40179">
        <ele>354.99504344037</ele>
        <time>2016-06-26T11:05:12Z</time>
      </trkpt>
      <trkpt lat="45.60741" lon="5.40175">
        <ele>354.99504344037</ele>
        <time>2016-06-26T11:05:22Z</time>
      </trkpt>
      <trkpt lat="45.6074" lon="5.40169">
        <ele>354.36222212086</ele>
        <time>2016-06-26T11:05:27Z</time>
      </trkpt>
      <trkpt lat="45.6074" lon="5.40146">
        <ele>354.00199928514</ele>
        <time>2016-06-26T11:05:37Z</time>
      </trkpt>
      <trkpt lat="45.60742" lon="5.40134">
        <ele>354.00199928514</ele>
        <time>2016-06-26T11:05:42Z</time>
      </trkpt>
      <trkpt lat="45.6074" lon="5.40116">
        <ele>353.1456807859</ele>
        <time>2016-06-26T11:05:52Z</time>
      </trkpt>
      <trkpt lat="45.60739" lon="5.4011">
        <ele>353.1456807859</ele>
        <time>2016-06-26T11:05:57Z</time>
      </trkpt>
      <trkpt lat="45.6073" lon="5.40084">
        <ele>352.32182088615</ele>
        <time>2016-06-26T11:06:07Z</time>
      </trkpt>
      <trkpt lat="45.60727" lon="5.40076">
        <ele>352.32182088615</ele>
        <time>2016-06-26T11:06:12Z</time>
      </trkpt>
      <trkpt lat="45.60721" lon="5.40056">
        <ele>351.41481302639</ele>
        <time>2016-06-26T11:06:22Z</time>
      </trkpt>
      <trkpt lat="45.60718" lon="5.40049">
        <ele>351.41481302639</ele>
        <time>2016-06-26T11:06:27Z</time>
      </trkpt>
      <trkpt lat="45.60717" lon="5.40006">
        <ele>350.548371198</ele>
        <time>2016-06-26T11:06:42Z</time>
      </trkpt>
      <trkpt lat="45.60717" lon="5.39993">
        <ele>349.18851512016</ele>
        <time>2016-06-26T11:06:47Z</time>
      </trkpt>
      <trkpt lat="45.60722" lon="5.39966">
        <ele>347.69212998692</ele>
        <time>2016-06-26T11:06:57Z</time>
      </trkpt>
      <trkpt lat="45.60724" lon="5.39955">
        <ele>347.69212998692</ele>
        <time>2016-06-26T11:07:02Z</time>
      </trkpt>
      <trkpt lat="45.60733" lon="5.39925">
        <ele>346.44790178661</ele>
        <time>2016-06-26T11:07:12Z</time>
      </trkpt>
      <trkpt lat="45.60742" lon="5.39892">
        <ele>345.35408122054</ele>
        <time>2016-06-26T11:07:17Z</time>
      </trkpt>
      <trkpt lat="45.60744" lon="5.39844">
        <ele>344.35917727576</ele>
        <time>2016-06-26T11:07:27Z</time>
      </trkpt>
      <trkpt lat="45.6074" lon="5.3983">
        <ele>343.74662603929</ele>
        <time>2016-06-26T11:07:32Z</time>
      </trkpt>
      <trkpt lat="45.60732" lon="5.39808">
        <ele>343.01414191394</ele>
        <time>2016-06-26T11:07:42Z</time>
      </trkpt>
      <trkpt lat="45.6073" lon="5.39797">
        <ele>343.01414191394</ele>
        <time>2016-06-26T11:07:47Z</time>
      </trkpt>
      <trkpt lat="45.60723" lon="5.39778">
        <ele>342.27307710782</ele>
        <time>2016-06-26T11:07:57Z</time>
      </trkpt>
      <trkpt lat="45.60723" lon="5.39769">
        <ele>342.27307710782</ele>
        <time>2016-06-26T11:08:02Z</time>
      </trkpt>
      <trkpt lat="45.60727" lon="5.39763">
        <ele>341.52570677532</ele>
        <time>2016-06-26T11:08:12Z</time>
      </trkpt>
      <trkpt lat="45.60731" lon="5.3976">
        <ele>341.52570677532</ele>
        <time>2016-06-26T11:08:17Z</time>
      </trkpt>
      <trkpt lat="45.60745" lon="5.39763">
        <ele>341.33614662265</ele>
        <time>2016-06-26T11:08:27Z</time>
      </trkpt>
      <trkpt lat="45.60751" lon="5.39758">
        <ele>341.33614662265</ele>
        <time>2016-06-26T11:08:32Z</time>
      </trkpt>
      <trkpt lat="45.6078" lon="5.39748">
        <ele>340.6978841215</ele>
        <time>2016-06-26T11:08:47Z</time>
      </trkpt>
      <trkpt lat="45.60786" lon="5.39747">
        <ele>340.6978841215</ele>
        <time>2016-06-26T11:08:52Z</time>
      </trkpt>
      <trkpt lat="45.60798" lon="5.39741">
        <ele>340.55300613993</ele>
        <time>2016-06-26T11:09:02Z</time>
      </trkpt>
      <trkpt lat="45.60804" lon="5.39739">
        <ele>340.55300613993</ele>
        <time>2016-06-26T11:09:07Z</time>
      </trkpt>
      <trkpt lat="45.60816" lon="5.39738">
        <ele>340.44714520349</ele>
        <time>2016-06-26T11:09:17Z</time>
      </trkpt>
      <trkpt lat="45.60823" lon="5.39736">
        <ele>340.44714520349</ele>
        <time>2016-06-26T11:09:22Z</time>
      </trkpt>
      <trkpt lat="45.60837" lon="5.39732">
        <ele>340.62207549056</ele>
        <time>2016-06-26T11:09:32Z</time>
      </trkpt>
      <trkpt lat="45.60844" lon="5.3973">
        <ele>340.62207549056</ele>
        <time>2016-06-26T11:09:37Z</time>
      </trkpt>
      <trkpt lat="45.60859" lon="5.39727">
        <ele>340.9118885518</ele>
        <time>2016-06-26T11:09:47Z</time>
      </trkpt>
      <trkpt lat="45.60863" lon="5.39726">
        <ele>340.9118885518</ele>
        <time>2016-06-26T11:09:52Z</time>
      </trkpt>
      <trkpt lat="45.60873" lon="5.39723">
        <ele>341.23456840585</ele>
        <time>2016-06-26T11:10:02Z</time>
      </trkpt>
      <trkpt lat="45.6088" lon="5.39721">
        <ele>341.23456840585</ele>
        <time>2016-06-26T11:10:07Z</time>
      </trkpt>
      <trkpt lat="45.609" lon="5.39718">
        <ele>341.51400933227</ele>
        <time>2016-06-26T11:10:22Z</time>
      </trkpt>
      <trkpt lat="45.60907" lon="5.39717">
        <ele>341.51400933227</ele>
        <time>2016-06-26T11:10:27Z</time>
      </trkpt>
      <trkpt lat="45.60922" lon="5.39712">
        <ele>341.72303470481</ele>
        <time>2016-06-26T11:10:37Z</time>
      </trkpt>
      <trkpt lat="45.6093" lon="5.39711">
        <ele>341.72303470481</ele>
        <time>2016-06-26T11:10:42Z</time>
      </trkpt>
      <trkpt lat="45.6095" lon="5.39708">
        <ele>342.02399604107</ele>
        <time>2016-06-26T11:10:52Z</time>
      </trkpt>
      <trkpt lat="45.60956" lon="5.39707">
        <ele>342.02399604107</ele>
        <time>2016-06-26T11:10:57Z</time>
      </trkpt>
      <trkpt lat="45.6097" lon="5.39705">
        <ele>342.35088900822</ele>
        <time>2016-06-26T11:11:07Z</time>
      </trkpt>
      <trkpt lat="45.60976" lon="5.39702">
        <ele>342.35088900822</ele>
        <time>2016-06-26T11:11:12Z</time>
      </trkpt>
      <trkpt lat="45.60991" lon="5.39702">
        <ele>342.75777450533</ele>
        <time>2016-06-26T11:11:22Z</time>
      </trkpt>
      <trkpt lat="45.60998" lon="5.39701">
        <ele>342.75777450533</ele>
        <time>2016-06-26T11:11:27Z</time>
      </trkpt>
      <trkpt lat="45.61011" lon="5.39709">
        <ele>343.25128998958</ele>
        <time>2016-06-26T11:11:37Z</time>
      </trkpt>
      <trkpt lat="45.61014" lon="5.39719">
        <ele>343.25128998958</ele>
        <time>2016-06-26T11:11:42Z</time>
      </trkpt>
      <trkpt lat="45.61013" lon="5.39738">
        <ele>343.72206420497</ele>
        <time>2016-06-26T11:11:52Z</time>
      </trkpt>
      <trkpt lat="45.61012" lon="5.3975">
        <ele>343.72206420497</ele>
        <time>2016-06-26T11:11:57Z</time>
      </trkpt>
      <trkpt lat="45.61009" lon="5.39775">
        <ele>344.08325097324</ele>
        <time>2016-06-26T11:12:07Z</time>
      </trkpt>
      <trkpt lat="45.61009" lon="5.39779">
        <ele>344.08325097324</ele>
        <time>2016-06-26T11:12:12Z</time>
      </trkpt>
      <trkpt lat="45.61007" lon="5.3981">
        <ele>344.58616760891</ele>
        <time>2016-06-26T11:12:27Z</time>
      </trkpt>
      <trkpt lat="45.61004" lon="5.39829">
        <ele>345.00214139955</ele>
        <time>2016-06-26T11:12:32Z</time>
      </trkpt>
      <trkpt lat="45.61005" lon="5.39842">
        <ele>345.58072659191</ele>
        <time>2016-06-26T11:12:42Z</time>
      </trkpt>
      <trkpt lat="45.61007" lon="5.39846">
        <ele>345.58072659191</ele>
        <time>2016-06-26T11:12:47Z</time>
      </trkpt>
      <trkpt lat="45.6101" lon="5.39869">
        <ele>345.54394283769</ele>
        <time>2016-06-26T11:12:57Z</time>
      </trkpt>
      <trkpt lat="45.61011" lon="5.3988">
        <ele>345.54394283769</ele>
        <time>2016-06-26T11:13:02Z</time>
      </trkpt>
      <trkpt lat="45.61013" lon="5.399">
        <ele>345.15267543541</ele>
        <time>2016-06-26T11:13:12Z</time>
      </trkpt>
      <trkpt lat="45.61015" lon="5.39908">
        <ele>345.15267543541</ele>
        <time>2016-06-26T11:13:17Z</time>
      </trkpt>
      <trkpt lat="45.61016" lon="5.39927">
        <ele>345.21170700401</ele>
        <time>2016-06-26T11:13:27Z</time>
      </trkpt>
      <trkpt lat="45.61015" lon="5.3994">
        <ele>345.28375948051</ele>
        <time>2016-06-26T11:13:32Z</time>
      </trkpt>
      <trkpt lat="45.61015" lon="5.39974">
        <ele>345.35277223836</ele>
        <time>2016-06-26T11:13:42Z</time>
      </trkpt>
      <trkpt lat="45.61014" lon="5.39988">
        <ele>345.34625900704</ele>
        <time>2016-06-26T11:13:47Z</time>
      </trkpt>
      <trkpt lat="45.61013" lon="5.40008">
        <ele>345.16847756272</ele>
        <time>2016-06-26T11:13:57Z</time>
      </trkpt>
      <trkpt lat="45.61013" lon="5.4002">
        <ele>345.16847756272</ele>
        <time>2016-06-26T11:14:02Z</time>
      </trkpt>
      <trkpt lat="45.61013" lon="5.40037">
        <ele>344.64476033346</ele>
        <time>2016-06-26T11:14:12Z</time>
      </trkpt>
      <trkpt lat="45.61014" lon="5.40043">
        <ele>344.64476033346</ele>
        <time>2016-06-26T11:14:17Z</time>
      </trkpt>
      <trkpt lat="45.61012" lon="5.4006">
        <ele>344.73833429245</ele>
        <time>2016-06-26T11:14:27Z</time>
      </trkpt>
      <trkpt lat="45.6101" lon="5.40077">
        <ele>344.6826819624</ele>
        <time>2016-06-26T11:14:32Z</time>
      </trkpt>
      <trkpt lat="45.61006" lon="5.40094">
        <ele>344.791223738</ele>
        <time>2016-06-26T11:14:42Z</time>
      </trkpt>
      <trkpt lat="45.61004" lon="5.401">
        <ele>344.791223738</ele>
        <time>2016-06-26T11:14:47Z</time>
      </trkpt>
      <trkpt lat="45.61002" lon="5.40105">
        <ele>344.791223738</ele>
        <time>2016-06-26T11:14:57Z</time>
      </trkpt>
      <trkpt lat="45.61002" lon="5.40109">
        <ele>344.74864960577</ele>
        <time>2016-06-26T11:15:02Z</time>
      </trkpt>
      <trkpt lat="45.60997" lon="5.40129">
        <ele>344.91175682647</ele>
        <time>2016-06-26T11:15:12Z</time>
      </trkpt>
      <trkpt lat="45.60995" lon="5.40133">
        <ele>344.91175682647</ele>
        <time>2016-06-26T11:15:17Z</time>
      </trkpt>
      <trkpt lat="45.60989" lon="5.4016">
        <ele>345.26470954361</ele>
        <time>2016-06-26T11:15:32Z</time>
      </trkpt>
      <trkpt lat="45.60984" lon="5.40181">
        <ele>345.28793447209</ele>
        <time>2016-06-26T11:15:37Z</time>
      </trkpt>
      <trkpt lat="45.60972" lon="5.40218">
        <ele>344.99094942977</ele>
        <time>2016-06-26T11:15:47Z</time>
      </trkpt>
      <trkpt lat="45.60968" lon="5.40233">
        <ele>344.38349058187</ele>
        <time>2016-06-26T11:15:52Z</time>
      </trkpt>
      <trkpt lat="45.60959" lon="5.40256">
        <ele>343.90780003014</ele>
        <time>2016-06-26T11:16:02Z</time>
      </trkpt>
      <trkpt lat="45.60954" lon="5.40267">
        <ele>342.83479681958</ele>
        <time>2016-06-26T11:16:07Z</time>
      </trkpt>
      <trkpt lat="45.6095" lon="5.40291">
        <ele>342.06145117531</ele>
        <time>2016-06-26T11:16:17Z</time>
      </trkpt>
      <trkpt lat="45.60949" lon="5.40301">
        <ele>342.06145117531</ele>
        <time>2016-06-26T11:16:22Z</time>
      </trkpt>
      <trkpt lat="45.60949" lon="5.40336">
        <ele>339.96810928041</ele>
        <time>2016-06-26T11:16:32Z</time>
      </trkpt>
      <trkpt lat="45.60952" lon="5.40354">
        <ele>338.60292240792</ele>
        <time>2016-06-26T11:16:37Z</time>
      </trkpt>
      <trkpt lat="45.60952" lon="5.40382">
        <ele>338.10336686758</ele>
        <time>2016-06-26T11:16:47Z</time>
      </trkpt>
      <trkpt lat="45.60951" lon="5.40395">
        <ele>338.10336686758</ele>
        <time>2016-06-26T11:16:52Z</time>
      </trkpt>
      <trkpt lat="45.60952" lon="5.40412">
        <ele>338.07556486134</ele>
        <time>2016-06-26T11:17:02Z</time>
      </trkpt>
      <trkpt lat="45.60955" lon="5.40421">
        <ele>338.07556486134</ele>
        <time>2016-06-26T11:17:07Z</time>
      </trkpt>
      <trkpt lat="45.6095" lon="5.40421">
        <ele>338.94583164986</ele>
        <time>2016-06-26T11:17:22Z</time>
      </trkpt>
      <trkpt lat="45.60943" lon="5.40421">
        <ele>338.94583164986</ele>
        <time>2016-06-26T11:17:27Z</time>
      </trkpt>
      <trkpt lat="45.6093" lon="5.4043">
        <ele>339.31964070386</ele>
        <time>2016-06-26T11:17:37Z</time>
      </trkpt>
      <trkpt lat="45.60926" lon="5.40439">
        <ele>339.31964070386</ele>
        <time>2016-06-26T11:17:42Z</time>
      </trkpt>
      <trkpt lat="45.60902" lon="5.40455">
        <ele>339.85177844053</ele>
        <time>2016-06-26T11:17:52Z</time>
      </trkpt>
      <trkpt lat="45.60878" lon="5.40462">
        <ele>339.72177022096</ele>
        <time>2016-06-26T11:17:57Z</time>
      </trkpt>
      <trkpt lat="45.60828" lon="5.4048">
        <ele>339.54031526918</ele>
        <time>2016-06-26T11:18:07Z</time>
      </trkpt>
      <trkpt lat="45.60807" lon="5.40489">
        <ele>338.90784120144</ele>
        <time>2016-06-26T11:18:12Z</time>
      </trkpt>
      <trkpt lat="45.60805" lon="5.40491">
        <ele>338.90784120144</ele>
        <time>2016-06-26T11:18:22Z</time>
      </trkpt>
      <trkpt lat="45.60807" lon="5.40492">
        <ele>338.90784120144</ele>
        <time>2016-06-26T11:18:27Z</time>
      </trkpt>
      <trkpt lat="45.60806" lon="5.40502">
        <ele>338.10388362179</ele>
        <time>2016-06-26T11:18:37Z</time>
      </trkpt>
      <trkpt lat="45.60808" lon="5.40512">
        <ele>338.10388362179</ele>
        <time>2016-06-26T11:18:42Z</time>
      </trkpt>
      <trkpt lat="45.60816" lon="5.40586">
        <ele>337.71936874754</ele>
        <time>2016-06-26T11:18:52Z</time>
      </trkpt>
      <trkpt lat="45.6082" lon="5.40612">
        <ele>337.85387936902</ele>
        <time>2016-06-26T11:18:57Z</time>
      </trkpt>
      <trkpt lat="45.60826" lon="5.40728">
        <ele>338.1947023198</ele>
        <time>2016-06-26T11:19:12Z</time>
      </trkpt>
      <trkpt lat="45.6083" lon="5.40771">
        <ele>338.71090611855</ele>
        <time>2016-06-26T11:19:17Z</time>
      </trkpt>
      <trkpt lat="45.60838" lon="5.40847">
        <ele>338.89776483454</ele>
        <time>2016-06-26T11:19:27Z</time>
      </trkpt>
      <trkpt lat="45.60843" lon="5.40883">
        <ele>339.31173955287</ele>
        <time>2016-06-26T11:19:32Z</time>
      </trkpt>
      <trkpt lat="45.60856" lon="5.4096">
        <ele>340.15073469088</ele>
        <time>2016-06-26T11:19:42Z</time>
      </trkpt>
      <trkpt lat="45.60863" lon="5.41005">
        <ele>341.6834002513</ele>
        <time>2016-06-26T11:19:47Z</time>
      </trkpt>
      <trkpt lat="45.60869" lon="5.41081">
        <ele>342.8020769205</ele>
        <time>2016-06-26T11:19:57Z</time>
      </trkpt>
      <trkpt lat="45.60875" lon="5.41118">
        <ele>343.92277167052</ele>
        <time>2016-06-26T11:20:02Z</time>
      </trkpt>
      <trkpt lat="45.60885" lon="5.41194">
        <ele>345.11391611518</ele>
        <time>2016-06-26T11:20:12Z</time>
      </trkpt>
      <trkpt lat="45.60892" lon="5.4123">
        <ele>346.75580580114</ele>
        <time>2016-06-26T11:20:17Z</time>
      </trkpt>
      <trkpt lat="45.60895" lon="5.41262">
        <ele>348.10434285976</ele>
        <time>2016-06-26T11:20:27Z</time>
      </trkpt>
      <trkpt lat="45.60897" lon="5.41271">
        <ele>348.10434285976</ele>
        <time>2016-06-26T11:20:32Z</time>
      </trkpt>
      <trkpt lat="45.60896" lon="5.41286">
        <ele>349.66709679049</ele>
        <time>2016-06-26T11:20:42Z</time>
      </trkpt>
      <trkpt lat="45.60893" lon="5.41287">
        <ele>349.66709679049</ele>
        <time>2016-06-26T11:20:47Z</time>
      </trkpt>
      <trkpt lat="45.60894" lon="5.4129">
        <ele>349.66709679049</ele>
        <time>2016-06-26T11:20:57Z</time>
      </trkpt>
      <trkpt lat="45.60894" lon="5.4129">
        <ele>349.66709679049</ele>
        <time>2016-06-26T11:21:02Z</time>
      </trkpt>
      <trkpt lat="45.60894" lon="5.4129">
        <ele>349.66709679049</ele>
        <time>2016-06-26T11:21:12Z</time>
      </trkpt>
      <trkpt lat="45.60894" lon="5.4129">
        <ele>349.66709679049</ele>
        <time>2016-06-26T11:21:17Z</time>
      </trkpt>
      <trkpt lat="45.60895" lon="5.4129">
        <ele>349.66709679049</ele>
        <time>2016-06-26T11:21:27Z</time>
      </trkpt>
      <trkpt lat="45.60895" lon="5.41289">
        <ele>349.66709679049</ele>
        <time>2016-06-26T11:21:32Z</time>
      </trkpt>
      <trkpt lat="45.60882" lon="5.41273">
        <ele>352.15881011619</ele>
        <time>2016-06-26T11:21:47Z</time>
      </trkpt>
      <trkpt lat="45.60878" lon="5.41262">
        <ele>352.15881011619</ele>
        <time>2016-06-26T11:21:52Z</time>
      </trkpt>
      <trkpt lat="45.60873" lon="5.41233">
        <ele>355.27365252305</ele>
        <time>2016-06-26T11:22:02Z</time>
      </trkpt>
      <trkpt lat="45.60869" lon="5.41221">
        <ele>357.96281781932</ele>
        <time>2016-06-26T11:22:07Z</time>
      </trkpt>
      <trkpt lat="45.60859" lon="5.41198">
        <ele>359.81788029688</ele>
        <time>2016-06-26T11:22:17Z</time>
      </trkpt>
      <trkpt lat="45.60855" lon="5.41188">
        <ele>359.81788029688</ele>
        <time>2016-06-26T11:22:22Z</time>
      </trkpt>
      <trkpt lat="45.60815" lon="5.4119">
        <ele>361.18343199058</ele>
        <time>2016-06-26T11:22:32Z</time>
      </trkpt>
      <trkpt lat="45.60799" lon="5.41198">
        <ele>362.9422857618</ele>
        <time>2016-06-26T11:22:37Z</time>
      </trkpt>
      <trkpt lat="45.60795" lon="5.41183">
        <ele>365.0035325409</ele>
        <time>2016-06-26T11:22:47Z</time>
      </trkpt>
      <trkpt lat="45.6079" lon="5.4119">
        <ele>365.0035325409</ele>
        <time>2016-06-26T11:22:52Z</time>
      </trkpt>
      <trkpt lat="45.6078" lon="5.41206">
        <ele>365.68259278815</ele>
        <time>2016-06-26T11:23:02Z</time>
      </trkpt>
      <trkpt lat="45.60777" lon="5.41212">
        <ele>365.68259278815</ele>
        <time>2016-06-26T11:23:07Z</time>
      </trkpt>
      <trkpt lat="45.60773" lon="5.41218">
        <ele>365.82930123636</ele>
        <time>2016-06-26T11:23:17Z</time>
      </trkpt>
      <trkpt lat="45.60772" lon="5.41222">
        <ele>365.82930123636</ele>
        <time>2016-06-26T11:23:22Z</time>
      </trkpt>
      <trkpt lat="45.60779" lon="5.41241">
        <ele>367.24146592384</ele>
        <time>2016-06-26T11:23:32Z</time>
      </trkpt>
      <trkpt lat="45.60784" lon="5.41249">
        <ele>367.24146592384</ele>
        <time>2016-06-26T11:23:37Z</time>
      </trkpt>
      <trkpt lat="45.60783" lon="5.41289">
        <ele>368.98740465611</ele>
        <time>2016-06-26T11:23:52Z</time>
      </trkpt>
      <trkpt lat="45.60788" lon="5.41298">
        <ele>368.98740465611</ele>
        <time>2016-06-26T11:23:57Z</time>
      </trkpt>
      <trkpt lat="45.60791" lon="5.41318">
        <ele>371.3559533701</ele>
        <time>2016-06-26T11:24:07Z</time>
      </trkpt>
      <trkpt lat="45.60791" lon="5.4132">
        <ele>371.3559533701</ele>
        <time>2016-06-26T11:24:12Z</time>
      </trkpt>
      <trkpt lat="45.60788" lon="5.41322">
        <ele>371.3559533701</ele>
        <time>2016-06-26T11:24:22Z</time>
      </trkpt>
      <trkpt lat="45.6079" lon="5.41323">
        <ele>371.3559533701</ele>
        <time>2016-06-26T11:24:27Z</time>
      </trkpt>
      <trkpt lat="45.60796" lon="5.4133">
        <ele>372.84053986901</ele>
        <time>2016-06-26T11:24:37Z</time>
      </trkpt>
      <trkpt lat="45.60801" lon="5.41333">
        <ele>372.84053986901</ele>
        <time>2016-06-26T11:24:42Z</time>
      </trkpt>
      <trkpt lat="45.60815" lon="5.41338">
        <ele>373.28722279824</ele>
        <time>2016-06-26T11:24:52Z</time>
      </trkpt>
      <trkpt lat="45.60822" lon="5.41338">
        <ele>373.28722279824</ele>
        <time>2016-06-26T11:24:57Z</time>
      </trkpt>
      <trkpt lat="45.60837" lon="5.41342">
        <ele>372.81580023293</ele>
        <time>2016-06-26T11:25:07Z</time>
      </trkpt>
      <trkpt lat="45.60845" lon="5.41347">
        <ele>372.81580023293</ele>
        <time>2016-06-26T11:25:12Z</time>
      </trkpt>
      <trkpt lat="45.60865" lon="5.4135">
        <ele>372.34697909494</ele>
        <time>2016-06-26T11:25:22Z</time>
      </trkpt>
      <trkpt lat="45.60871" lon="5.41351">
        <ele>372.34697909494</ele>
        <time>2016-06-26T11:25:27Z</time>
      </trkpt>
      <trkpt lat="45.60887" lon="5.41349">
        <ele>371.6530882578</ele>
        <time>2016-06-26T11:25:37Z</time>
      </trkpt>
      <trkpt lat="45.60895" lon="5.41349">
        <ele>371.6530882578</ele>
        <time>2016-06-26T11:25:42Z</time>
      </trkpt>
      <trkpt lat="45.60908" lon="5.41348">
        <ele>370.88417167181</ele>
        <time>2016-06-26T11:25:52Z</time>
      </trkpt>
      <trkpt lat="45.60914" lon="5.41347">
        <ele>370.88417167181</ele>
        <time>2016-06-26T11:25:57Z</time>
      </trkpt>
      <trkpt lat="45.60929" lon="5.41345">
        <ele>370.35245941291</ele>
        <time>2016-06-26T11:26:07Z</time>
      </trkpt>
      <trkpt lat="45.60941" lon="5.41344">
        <ele>369.78459468998</ele>
        <time>2016-06-26T11:26:12Z</time>
      </trkpt>
      <trkpt lat="45.60956" lon="5.41342">
        <ele>368.98508018509</ele>
        <time>2016-06-26T11:26:22Z</time>
      </trkpt>
      <trkpt lat="45.60962" lon="5.41341">
        <ele>368.98508018509</ele>
        <time>2016-06-26T11:26:27Z</time>
      </trkpt>
      <trkpt lat="45.60989" lon="5.4134">
        <ele>368.22019285003</ele>
        <time>2016-06-26T11:26:42Z</time>
      </trkpt>
      <trkpt lat="45.60997" lon="5.41339">
        <ele>368.22019285003</ele>
        <time>2016-06-26T11:26:47Z</time>
      </trkpt>
      <trkpt lat="45.61013" lon="5.41339">
        <ele>367.69332428396</ele>
        <time>2016-06-26T11:26:57Z</time>
      </trkpt>
      <trkpt lat="45.61024" lon="5.4134">
        <ele>367.08786166117</ele>
        <time>2016-06-26T11:27:02Z</time>
      </trkpt>
      <trkpt lat="45.61039" lon="5.41347">
        <ele>366.54298663952</ele>
        <time>2016-06-26T11:27:12Z</time>
      </trkpt>
      <trkpt lat="45.61048" lon="5.41351">
        <ele>366.54298663952</ele>
        <time>2016-06-26T11:27:17Z</time>
      </trkpt>
      <trkpt lat="45.61065" lon="5.41356">
        <ele>366.72067184701</ele>
        <time>2016-06-26T11:27:27Z</time>
      </trkpt>
      <trkpt lat="45.61079" lon="5.41362">
        <ele>366.99284624875</ele>
        <time>2016-06-26T11:27:32Z</time>
      </trkpt>
      <trkpt lat="45.61084" lon="5.41372">
        <ele>366.99284624875</ele>
        <time>2016-06-26T11:27:42Z</time>
      </trkpt>
      <trkpt lat="45.61083" lon="5.41382">
        <ele>366.58992913382</ele>
        <time>2016-06-26T11:27:47Z</time>
      </trkpt>
      <trkpt lat="45.61083" lon="5.41404">
        <ele>366.24183653865</ele>
        <time>2016-06-26T11:27:57Z</time>
      </trkpt>
      <trkpt lat="45.61083" lon="5.4142">
        <ele>365.80323239391</ele>
        <time>2016-06-26T11:28:02Z</time>
      </trkpt>
      <trkpt lat="45.61084" lon="5.41442">
        <ele>365.48552783949</ele>
        <time>2016-06-26T11:28:12Z</time>
      </trkpt>
      <trkpt lat="45.61085" lon="5.41451">
        <ele>365.48552783949</ele>
        <time>2016-06-26T11:28:17Z</time>
      </trkpt>
      <trkpt lat="45.61088" lon="5.41486">
        <ele>364.63395340335</ele>
        <time>2016-06-26T11:28:32Z</time>
      </trkpt>
      <trkpt lat="45.61089" lon="5.41497">
        <ele>364.63395340335</ele>
        <time>2016-06-26T11:28:37Z</time>
      </trkpt>
      <trkpt lat="45.61094" lon="5.41521">
        <ele>363.91145371053</ele>
        <time>2016-06-26T11:28:47Z</time>
      </trkpt>
      <trkpt lat="45.61094" lon="5.41534">
        <ele>363.91145371053</ele>
        <time>2016-06-26T11:28:52Z</time>
      </trkpt>
      <trkpt lat="45.61094" lon="5.4156">
        <ele>363.85979094944</ele>
        <time>2016-06-26T11:29:02Z</time>
      </trkpt>
      <trkpt lat="45.61097" lon="5.41569">
        <ele>363.85979094944</ele>
        <time>2016-06-26T11:29:07Z</time>
      </trkpt>
      <trkpt lat="45.61098" lon="5.41593">
        <ele>363.81167857424</ele>
        <time>2016-06-26T11:29:17Z</time>
      </trkpt>
      <trkpt lat="45.61099" lon="5.41604">
        <ele>363.81167857424</ele>
        <time>2016-06-26T11:29:22Z</time>
      </trkpt>
      <trkpt lat="45.611" lon="5.41621">
        <ele>363.72521208027</ele>
        <time>2016-06-26T11:29:32Z</time>
      </trkpt>
      <trkpt lat="45.611" lon="5.41631">
        <ele>363.72521208027</ele>
        <time>2016-06-26T11:29:37Z</time>
      </trkpt>
      <trkpt lat="45.61099" lon="5.41649">
        <ele>363.51836770886</ele>
        <time>2016-06-26T11:29:47Z</time>
      </trkpt>
      <trkpt lat="45.61097" lon="5.41659">
        <ele>363.51836770886</ele>
        <time>2016-06-26T11:29:52Z</time>
      </trkpt>
      <trkpt lat="45.61094" lon="5.41678">
        <ele>363.28834670189</ele>
        <time>2016-06-26T11:30:02Z</time>
      </trkpt>
      <trkpt lat="45.61094" lon="5.41686">
        <ele>363.28834670189</ele>
        <time>2016-06-26T11:30:07Z</time>
      </trkpt>
      <trkpt lat="45.61093" lon="5.4171">
        <ele>363.06755912278</ele>
        <time>2016-06-26T11:30:17Z</time>
      </trkpt>
      <trkpt lat="45.61095" lon="5.41722">
        <ele>363.06755912278</ele>
        <time>2016-06-26T11:30:22Z</time>
      </trkpt>
      <trkpt lat="45.61099" lon="5.41747">
        <ele>363.23180440194</ele>
        <time>2016-06-26T11:30:32Z</time>
      </trkpt>
      <trkpt lat="45.611" lon="5.41762">
        <ele>363.50844847237</ele>
        <time>2016-06-26T11:30:37Z</time>
      </trkpt>
      <trkpt lat="45.61102" lon="5.418">
        <ele>363.6156800171</ele>
        <time>2016-06-26T11:30:52Z</time>
      </trkpt>
      <trkpt lat="45.61103" lon="5.41814">
        <ele>363.78277842129</ele>
        <time>2016-06-26T11:30:57Z</time>
      </trkpt>
      <trkpt lat="45.61109" lon="5.4184">
        <ele>363.87608473449</ele>
        <time>2016-06-26T11:31:07Z</time>
      </trkpt>
      <trkpt lat="45.61111" lon="5.41852">
        <ele>363.87608473449</ele>
        <time>2016-06-26T11:31:12Z</time>
      </trkpt>
      <trkpt lat="45.61115" lon="5.41873">
        <ele>364.06013026567</ele>
        <time>2016-06-26T11:31:22Z</time>
      </trkpt>
      <trkpt lat="45.61116" lon="5.41883">
        <ele>364.06013026567</ele>
        <time>2016-06-26T11:31:27Z</time>
      </trkpt>
      <trkpt lat="45.6112" lon="5.41905">
        <ele>363.83854991226</ele>
        <time>2016-06-26T11:31:37Z</time>
      </trkpt>
      <trkpt lat="45.61122" lon="5.41914">
        <ele>363.83854991226</ele>
        <time>2016-06-26T11:31:42Z</time>
      </trkpt>
      <trkpt lat="45.61125" lon="5.41928">
        <ele>363.41543685348</ele>
        <time>2016-06-26T11:31:52Z</time>
      </trkpt>
      <trkpt lat="45.61128" lon="5.41934">
        <ele>363.41543685348</ele>
        <time>2016-06-26T11:31:57Z</time>
      </trkpt>
      <trkpt lat="45.61129" lon="5.41955">
        <ele>363.75860560505</ele>
        <time>2016-06-26T11:32:07Z</time>
      </trkpt>
      <trkpt lat="45.61128" lon="5.41968">
        <ele>363.86030823179</ele>
        <time>2016-06-26T11:32:12Z</time>
      </trkpt>
      <trkpt lat="45.61125" lon="5.41997">
        <ele>364.05563263848</ele>
        <time>2016-06-26T11:32:22Z</time>
      </trkpt>
      <trkpt lat="45.61124" lon="5.4201">
        <ele>363.99183135791</ele>
        <time>2016-06-26T11:32:27Z</time>
      </trkpt>
      <trkpt lat="45.61123" lon="5.42038">
        <ele>364.394765521</ele>
        <time>2016-06-26T11:32:37Z</time>
      </trkpt>
      <trkpt lat="45.61123" lon="5.42049">
        <ele>364.394765521</ele>
        <time>2016-06-26T11:32:42Z</time>
      </trkpt>
      <trkpt lat="45.61122" lon="5.42083">
        <ele>364.59539228833</ele>
        <time>2016-06-26T11:32:57Z</time>
      </trkpt>
      <trkpt lat="45.61123" lon="5.42089">
        <ele>364.59539228833</ele>
        <time>2016-06-26T11:33:02Z</time>
      </trkpt>
      <trkpt lat="45.61122" lon="5.42114">
        <ele>364.69490323728</ele>
        <time>2016-06-26T11:33:12Z</time>
      </trkpt>
      <trkpt lat="45.61122" lon="5.42127">
        <ele>364.77289546017</ele>
        <time>2016-06-26T11:33:17Z</time>
      </trkpt>
      <trkpt lat="45.61122" lon="5.42158">
        <ele>364.97520426751</ele>
        <time>2016-06-26T11:33:27Z</time>
      </trkpt>
      <trkpt lat="45.61122" lon="5.4217">
        <ele>364.97520426751</ele>
        <time>2016-06-26T11:33:32Z</time>
      </trkpt>
      <trkpt lat="45.61119" lon="5.42193">
        <ele>364.91777451204</ele>
        <time>2016-06-26T11:33:42Z</time>
      </trkpt>
      <trkpt lat="45.61116" lon="5.42205">
        <ele>364.95161018865</ele>
        <time>2016-06-26T11:33:47Z</time>
      </trkpt>
      <trkpt lat="45.61114" lon="5.42232">
        <ele>364.92608268456</ele>
        <time>2016-06-26T11:33:57Z</time>
      </trkpt>
      <trkpt lat="45.61112" lon="5.42242">
        <ele>364.92608268456</ele>
        <time>2016-06-26T11:34:02Z</time>
      </trkpt>
      <trkpt lat="45.61107" lon="5.42267">
        <ele>364.96117124705</ele>
        <time>2016-06-26T11:34:12Z</time>
      </trkpt>
      <trkpt lat="45.61105" lon="5.42278">
        <ele>364.96117124705</ele>
        <time>2016-06-26T11:34:17Z</time>
      </trkpt>
      <trkpt lat="45.611" lon="5.42297">
        <ele>364.77874816848</ele>
        <time>2016-06-26T11:34:27Z</time>
      </trkpt>
      <trkpt lat="45.61098" lon="5.42307">
        <ele>364.77874816848</ele>
        <time>2016-06-26T11:34:32Z</time>
      </trkpt>
      <trkpt lat="45.6109" lon="5.42332">
        <ele>364.64050470574</ele>
        <time>2016-06-26T11:34:42Z</time>
      </trkpt>
      <trkpt lat="45.61086" lon="5.4234">
        <ele>364.64050470574</ele>
        <time>2016-06-26T11:34:47Z</time>
      </trkpt>
      <trkpt lat="45.61078" lon="5.42362">
        <ele>364.84640734965</ele>
        <time>2016-06-26T11:34:57Z</time>
      </trkpt>
      <trkpt lat="45.61071" lon="5.42369">
        <ele>364.76550044485</ele>
        <time>2016-06-26T11:35:02Z</time>
      </trkpt>
      <trkpt lat="45.61061" lon="5.42383">
        <ele>364.80832955244</ele>
        <time>2016-06-26T11:35:12Z</time>
      </trkpt>
      <trkpt lat="45.61054" lon="5.42393">
        <ele>364.90817137984</ele>
        <time>2016-06-26T11:35:17Z</time>
      </trkpt>
      <trkpt lat="45.61043" lon="5.42413">
        <ele>365.16154955784</ele>
        <time>2016-06-26T11:35:27Z</time>
      </trkpt>
      <trkpt lat="45.61042" lon="5.42421">
        <ele>365.16154955784</ele>
        <time>2016-06-26T11:35:32Z</time>
      </trkpt>
      <trkpt lat="45.61043" lon="5.42425">
        <ele>365.16154955784</ele>
        <time>2016-06-26T11:35:42Z</time>
      </trkpt>
      <trkpt lat="45.61042" lon="5.42424">
        <ele>365.29717333929</ele>
        <time>2016-06-26T11:35:47Z</time>
      </trkpt>
      <trkpt lat="45.61039" lon="5.42433">
        <ele>365.29717333929</ele>
        <time>2016-06-26T11:36:02Z</time>
      </trkpt>
      <trkpt lat="45.61039" lon="5.42434">
        <ele>365.29717333929</ele>
        <time>2016-06-26T11:36:07Z</time>
      </trkpt>
      <trkpt lat="45.61035" lon="5.42444">
        <ele>366.17365531873</ele>
        <time>2016-06-26T11:36:17Z</time>
      </trkpt>
      <trkpt lat="45.61032" lon="5.42451">
        <ele>366.17365531873</ele>
        <time>2016-06-26T11:36:22Z</time>
      </trkpt>
      <trkpt lat="45.61023" lon="5.42471">
        <ele>366.99922609185</ele>
        <time>2016-06-26T11:36:32Z</time>
      </trkpt>
      <trkpt lat="45.61021" lon="5.42491">
        <ele>367.78979763546</ele>
        <time>2016-06-26T11:36:37Z</time>
      </trkpt>
      <trkpt lat="45.6102" lon="5.42515">
        <ele>367.98376911783</ele>
        <time>2016-06-26T11:36:47Z</time>
      </trkpt>
      <trkpt lat="45.61019" lon="5.42523">
        <ele>367.98376911783</ele>
        <time>2016-06-26T11:36:52Z</time>
      </trkpt>
      <trkpt lat="45.61023" lon="5.42537">
        <ele>367.40834085857</ele>
        <time>2016-06-26T11:37:02Z</time>
      </trkpt>
      <trkpt lat="45.61022" lon="5.42545">
        <ele>367.40834085857</ele>
        <time>2016-06-26T11:37:07Z</time>
      </trkpt>
      <trkpt lat="45.61026" lon="5.42569">
        <ele>366.69818298061</ele>
        <time>2016-06-26T11:37:17Z</time>
      </trkpt>
      <trkpt lat="45.61025" lon="5.42578">
        <ele>366.69818298061</ele>
        <time>2016-06-26T11:37:22Z</time>
      </trkpt>
      <trkpt lat="45.61025" lon="5.42596">
        <ele>366.08144688357</ele>
        <time>2016-06-26T11:37:32Z</time>
      </trkpt>
      <trkpt lat="45.61027" lon="5.42608">
        <ele>365.75485032518</ele>
        <time>2016-06-26T11:37:37Z</time>
      </trkpt>
      <trkpt lat="45.61025" lon="5.4263">
        <ele>364.87665082781</ele>
        <time>2016-06-26T11:37:47Z</time>
      </trkpt>
      <trkpt lat="45.61026" lon="5.42644">
        <ele>364.4122214476</ele>
        <time>2016-06-26T11:37:52Z</time>
      </trkpt>
      <trkpt lat="45.61032" lon="5.42683">
        <ele>365.74482481947</ele>
        <time>2016-06-26T11:38:07Z</time>
      </trkpt>
      <trkpt lat="45.61034" lon="5.42698">
        <ele>366.75003437363</ele>
        <time>2016-06-26T11:38:12Z</time>
      </trkpt>
      <trkpt lat="45.61035" lon="5.42727">
        <ele>367.21854997103</ele>
        <time>2016-06-26T11:38:22Z</time>
      </trkpt>
      <trkpt lat="45.61031" lon="5.4274">
        <ele>367.93790708176</ele>
        <time>2016-06-26T11:38:27Z</time>
      </trkpt>
      <trkpt lat="45.61028" lon="5.42765">
        <ele>368.80124703726</ele>
        <time>2016-06-26T11:38:37Z</time>
      </trkpt>
      <trkpt lat="45.61027" lon="5.42778">
        <ele>370.17032565206</ele>
        <time>2016-06-26T11:38:42Z</time>
      </trkpt>
      <trkpt lat="45.61025" lon="5.428">
        <ele>371.29809122857</ele>
        <time>2016-06-26T11:38:52Z</time>
      </trkpt>
      <trkpt lat="45.61023" lon="5.42809">
        <ele>371.29809122857</ele>
        <time>2016-06-26T11:38:57Z</time>
      </trkpt>
      <trkpt lat="45.61018" lon="5.42844">
        <ele>372.02628423146</ele>
        <time>2016-06-26T11:39:07Z</time>
      </trkpt>
      <trkpt lat="45.61018" lon="5.42853">
        <ele>372.02628423146</ele>
        <time>2016-06-26T11:39:12Z</time>
      </trkpt>
      <trkpt lat="45.61017" lon="5.42873">
        <ele>372.7426350592</ele>
        <time>2016-06-26T11:39:22Z</time>
      </trkpt>
      <trkpt lat="45.61017" lon="5.42878">
        <ele>372.7426350592</ele>
        <time>2016-06-26T11:39:27Z</time>
      </trkpt>
      <trkpt lat="45.61016" lon="5.42894">
        <ele>373.12913881046</ele>
        <time>2016-06-26T11:39:37Z</time>
      </trkpt>
      <trkpt lat="45.61015" lon="5.42906">
        <ele>373.12913881046</ele>
        <time>2016-06-26T11:39:42Z</time>
      </trkpt>
      <trkpt lat="45.61012" lon="5.42934">
        <ele>373.46855967753</ele>
        <time>2016-06-26T11:39:52Z</time>
      </trkpt>
      <trkpt lat="45.6101" lon="5.42945">
        <ele>373.46855967753</ele>
        <time>2016-06-26T11:39:57Z</time>
      </trkpt>
      <trkpt lat="45.61008" lon="5.42965">
        <ele>373.66278338056</ele>
        <time>2016-06-26T11:40:07Z</time>
      </trkpt>
      <trkpt lat="45.61009" lon="5.42975">
        <ele>373.66278338056</ele>
        <time>2016-06-26T11:40:12Z</time>
      </trkpt>
      <trkpt lat="45.61014" lon="5.43006">
        <ele>374.02486027438</ele>
        <time>2016-06-26T11:40:27Z</time>
      </trkpt>
      <trkpt lat="45.61014" lon="5.43015">
        <ele>374.02486027438</ele>
        <time>2016-06-26T11:40:32Z</time>
      </trkpt>
      <trkpt lat="45.61014" lon="5.43038">
        <ele>375.10381219346</ele>
        <time>2016-06-26T11:40:42Z</time>
      </trkpt>
      <trkpt lat="45.61014" lon="5.43049">
        <ele>375.10381219346</ele>
        <time>2016-06-26T11:40:47Z</time>
      </trkpt>
      <trkpt lat="45.61014" lon="5.43067">
        <ele>375.30233424556</ele>
        <time>2016-06-26T11:40:57Z</time>
      </trkpt>
      <trkpt lat="45.61015" lon="5.43078">
        <ele>375.30233424556</ele>
        <time>2016-06-26T11:41:02Z</time>
      </trkpt>
      <trkpt lat="45.61019" lon="5.43099">
        <ele>376.03960181599</ele>
        <time>2016-06-26T11:41:12Z</time>
      </trkpt>
      <trkpt lat="45.61018" lon="5.43111">
        <ele>376.03960181599</ele>
        <time>2016-06-26T11:41:17Z</time>
      </trkpt>
      <trkpt lat="45.61017" lon="5.43131">
        <ele>377.10148935814</ele>
        <time>2016-06-26T11:41:27Z</time>
      </trkpt>
      <trkpt lat="45.61018" lon="5.4314">
        <ele>377.10148935814</ele>
        <time>2016-06-26T11:41:32Z</time>
      </trkpt>
      <trkpt lat="45.61027" lon="5.43153">
        <ele>377.71228750782</ele>
        <time>2016-06-26T11:41:42Z</time>
      </trkpt>
      <trkpt lat="45.61034" lon="5.43158">
        <ele>377.71228750782</ele>
        <time>2016-06-26T11:41:47Z</time>
      </trkpt>
      <trkpt lat="45.61044" lon="5.4317">
        <ele>378.36511244215</ele>
        <time>2016-06-26T11:41:57Z</time>
      </trkpt>
      <trkpt lat="45.61043" lon="5.43169">
        <ele>378.36511244215</ele>
        <time>2016-06-26T11:42:02Z</time>
      </trkpt>
      <trkpt lat="45.61042" lon="5.4317">
        <ele>378.36511244215</ele>
        <time>2016-06-26T11:42:12Z</time>
      </trkpt>
      <trkpt lat="45.61042" lon="5.4317">
        <ele>378.36511244215</ele>
        <time>2016-06-26T11:42:17Z</time>
      </trkpt>
      <trkpt lat="45.61042" lon="5.43184">
        <ele>378.68093768424</ele>
        <time>2016-06-26T11:42:32Z</time>
      </trkpt>
      <trkpt lat="45.61039" lon="5.43196">
        <ele>378.68093768424</ele>
        <time>2016-06-26T11:42:37Z</time>
      </trkpt>
      <trkpt lat="45.61037" lon="5.43217">
        <ele>379.2174698289</ele>
        <time>2016-06-26T11:42:47Z</time>
      </trkpt>
      <trkpt lat="45.61035" lon="5.43227">
        <ele>379.2174698289</ele>
        <time>2016-06-26T11:42:52Z</time>
      </trkpt>
      <trkpt lat="45.61031" lon="5.43246">
        <ele>380.18823827098</ele>
        <time>2016-06-26T11:43:02Z</time>
      </trkpt>
      <trkpt lat="45.6103" lon="5.43255">
        <ele>380.18823827098</ele>
        <time>2016-06-26T11:43:07Z</time>
      </trkpt>
      <trkpt lat="45.61027" lon="5.43275">
        <ele>381.21346833936</ele>
        <time>2016-06-26T11:43:17Z</time>
      </trkpt>
      <trkpt lat="45.61025" lon="5.43286">
        <ele>381.21346833936</ele>
        <time>2016-06-26T11:43:22Z</time>
      </trkpt>
      <trkpt lat="45.61025" lon="5.43306">
        <ele>382.37350994359</ele>
        <time>2016-06-26T11:43:32Z</time>
      </trkpt>
      <trkpt lat="45.61023" lon="5.43316">
        <ele>382.37350994359</ele>
        <time>2016-06-26T11:43:37Z</time>
      </trkpt>
      <trkpt lat="45.61019" lon="5.43335">
        <ele>383.32455799288</ele>
        <time>2016-06-26T11:43:47Z</time>
      </trkpt>
      <trkpt lat="45.61016" lon="5.43345">
        <ele>383.32455799288</ele>
        <time>2016-06-26T11:43:52Z</time>
      </trkpt>
      <trkpt lat="45.61011" lon="5.43365">
        <ele>384.15221105335</ele>
        <time>2016-06-26T11:44:02Z</time>
      </trkpt>
      <trkpt lat="45.61008" lon="5.43376">
        <ele>384.15221105335</ele>
        <time>2016-06-26T11:44:07Z</time>
      </trkpt>
      <trkpt lat="45.60998" lon="5.43406">
        <ele>385.06587818328</ele>
        <time>2016-06-26T11:44:17Z</time>
      </trkpt>
      <trkpt lat="45.60993" lon="5.43419">
        <ele>385.81265272108</ele>
        <time>2016-06-26T11:44:22Z</time>
      </trkpt>
      <trkpt lat="45.60981" lon="5.43445">
        <ele>386.12990498365</ele>
        <time>2016-06-26T11:44:37Z</time>
      </trkpt>
      <trkpt lat="45.60976" lon="5.43454">
        <ele>386.12990498365</ele>
        <time>2016-06-26T11:44:42Z</time>
      </trkpt>
      <trkpt lat="45.60967" lon="5.43471">
        <ele>386.48169864433</ele>
        <time>2016-06-26T11:44:52Z</time>
      </trkpt>
      <trkpt lat="45.60963" lon="5.4348">
        <ele>386.48169864433</ele>
        <time>2016-06-26T11:44:57Z</time>
      </trkpt>
      <trkpt lat="45.60954" lon="5.43496">
        <ele>386.92327017769</ele>
        <time>2016-06-26T11:45:07Z</time>
      </trkpt>
      <trkpt lat="45.60949" lon="5.43503">
        <ele>386.92327017769</ele>
        <time>2016-06-26T11:45:12Z</time>
      </trkpt>
      <trkpt lat="45.6094" lon="5.43518">
        <ele>387.23178034426</ele>
        <time>2016-06-26T11:45:22Z</time>
      </trkpt>
      <trkpt lat="45.60934" lon="5.43523">
        <ele>387.23178034426</ele>
        <time>2016-06-26T11:45:27Z</time>
      </trkpt>
      <trkpt lat="45.6093" lon="5.43536">
        <ele>387.84967464804</ele>
        <time>2016-06-26T11:45:37Z</time>
      </trkpt>
      <trkpt lat="45.60929" lon="5.43538">
        <ele>387.84967464804</ele>
        <time>2016-06-26T11:45:42Z</time>
      </trkpt>
      <trkpt lat="45.60927" lon="5.43567">
        <ele>388.65285656256</ele>
        <time>2016-06-26T11:45:52Z</time>
      </trkpt>
      <trkpt lat="45.60929" lon="5.43602">
        <ele>389.88614171201</ele>
        <time>2016-06-26T11:45:57Z</time>
      </trkpt>
      <trkpt lat="45.6093" lon="5.4364">
        <ele>391.28521576164</ele>
        <time>2016-06-26T11:46:07Z</time>
      </trkpt>
      <trkpt lat="45.6093" lon="5.43649">
        <ele>391.28521576164</ele>
        <time>2016-06-26T11:46:12Z</time>
      </trkpt>
      <trkpt lat="45.6094" lon="5.43665">
        <ele>392.96503501063</ele>
        <time>2016-06-26T11:46:27Z</time>
      </trkpt>
      <trkpt lat="45.60945" lon="5.43669">
        <ele>392.96503501063</ele>
        <time>2016-06-26T11:46:32Z</time>
      </trkpt>
      <trkpt lat="45.60956" lon="5.4367">
        <ele>395.59340451821</ele>
        <time>2016-06-26T11:46:42Z</time>
      </trkpt>
      <trkpt lat="45.60965" lon="5.43672">
        <ele>395.59340451821</ele>
        <time>2016-06-26T11:46:47Z</time>
      </trkpt>
      <trkpt lat="45.60977" lon="5.43673">
        <ele>398.28771134485</ele>
        <time>2016-06-26T11:46:57Z</time>
      </trkpt>
      <trkpt lat="45.60982" lon="5.43678">
        <ele>398.28771134485</ele>
        <time>2016-06-26T11:47:02Z</time>
      </trkpt>
      <trkpt lat="45.60989" lon="5.43696">
        <ele>399.50950135962</ele>
        <time>2016-06-26T11:47:12Z</time>
      </trkpt>
      <trkpt lat="45.60984" lon="5.43701">
        <ele>399.50950135962</ele>
        <time>2016-06-26T11:47:17Z</time>
      </trkpt>
      <trkpt lat="45.60975" lon="5.43708">
        <ele>400.0712579074</ele>
        <time>2016-06-26T11:47:27Z</time>
      </trkpt>
      <trkpt lat="45.60971" lon="5.43713">
        <ele>400.0712579074</ele>
        <time>2016-06-26T11:47:32Z</time>
      </trkpt>
      <trkpt lat="45.60959" lon="5.4372">
        <ele>400.98710475021</ele>
        <time>2016-06-26T11:47:42Z</time>
      </trkpt>
      <trkpt lat="45.60952" lon="5.43727">
        <ele>400.98710475021</ele>
        <time>2016-06-26T11:47:47Z</time>
      </trkpt>
      <trkpt lat="45.6094" lon="5.4374">
        <ele>402.20138156784</ele>
        <time>2016-06-26T11:47:57Z</time>
      </trkpt>
      <trkpt lat="45.60936" lon="5.43744">
        <ele>402.20138156784</ele>
        <time>2016-06-26T11:48:02Z</time>
      </trkpt>
      <trkpt lat="45.60947" lon="5.43752">
        <ele>404.91552016374</ele>
        <time>2016-06-26T11:48:12Z</time>
      </trkpt>
      <trkpt lat="45.60953" lon="5.43753">
        <ele>404.91552016374</ele>
        <time>2016-06-26T11:48:17Z</time>
      </trkpt>
      <trkpt lat="45.60967" lon="5.43761">
        <ele>407.87514134978</ele>
        <time>2016-06-26T11:48:27Z</time>
      </trkpt>
      <trkpt lat="45.60979" lon="5.43769">
        <ele>410.52267260052</ele>
        <time>2016-06-26T11:48:32Z</time>
      </trkpt>
      <trkpt lat="45.60989" lon="5.43793">
        <ele>413.4233015315</ele>
        <time>2016-06-26T11:48:47Z</time>
      </trkpt>
      <trkpt lat="45.60991" lon="5.43801">
        <ele>413.4233015315</ele>
        <time>2016-06-26T11:48:52Z</time>
      </trkpt>
      <trkpt lat="45.60992" lon="5.43815">
        <ele>416.29306745065</ele>
        <time>2016-06-26T11:49:02Z</time>
      </trkpt>
      <trkpt lat="45.60992" lon="5.43818">
        <ele>416.29306745065</ele>
        <time>2016-06-26T11:49:07Z</time>
      </trkpt>
      <trkpt lat="45.60997" lon="5.43837">
        <ele>418.23497739242</ele>
        <time>2016-06-26T11:49:17Z</time>
      </trkpt>
      <trkpt lat="45.60999" lon="5.43846">
        <ele>418.23497739242</ele>
        <time>2016-06-26T11:49:22Z</time>
      </trkpt>
      <trkpt lat="45.61" lon="5.43859">
        <ele>419.89058389603</ele>
        <time>2016-06-26T11:49:32Z</time>
      </trkpt>
      <trkpt lat="45.61001" lon="5.43868">
        <ele>419.89058389603</ele>
        <time>2016-06-26T11:49:37Z</time>
      </trkpt>
      <trkpt lat="45.61012" lon="5.43899">
        <ele>422.7919581138</ele>
        <time>2016-06-26T11:49:47Z</time>
      </trkpt>
      <trkpt lat="45.61016" lon="5.43912">
        <ele>426.12153328155</ele>
        <time>2016-06-26T11:49:52Z</time>
      </trkpt>
      <trkpt lat="45.61018" lon="5.43934">
        <ele>428.96220584295</ele>
        <time>2016-06-26T11:50:02Z</time>
      </trkpt>
      <trkpt lat="45.61019" lon="5.4394">
        <ele>428.96220584295</ele>
        <time>2016-06-26T11:50:07Z</time>
      </trkpt>
      <trkpt lat="45.61026" lon="5.43986">
        <ele>431.08542459285</ele>
        <time>2016-06-26T11:50:22Z</time>
      </trkpt>
      <trkpt lat="45.61021" lon="5.44004">
        <ele>434.15502401396</ele>
        <time>2016-06-26T11:50:27Z</time>
      </trkpt>
      <trkpt lat="45.60981" lon="5.44025">
        <ele>437.90871386682</ele>
        <time>2016-06-26T11:50:37Z</time>
      </trkpt>
      <trkpt lat="45.6096" lon="5.44032">
        <ele>441.39555672635</ele>
        <time>2016-06-26T11:50:42Z</time>
      </trkpt>
      <trkpt lat="45.60925" lon="5.44078">
        <ele>445.00355246935</ele>
        <time>2016-06-26T11:50:52Z</time>
      </trkpt>
      <trkpt lat="45.60908" lon="5.44107">
        <ele>448.15529817969</ele>
        <time>2016-06-26T11:50:57Z</time>
      </trkpt>
      <trkpt lat="45.60901" lon="5.44182">
        <ele>451.12427643589</ele>
        <time>2016-06-26T11:51:07Z</time>
      </trkpt>
      <trkpt lat="45.60901" lon="5.44224">
        <ele>454.4816085103</ele>
        <time>2016-06-26T11:51:12Z</time>
      </trkpt>
      <trkpt lat="45.60887" lon="5.4429">
        <ele>457.50177803698</ele>
        <time>2016-06-26T11:51:22Z</time>
      </trkpt>
      <trkpt lat="45.60881" lon="5.44319">
        <ele>460.47922903067</ele>
        <time>2016-06-26T11:51:27Z</time>
      </trkpt>
      <trkpt lat="45.60878" lon="5.44334">
        <ele>463.16826841532</ele>
        <time>2016-06-26T11:51:37Z</time>
      </trkpt>
      <trkpt lat="45.60876" lon="5.44342">
        <ele>463.16826841532</ele>
        <time>2016-06-26T11:51:42Z</time>
      </trkpt>
      <trkpt lat="45.60869" lon="5.44359">
        <ele>464.99636347323</ele>
        <time>2016-06-26T11:51:52Z</time>
      </trkpt>
      <trkpt lat="45.60862" lon="5.44365">
        <ele>464.99636347323</ele>
        <time>2016-06-26T11:51:57Z</time>
      </trkpt>
      <trkpt lat="45.60849" lon="5.44374">
        <ele>466.44439582536</ele>
        <time>2016-06-26T11:52:07Z</time>
      </trkpt>
      <trkpt lat="45.60842" lon="5.44378">
        <ele>466.44439582536</ele>
        <time>2016-06-26T11:52:12Z</time>
      </trkpt>
      <trkpt lat="45.60831" lon="5.44387">
        <ele>467.18094005317</ele>
        <time>2016-06-26T11:52:22Z</time>
      </trkpt>
      <trkpt lat="45.60826" lon="5.44394">
        <ele>467.18094005317</ele>
        <time>2016-06-26T11:52:27Z</time>
      </trkpt>
      <trkpt lat="45.60822" lon="5.44417">
        <ele>467.89541816196</ele>
        <time>2016-06-26T11:52:42Z</time>
      </trkpt>
      <trkpt lat="45.60823" lon="5.44428">
        <ele>467.89541816196</ele>
        <time>2016-06-26T11:52:47Z</time>
      </trkpt>
      <trkpt lat="45.60823" lon="5.4445">
        <ele>468.89533547962</ele>
        <time>2016-06-26T11:52:57Z</time>
      </trkpt>
      <trkpt lat="45.60824" lon="5.4446">
        <ele>468.89533547962</ele>
        <time>2016-06-26T11:53:02Z</time>
      </trkpt>
      <trkpt lat="45.60826" lon="5.44478">
        <ele>469.83082263279</ele>
        <time>2016-06-26T11:53:12Z</time>
      </trkpt>
      <trkpt lat="45.60828" lon="5.44487">
        <ele>469.83082263279</ele>
        <time>2016-06-26T11:53:17Z</time>
      </trkpt>
      <trkpt lat="45.60829" lon="5.44508">
        <ele>470.63737958958</ele>
        <time>2016-06-26T11:53:27Z</time>
      </trkpt>
      <trkpt lat="45.6083" lon="5.44519">
        <ele>470.63737958958</ele>
        <time>2016-06-26T11:53:32Z</time>
      </trkpt>
      <trkpt lat="45.60831" lon="5.44541">
        <ele>471.54390017695</ele>
        <time>2016-06-26T11:53:42Z</time>
      </trkpt>
      <trkpt lat="45.60832" lon="5.44551">
        <ele>471.54390017695</ele>
        <time>2016-06-26T11:53:47Z</time>
      </trkpt>
      <trkpt lat="45.60836" lon="5.44567">
        <ele>472.01286177273</ele>
        <time>2016-06-26T11:53:57Z</time>
      </trkpt>
      <trkpt lat="45.60839" lon="5.44575">
        <ele>472.01286177273</ele>
        <time>2016-06-26T11:54:02Z</time>
      </trkpt>
      <trkpt lat="45.6084" lon="5.44595">
        <ele>471.97982942204</ele>
        <time>2016-06-26T11:54:12Z</time>
      </trkpt>
      <trkpt lat="45.60841" lon="5.44606">
        <ele>471.97982942204</ele>
        <time>2016-06-26T11:54:17Z</time>
      </trkpt>
      <trkpt lat="45.60843" lon="5.44624">
        <ele>472.09267900105</ele>
        <time>2016-06-26T11:54:27Z</time>
      </trkpt>
      <trkpt lat="45.60842" lon="5.44633">
        <ele>472.09267900105</ele>
        <time>2016-06-26T11:54:32Z</time>
      </trkpt>
      <trkpt lat="45.60826" lon="5.4464">
        <ele>471.32283487504</ele>
        <time>2016-06-26T11:54:47Z</time>
      </trkpt>
      <trkpt lat="45.60819" lon="5.44639">
        <ele>471.32283487504</ele>
        <time>2016-06-26T11:54:52Z</time>
      </trkpt>
      <trkpt lat="45.60806" lon="5.44641">
        <ele>470.63642218922</ele>
        <time>2016-06-26T11:55:02Z</time>
      </trkpt>
      <trkpt lat="45.60801" lon="5.44647">
        <ele>470.63642218922</ele>
        <time>2016-06-26T11:55:07Z</time>
      </trkpt>
      <trkpt lat="45.60795" lon="5.44666">
        <ele>469.58809444985</ele>
        <time>2016-06-26T11:55:17Z</time>
      </trkpt>
      <trkpt lat="45.60792" lon="5.44681">
        <ele>468.45791555925</ele>
        <time>2016-06-26T11:55:22Z</time>
      </trkpt>
      <trkpt lat="45.60787" lon="5.44703">
        <ele>466.95790848634</ele>
        <time>2016-06-26T11:55:32Z</time>
      </trkpt>
      <trkpt lat="45.60786" lon="5.44715">
        <ele>466.95790848634</ele>
        <time>2016-06-26T11:55:37Z</time>
      </trkpt>
      <trkpt lat="45.60784" lon="5.44737">
        <ele>465.34099268133</ele>
        <time>2016-06-26T11:55:47Z</time>
      </trkpt>
      <trkpt lat="45.60783" lon="5.44747">
        <ele>465.34099268133</ele>
        <time>2016-06-26T11:55:52Z</time>
      </trkpt>
      <trkpt lat="45.60786" lon="5.44768">
        <ele>464.02906476205</ele>
        <time>2016-06-26T11:56:02Z</time>
      </trkpt>
      <trkpt lat="45.60789" lon="5.44777">
        <ele>464.02906476205</ele>
        <time>2016-06-26T11:56:07Z</time>
      </trkpt>
      <trkpt lat="45.60791" lon="5.44781">
        <ele>462.69148264292</ele>
        <time>2016-06-26T11:56:17Z</time>
      </trkpt>
      <trkpt lat="45.60791" lon="5.4478">
        <ele>462.69148264292</ele>
        <time>2016-06-26T11:56:22Z</time>
      </trkpt>
      <trkpt lat="45.60791" lon="5.44781">
        <ele>462.69148264292</ele>
        <time>2016-06-26T11:56:32Z</time>
      </trkpt>
      <trkpt lat="45.60794" lon="5.44782">
        <ele>462.69148264292</ele>
        <time>2016-06-26T11:56:37Z</time>
      </trkpt>
      <trkpt lat="45.60807" lon="5.44791">
        <ele>461.69913575174</ele>
        <time>2016-06-26T11:56:47Z</time>
      </trkpt>
      <trkpt lat="45.60812" lon="5.44798">
        <ele>461.69913575174</ele>
        <time>2016-06-26T11:56:52Z</time>
      </trkpt>
      <trkpt lat="45.6082" lon="5.44808">
        <ele>460.68838914647</ele>
        <time>2016-06-26T11:57:02Z</time>
      </trkpt>
      <trkpt lat="45.60827" lon="5.44814">
        <ele>460.68838914647</ele>
        <time>2016-06-26T11:57:07Z</time>
      </trkpt>
      <trkpt lat="45.60855" lon="5.44833">
        <ele>459.6968836201</ele>
        <time>2016-06-26T11:57:22Z</time>
      </trkpt>
      <trkpt lat="45.60861" lon="5.4484">
        <ele>459.6968836201</ele>
        <time>2016-06-26T11:57:27Z</time>
      </trkpt>
      <trkpt lat="45.60872" lon="5.44853">
        <ele>459.00424367449</ele>
        <time>2016-06-26T11:57:37Z</time>
      </trkpt>
      <trkpt lat="45.60877" lon="5.44858">
        <ele>459.00424367449</ele>
        <time>2016-06-26T11:57:42Z</time>
      </trkpt>
      <trkpt lat="45.60887" lon="5.44876">
        <ele>458.43618805635</ele>
        <time>2016-06-26T11:57:52Z</time>
      </trkpt>
      <trkpt lat="45.60891" lon="5.44887">
        <ele>458.43618805635</ele>
        <time>2016-06-26T11:57:57Z</time>
      </trkpt>
      <trkpt lat="45.60895" lon="5.44904">
        <ele>457.75863535208</ele>
        <time>2016-06-26T11:58:07Z</time>
      </trkpt>
      <trkpt lat="45.60897" lon="5.44913">
        <ele>457.75863535208</ele>
        <time>2016-06-26T11:58:12Z</time>
      </trkpt>
      <trkpt lat="45.60898" lon="5.44931">
        <ele>456.43776025822</ele>
        <time>2016-06-26T11:58:22Z</time>
      </trkpt>
      <trkpt lat="45.609" lon="5.44941">
        <ele>456.43776025822</ele>
        <time>2016-06-26T11:58:27Z</time>
      </trkpt>
      <trkpt lat="45.60902" lon="5.44958">
        <ele>454.57140573589</ele>
        <time>2016-06-26T11:58:37Z</time>
      </trkpt>
      <trkpt lat="45.60902" lon="5.44969">
        <ele>454.57140573589</ele>
        <time>2016-06-26T11:58:42Z</time>
      </trkpt>
      <trkpt lat="45.60903" lon="5.44991">
        <ele>452.94327892472</ele>
        <time>2016-06-26T11:58:52Z</time>
      </trkpt>
      <trkpt lat="45.60904" lon="5.45001">
        <ele>452.94327892472</ele>
        <time>2016-06-26T11:58:57Z</time>
      </trkpt>
      <trkpt lat="45.60903" lon="5.45022">
        <ele>451.26985096873</ele>
        <time>2016-06-26T11:59:07Z</time>
      </trkpt>
      <trkpt lat="45.60903" lon="5.45033">
        <ele>451.26985096873</ele>
        <time>2016-06-26T11:59:12Z</time>
      </trkpt>
      <trkpt lat="45.60904" lon="5.45056">
        <ele>449.47566634052</ele>
        <time>2016-06-26T11:59:22Z</time>
      </trkpt>
      <trkpt lat="45.60905" lon="5.45068">
        <ele>449.47566634052</ele>
        <time>2016-06-26T11:59:27Z</time>
      </trkpt>
      <trkpt lat="45.60906" lon="5.45094">
        <ele>447.75031872338</ele>
        <time>2016-06-26T11:59:37Z</time>
      </trkpt>
      <trkpt lat="45.60905" lon="5.45102">
        <ele>447.75031872338</ele>
        <time>2016-06-26T11:59:42Z</time>
      </trkpt>
      <trkpt lat="45.60907" lon="5.45124">
        <ele>445.90876540738</ele>
        <time>2016-06-26T11:59:52Z</time>
      </trkpt>
      <trkpt lat="45.60907" lon="5.45135">
        <ele>445.90876540738</ele>
        <time>2016-06-26T11:59:57Z</time>
      </trkpt>
      <trkpt lat="45.60911" lon="5.45165">
        <ele>445.23516513682</ele>
        <time>2016-06-26T12:00:12Z</time>
      </trkpt>
      <trkpt lat="45.60908" lon="5.45176">
        <ele>445.23516513682</ele>
        <time>2016-06-26T12:00:17Z</time>
      </trkpt>
      <trkpt lat="45.60904" lon="5.45197">
        <ele>444.16330193781</ele>
        <time>2016-06-26T12:00:27Z</time>
      </trkpt>
      <trkpt lat="45.60903" lon="5.45206">
        <ele>444.16330193781</ele>
        <time>2016-06-26T12:00:32Z</time>
      </trkpt>
      <trkpt lat="45.60899" lon="5.45218">
        <ele>442.7272348751</ele>
        <time>2016-06-26T12:00:42Z</time>
      </trkpt>
      <trkpt lat="45.609" lon="5.45219">
        <ele>442.7272348751</ele>
        <time>2016-06-26T12:00:47Z</time>
      </trkpt>
      <trkpt lat="45.609" lon="5.45221">
        <ele>442.7272348751</ele>
        <time>2016-06-26T12:00:57Z</time>
      </trkpt>
      <trkpt lat="45.60899" lon="5.45221">
        <ele>442.7272348751</ele>
        <time>2016-06-26T12:01:02Z</time>
      </trkpt>
      <trkpt lat="45.60899" lon="5.45221">
        <ele>442.7272348751</ele>
        <time>2016-06-26T12:01:12Z</time>
      </trkpt>
      <trkpt lat="45.60898" lon="5.45226">
        <ele>442.7272348751</ele>
        <time>2016-06-26T12:01:17Z</time>
      </trkpt>
      <trkpt lat="45.60888" lon="5.45242">
        <ele>441.62221660223</ele>
        <time>2016-06-26T12:01:27Z</time>
      </trkpt>
      <trkpt lat="45.60882" lon="5.45256">
        <ele>440.65542017451</ele>
        <time>2016-06-26T12:01:32Z</time>
      </trkpt>
      <trkpt lat="45.60867" lon="5.45285">
        <ele>439.76285582783</ele>
        <time>2016-06-26T12:01:47Z</time>
      </trkpt>
      <trkpt lat="45.60863" lon="5.45292">
        <ele>439.76285582783</ele>
        <time>2016-06-26T12:01:52Z</time>
      </trkpt>
      <trkpt lat="45.60854" lon="5.45306">
        <ele>438.6109908341</ele>
        <time>2016-06-26T12:02:02Z</time>
      </trkpt>
      <trkpt lat="45.6085" lon="5.45314">
        <ele>438.6109908341</ele>
        <time>2016-06-26T12:02:07Z</time>
      </trkpt>
      <trkpt lat="45.6084" lon="5.45328">
        <ele>437.78479228264</ele>
        <time>2016-06-26T12:02:17Z</time>
      </trkpt>
      <trkpt lat="45.60836" lon="5.45336">
        <ele>437.78479228264</ele>
        <time>2016-06-26T12:02:22Z</time>
      </trkpt>
      <trkpt lat="45.60827" lon="5.45352">
        <ele>437.43603169906</ele>
        <time>2016-06-26T12:02:32Z</time>
      </trkpt>
      <trkpt lat="45.60824" lon="5.45362">
        <ele>437.43603169906</ele>
        <time>2016-06-26T12:02:37Z</time>
      </trkpt>
      <trkpt lat="45.6082" lon="5.45381">
        <ele>437.81908035306</ele>
        <time>2016-06-26T12:02:47Z</time>
      </trkpt>
      <trkpt lat="45.60821" lon="5.4539">
        <ele>437.81908035306</ele>
        <time>2016-06-26T12:02:52Z</time>
      </trkpt>
      <trkpt lat="45.6083" lon="5.45406">
        <ele>437.92802514</ele>
        <time>2016-06-26T12:03:02Z</time>
      </trkpt>
      <trkpt lat="45.60838" lon="5.45407">
        <ele>437.92802514</ele>
        <time>2016-06-26T12:03:07Z</time>
      </trkpt>
      <trkpt lat="45.60856" lon="5.45412">
        <ele>437.99874021708</ele>
        <time>2016-06-26T12:03:22Z</time>
      </trkpt>
      <trkpt lat="45.60861" lon="5.45411">
        <ele>437.99874021708</ele>
        <time>2016-06-26T12:03:27Z</time>
      </trkpt>
      <trkpt lat="45.60875" lon="5.45411">
        <ele>437.93267360817</ele>
        <time>2016-06-26T12:03:37Z</time>
      </trkpt>
      <trkpt lat="45.60882" lon="5.45412">
        <ele>437.93267360817</ele>
        <time>2016-06-26T12:03:42Z</time>
      </trkpt>
      <trkpt lat="45.60895" lon="5.45412">
        <ele>437.22082534351</ele>
        <time>2016-06-26T12:03:52Z</time>
      </trkpt>
      <trkpt lat="45.609" lon="5.45414">
        <ele>437.22082534351</ele>
        <time>2016-06-26T12:03:57Z</time>
      </trkpt>
      <trkpt lat="45.60911" lon="5.4542">
        <ele>436.58938245227</ele>
        <time>2016-06-26T12:04:07Z</time>
      </trkpt>
      <trkpt lat="45.60917" lon="5.45422">
        <ele>436.58938245227</ele>
        <time>2016-06-26T12:04:12Z</time>
      </trkpt>
      <trkpt lat="45.60928" lon="5.45435">
        <ele>436.119976316</ele>
        <time>2016-06-26T12:04:22Z</time>
      </trkpt>
      <trkpt lat="45.60935" lon="5.45438">
        <ele>436.119976316</ele>
        <time>2016-06-26T12:04:27Z</time>
      </trkpt>
      <trkpt lat="45.60946" lon="5.45445">
        <ele>435.65708797942</ele>
        <time>2016-06-26T12:04:37Z</time>
      </trkpt>
      <trkpt lat="45.6095" lon="5.45446">
        <ele>435.65708797942</ele>
        <time>2016-06-26T12:04:42Z</time>
      </trkpt>
      <trkpt lat="45.6096" lon="5.45441">
        <ele>435.22942379832</ele>
        <time>2016-06-26T12:04:52Z</time>
      </trkpt>
      <trkpt lat="45.60967" lon="5.45444">
        <ele>435.22942379832</ele>
        <time>2016-06-26T12:04:57Z</time>
      </trkpt>
      <trkpt lat="45.60981" lon="5.45448">
        <ele>434.15723006196</ele>
        <time>2016-06-26T12:05:12Z</time>
      </trkpt>
      <trkpt lat="45.60986" lon="5.45453">
        <ele>434.15723006196</ele>
        <time>2016-06-26T12:05:17Z</time>
      </trkpt>
      <trkpt lat="45.60999" lon="5.4546">
        <ele>432.36001448439</ele>
        <time>2016-06-26T12:05:27Z</time>
      </trkpt>
      <trkpt lat="45.61007" lon="5.45464">
        <ele>432.36001448439</ele>
        <time>2016-06-26T12:05:32Z</time>
      </trkpt>
      <trkpt lat="45.61013" lon="5.45472">
        <ele>430.62979743293</ele>
        <time>2016-06-26T12:05:42Z</time>
      </trkpt>
      <trkpt lat="45.61012" lon="5.4547">
        <ele>430.62979743293</ele>
        <time>2016-06-26T12:05:47Z</time>
      </trkpt>
      <trkpt lat="45.61011" lon="5.45469">
        <ele>430.62979743293</ele>
        <time>2016-06-26T12:05:57Z</time>
      </trkpt>
      <trkpt lat="45.61012" lon="5.45465">
        <ele>430.62979743293</ele>
        <time>2016-06-26T12:06:02Z</time>
      </trkpt>
      <trkpt lat="45.61014" lon="5.45461">
        <ele>428.86428372997</ele>
        <time>2016-06-26T12:06:12Z</time>
      </trkpt>
      <trkpt lat="45.61014" lon="5.45461">
        <ele>428.86428372997</ele>
        <time>2016-06-26T12:06:17Z</time>
      </trkpt>
      <trkpt lat="45.61014" lon="5.45461">
        <ele>428.86428372997</ele>
        <time>2016-06-26T12:06:27Z</time>
      </trkpt>
      <trkpt lat="45.61014" lon="5.45462">
        <ele>428.86428372997</ele>
        <time>2016-06-26T12:06:32Z</time>
      </trkpt>
      <trkpt lat="45.61014" lon="5.45462">
        <ele>428.86428372997</ele>
        <time>2016-06-26T12:06:42Z</time>
      </trkpt>
      <trkpt lat="45.61014" lon="5.45462">
        <ele>428.86428372997</ele>
        <time>2016-06-26T12:06:47Z</time>
      </trkpt>
      <trkpt lat="45.61013" lon="5.45463">
        <ele>428.86428372997</ele>
        <time>2016-06-26T12:06:57Z</time>
      </trkpt>
      <trkpt lat="45.61014" lon="5.45467">
        <ele>428.86428372997</ele>
        <time>2016-06-26T12:07:02Z</time>
      </trkpt>
      <trkpt lat="45.61027" lon="5.45481">
        <ele>426.5795870138</ele>
        <time>2016-06-26T12:07:17Z</time>
      </trkpt>
      <trkpt lat="45.61029" lon="5.45488">
        <ele>426.5795870138</ele>
        <time>2016-06-26T12:07:22Z</time>
      </trkpt>
      <trkpt lat="45.61038" lon="5.45498">
        <ele>423.54488005796</ele>
        <time>2016-06-26T12:07:32Z</time>
      </trkpt>
      <trkpt lat="45.61042" lon="5.45509">
        <ele>423.54488005796</ele>
        <time>2016-06-26T12:07:37Z</time>
      </trkpt>
      <trkpt lat="45.6105" lon="5.45528">
        <ele>420.8596914176</ele>
        <time>2016-06-26T12:07:47Z</time>
      </trkpt>
      <trkpt lat="45.61055" lon="5.45535">
        <ele>420.8596914176</ele>
        <time>2016-06-26T12:07:52Z</time>
      </trkpt>
      <trkpt lat="45.61072" lon="5.45551">
        <ele>417.88439572331</ele>
        <time>2016-06-26T12:08:07Z</time>
      </trkpt>
      <trkpt lat="45.61075" lon="5.45562">
        <ele>417.88439572331</ele>
        <time>2016-06-26T12:08:12Z</time>
      </trkpt>
      <trkpt lat="45.61082" lon="5.45585">
        <ele>415.62666995151</ele>
        <time>2016-06-26T12:08:22Z</time>
      </trkpt>
      <trkpt lat="45.61083" lon="5.45595">
        <ele>415.62666995151</ele>
        <time>2016-06-26T12:08:27Z</time>
      </trkpt>
      <trkpt lat="45.61086" lon="5.45613">
        <ele>413.46161571714</ele>
        <time>2016-06-26T12:08:37Z</time>
      </trkpt>
      <trkpt lat="45.61086" lon="5.4562">
        <ele>413.46161571714</ele>
        <time>2016-06-26T12:08:42Z</time>
      </trkpt>
      <trkpt lat="45.61087" lon="5.45632">
        <ele>410.7377803093</ele>
        <time>2016-06-26T12:08:52Z</time>
      </trkpt>
      <trkpt lat="45.61089" lon="5.45657">
        <ele>407.890586906</ele>
        <time>2016-06-26T12:08:57Z</time>
      </trkpt>
      <trkpt lat="45.61096" lon="5.45689">
        <ele>405.98658106879</ele>
        <time>2016-06-26T12:09:07Z</time>
      </trkpt>
      <trkpt lat="45.61098" lon="5.45697">
        <ele>405.98658106879</ele>
        <time>2016-06-26T12:09:12Z</time>
      </trkpt>
      <trkpt lat="45.61103" lon="5.45709">
        <ele>403.27305083919</ele>
        <time>2016-06-26T12:09:22Z</time>
      </trkpt>
      <trkpt lat="45.61106" lon="5.45713">
        <ele>403.27305083919</ele>
        <time>2016-06-26T12:09:27Z</time>
      </trkpt>
      <trkpt lat="45.61128" lon="5.45739">
        <ele>400.49157776983</ele>
        <time>2016-06-26T12:09:42Z</time>
      </trkpt>
      <trkpt lat="45.61131" lon="5.45749">
        <ele>400.49157776983</ele>
        <time>2016-06-26T12:09:47Z</time>
      </trkpt>
      <trkpt lat="45.61143" lon="5.45763">
        <ele>398.28607020197</ele>
        <time>2016-06-26T12:09:57Z</time>
      </trkpt>
      <trkpt lat="45.61148" lon="5.45772">
        <ele>398.28607020197</ele>
        <time>2016-06-26T12:10:02Z</time>
      </trkpt>
      <trkpt lat="45.61149" lon="5.45793">
        <ele>396.77579989633</ele>
        <time>2016-06-26T12:10:12Z</time>
      </trkpt>
      <trkpt lat="45.61145" lon="5.45803">
        <ele>396.77579989633</ele>
        <time>2016-06-26T12:10:17Z</time>
      </trkpt>
      <trkpt lat="45.61138" lon="5.4583">
        <ele>395.07480910428</ele>
        <time>2016-06-26T12:10:27Z</time>
      </trkpt>
      <trkpt lat="45.61135" lon="5.45841">
        <ele>395.07480910428</ele>
        <time>2016-06-26T12:10:32Z</time>
      </trkpt>
      <trkpt lat="45.6113" lon="5.45862">
        <ele>393.76049041918</ele>
        <time>2016-06-26T12:10:42Z</time>
      </trkpt>
      <trkpt lat="45.61129" lon="5.45877">
        <ele>393.49630158048</ele>
        <time>2016-06-26T12:10:47Z</time>
      </trkpt>
      <trkpt lat="45.61127" lon="5.45906">
        <ele>392.99162623954</ele>
        <time>2016-06-26T12:10:57Z</time>
      </trkpt>
      <trkpt lat="45.61125" lon="5.4593">
        <ele>393.01113336113</ele>
        <time>2016-06-26T12:11:02Z</time>
      </trkpt>
      <trkpt lat="45.61114" lon="5.46021">
        <ele>393.49796831733</ele>
        <time>2016-06-26T12:11:12Z</time>
      </trkpt>
      <trkpt lat="45.61103" lon="5.46054">
        <ele>394.00896902056</ele>
        <time>2016-06-26T12:11:17Z</time>
      </trkpt>
      <trkpt lat="45.61098" lon="5.46122">
        <ele>394.20546168095</ele>
        <time>2016-06-26T12:11:27Z</time>
      </trkpt>
      <trkpt lat="45.61104" lon="5.46164">
        <ele>394.65357710551</ele>
        <time>2016-06-26T12:11:32Z</time>
      </trkpt>
      <trkpt lat="45.61113" lon="5.46233">
        <ele>395.40157001613</ele>
        <time>2016-06-26T12:11:42Z</time>
      </trkpt>
      <trkpt lat="45.61115" lon="5.46273">
        <ele>396.78153463105</ele>
        <time>2016-06-26T12:11:47Z</time>
      </trkpt>
      <trkpt lat="45.61103" lon="5.4635">
        <ele>398.40768583954</ele>
        <time>2016-06-26T12:11:57Z</time>
      </trkpt>
      <trkpt lat="45.61097" lon="5.46387">
        <ele>400.52719822595</ele>
        <time>2016-06-26T12:12:02Z</time>
      </trkpt>
      <trkpt lat="45.61069" lon="5.46512">
        <ele>402.71927117267</ele>
        <time>2016-06-26T12:12:17Z</time>
      </trkpt>
      <trkpt lat="45.6106" lon="5.46551">
        <ele>404.4497897175</ele>
        <time>2016-06-26T12:12:22Z</time>
      </trkpt>
      <trkpt lat="45.61061" lon="5.46583">
        <ele>406.56551371666</ele>
        <time>2016-06-26T12:12:32Z</time>
      </trkpt>
      <trkpt lat="45.61063" lon="5.46593">
        <ele>406.56551371666</ele>
        <time>2016-06-26T12:12:37Z</time>
      </trkpt>
      <trkpt lat="45.61066" lon="5.4661">
        <ele>408.71157234898</ele>
        <time>2016-06-26T12:12:47Z</time>
      </trkpt>
      <trkpt lat="45.61069" lon="5.46615">
        <ele>408.71157234898</ele>
        <time>2016-06-26T12:12:52Z</time>
      </trkpt>
      <trkpt lat="45.61075" lon="5.46624">
        <ele>409.08929026411</ele>
        <time>2016-06-26T12:13:02Z</time>
      </trkpt>
      <trkpt lat="45.61078" lon="5.46632">
        <ele>409.08929026411</ele>
        <time>2016-06-26T12:13:07Z</time>
      </trkpt>
      <trkpt lat="45.61086" lon="5.46658">
        <ele>410.24528720201</ele>
        <time>2016-06-26T12:13:17Z</time>
      </trkpt>
      <trkpt lat="45.61089" lon="5.46672">
        <ele>412.02956122817</ele>
        <time>2016-06-26T12:13:22Z</time>
      </trkpt>
      <trkpt lat="45.61098" lon="5.46695">
        <ele>413.92685532686</ele>
        <time>2016-06-26T12:13:32Z</time>
      </trkpt>
      <trkpt lat="45.61107" lon="5.46706">
        <ele>415.66138636667</ele>
        <time>2016-06-26T12:13:37Z</time>
      </trkpt>
      <trkpt lat="45.6112" lon="5.46723">
        <ele>416.97827940961</ele>
        <time>2016-06-26T12:13:52Z</time>
      </trkpt>
      <trkpt lat="45.61123" lon="5.46732">
        <ele>416.97827940961</ele>
        <time>2016-06-26T12:13:57Z</time>
      </trkpt>
      <trkpt lat="45.61123" lon="5.46743">
        <ele>418.69476591508</ele>
        <time>2016-06-26T12:14:07Z</time>
      </trkpt>
      <trkpt lat="45.61116" lon="5.46742">
        <ele>418.69476591508</ele>
        <time>2016-06-26T12:14:12Z</time>
      </trkpt>
      <trkpt lat="45.61106" lon="5.4674">
        <ele>420.18366166245</ele>
        <time>2016-06-26T12:14:22Z</time>
      </trkpt>
      <trkpt lat="45.61099" lon="5.46739">
        <ele>420.18366166245</ele>
        <time>2016-06-26T12:14:27Z</time>
      </trkpt>
      <trkpt lat="45.61069" lon="5.46738">
        <ele>422.08964889093</ele>
        <time>2016-06-26T12:14:37Z</time>
      </trkpt>
      <trkpt lat="45.61047" lon="5.4674">
        <ele>423.23652762028</ele>
        <time>2016-06-26T12:14:42Z</time>
      </trkpt>
      <trkpt lat="45.61023" lon="5.46746">
        <ele>422.66654233968</ele>
        <time>2016-06-26T12:14:52Z</time>
      </trkpt>
      <trkpt lat="45.61013" lon="5.46748">
        <ele>422.0913178059</ele>
        <time>2016-06-26T12:14:57Z</time>
      </trkpt>
      <trkpt lat="45.60995" lon="5.46751">
        <ele>423.05372479837</ele>
        <time>2016-06-26T12:15:07Z</time>
      </trkpt>
      <trkpt lat="45.60986" lon="5.46754">
        <ele>423.05372479837</ele>
        <time>2016-06-26T12:15:12Z</time>
      </trkpt>
      <trkpt lat="45.60969" lon="5.46759">
        <ele>424.88956179541</ele>
        <time>2016-06-26T12:15:22Z</time>
      </trkpt>
      <trkpt lat="45.60961" lon="5.4676">
        <ele>424.88956179541</ele>
        <time>2016-06-26T12:15:27Z</time>
      </trkpt>
      <trkpt lat="45.60947" lon="5.46761">
        <ele>426.63528735992</ele>
        <time>2016-06-26T12:15:37Z</time>
      </trkpt>
      <trkpt lat="45.60939" lon="5.46761">
        <ele>426.63528735992</ele>
        <time>2016-06-26T12:15:42Z</time>
      </trkpt>
      <trkpt lat="45.60922" lon="5.4676">
        <ele>429.50260267768</ele>
        <time>2016-06-26T12:15:52Z</time>
      </trkpt>
      <trkpt lat="45.60914" lon="5.46759">
        <ele>429.50260267768</ele>
        <time>2016-06-26T12:15:57Z</time>
      </trkpt>
      <trkpt lat="45.60904" lon="5.46752">
        <ele>432.31987458392</ele>
        <time>2016-06-26T12:16:07Z</time>
      </trkpt>
      <trkpt lat="45.60898" lon="5.46749">
        <ele>432.31987458392</ele>
        <time>2016-06-26T12:16:12Z</time>
      </trkpt>
      <trkpt lat="45.60887" lon="5.4674">
        <ele>435.68797696502</ele>
        <time>2016-06-26T12:16:22Z</time>
      </trkpt>
      <trkpt lat="45.6088" lon="5.46736">
        <ele>435.68797696502</ele>
        <time>2016-06-26T12:16:27Z</time>
      </trkpt>
      <trkpt lat="45.60863" lon="5.46722">
        <ele>439.42734047302</ele>
        <time>2016-06-26T12:16:42Z</time>
      </trkpt>
      <trkpt lat="45.60858" lon="5.46715">
        <ele>439.42734047302</ele>
        <time>2016-06-26T12:16:47Z</time>
      </trkpt>
      <trkpt lat="45.60845" lon="5.46702">
        <ele>443.64457807497</ele>
        <time>2016-06-26T12:16:57Z</time>
      </trkpt>
      <trkpt lat="45.6084" lon="5.46698">
        <ele>443.64457807497</ele>
        <time>2016-06-26T12:17:02Z</time>
      </trkpt>
      <trkpt lat="45.60825" lon="5.46687">
        <ele>446.86655205651</ele>
        <time>2016-06-26T12:17:12Z</time>
      </trkpt>
      <trkpt lat="45.60817" lon="5.46682">
        <ele>446.86655205651</ele>
        <time>2016-06-26T12:17:17Z</time>
      </trkpt>
      <trkpt lat="45.60798" lon="5.46679">
        <ele>449.66246610019</ele>
        <time>2016-06-26T12:17:27Z</time>
      </trkpt>
      <trkpt lat="45.60791" lon="5.4668">
        <ele>449.66246610019</ele>
        <time>2016-06-26T12:17:32Z</time>
      </trkpt>
      <trkpt lat="45.60785" lon="5.46687">
        <ele>451.58120009604</ele>
        <time>2016-06-26T12:17:42Z</time>
      </trkpt>
      <trkpt lat="45.60782" lon="5.46693">
        <ele>451.58120009604</ele>
        <time>2016-06-26T12:17:47Z</time>
      </trkpt>
      <trkpt lat="45.6077" lon="5.46708">
        <ele>453.10097425005</ele>
        <time>2016-06-26T12:17:57Z</time>
      </trkpt>
      <trkpt lat="45.60763" lon="5.46711">
        <ele>453.10097425005</ele>
        <time>2016-06-26T12:18:02Z</time>
      </trkpt>
      <trkpt lat="45.6076" lon="5.46712">
        <ele>453.91686587248</ele>
        <time>2016-06-26T12:18:12Z</time>
      </trkpt>
      <trkpt lat="45.60755" lon="5.46709">
        <ele>453.91686587248</ele>
        <time>2016-06-26T12:18:17Z</time>
      </trkpt>
      <trkpt lat="45.60739" lon="5.46692">
        <ele>455.17526339381</ele>
        <time>2016-06-26T12:18:27Z</time>
      </trkpt>
      <trkpt lat="45.6073" lon="5.46683">
        <ele>456.30886893046</ele>
        <time>2016-06-26T12:18:32Z</time>
      </trkpt>
      <trkpt lat="45.60721" lon="5.46673">
        <ele>457.31141903644</ele>
        <time>2016-06-26T12:18:42Z</time>
      </trkpt>
      <trkpt lat="45.60714" lon="5.46668">
        <ele>457.31141903644</ele>
        <time>2016-06-26T12:18:47Z</time>
      </trkpt>
      <trkpt lat="45.60692" lon="5.46641">
        <ele>456.98155024101</ele>
        <time>2016-06-26T12:19:02Z</time>
      </trkpt>
      <trkpt lat="45.60686" lon="5.46635">
        <ele>456.98155024101</ele>
        <time>2016-06-26T12:19:07Z</time>
      </trkpt>
      <trkpt lat="45.60669" lon="5.46615">
        <ele>456.81847868438</ele>
        <time>2016-06-26T12:19:17Z</time>
      </trkpt>
      <trkpt lat="45.60662" lon="5.46611">
        <ele>456.81847868438</ele>
        <time>2016-06-26T12:19:22Z</time>
      </trkpt>
      <trkpt lat="45.60647" lon="5.46608">
        <ele>456.56811291991</ele>
        <time>2016-06-26T12:19:32Z</time>
      </trkpt>
      <trkpt lat="45.6064" lon="5.46608">
        <ele>456.56811291991</ele>
        <time>2016-06-26T12:19:37Z</time>
      </trkpt>
      <trkpt lat="45.60641" lon="5.46609">
        <ele>456.56811291991</ele>
        <time>2016-06-26T12:19:47Z</time>
      </trkpt>
      <trkpt lat="45.6064" lon="5.46614">
        <ele>456.31245482724</ele>
        <time>2016-06-26T12:19:52Z</time>
      </trkpt>
      <trkpt lat="45.60638" lon="5.46635">
        <ele>455.63763589086</ele>
        <time>2016-06-26T12:20:02Z</time>
      </trkpt>
      <trkpt lat="45.60636" lon="5.46651">
        <ele>454.91083938056</ele>
        <time>2016-06-26T12:20:07Z</time>
      </trkpt>
      <trkpt lat="45.60635" lon="5.46675">
        <ele>454.42926274559</ele>
        <time>2016-06-26T12:20:17Z</time>
      </trkpt>
      <trkpt lat="45.60636" lon="5.46686">
        <ele>454.42926274559</ele>
        <time>2016-06-26T12:20:22Z</time>
      </trkpt>
      <trkpt lat="45.60627" lon="5.46762">
        <ele>453.61738208937</ele>
        <time>2016-06-26T12:20:32Z</time>
      </trkpt>
      <trkpt lat="45.60617" lon="5.46794">
        <ele>452.37524530916</ele>
        <time>2016-06-26T12:20:37Z</time>
      </trkpt>
      <trkpt lat="45.60576" lon="5.46848">
        <ele>451.01497508496</ele>
        <time>2016-06-26T12:20:47Z</time>
      </trkpt>
      <trkpt lat="45.60557" lon="5.46868">
        <ele>449.36493517009</ele>
        <time>2016-06-26T12:20:52Z</time>
      </trkpt>
      <trkpt lat="45.60543" lon="5.46881">
        <ele>447.88656186436</ele>
        <time>2016-06-26T12:21:02Z</time>
      </trkpt>
      <trkpt lat="45.60539" lon="5.46888">
        <ele>447.88656186436</ele>
        <time>2016-06-26T12:21:07Z</time>
      </trkpt>
      <trkpt lat="45.60525" lon="5.46913">
        <ele>446.11337669004</ele>
        <time>2016-06-26T12:21:22Z</time>
      </trkpt>
      <trkpt lat="45.60522" lon="5.46923">
        <ele>446.11337669004</ele>
        <time>2016-06-26T12:21:27Z</time>
      </trkpt>
      <trkpt lat="45.6051" lon="5.46948">
        <ele>444.03185060468</ele>
        <time>2016-06-26T12:21:37Z</time>
      </trkpt>
      <trkpt lat="45.60507" lon="5.46957">
        <ele>444.03185060468</ele>
        <time>2016-06-26T12:21:42Z</time>
      </trkpt>
      <trkpt lat="45.605" lon="5.46974">
        <ele>442.9128178045</ele>
        <time>2016-06-26T12:21:52Z</time>
      </trkpt>
      <trkpt lat="45.60496" lon="5.46983">
        <ele>442.9128178045</ele>
        <time>2016-06-26T12:21:57Z</time>
      </trkpt>
      <trkpt lat="45.60487" lon="5.46998">
        <ele>441.39459964817</ele>
        <time>2016-06-26T12:22:07Z</time>
      </trkpt>
      <trkpt lat="45.60483" lon="5.47008">
        <ele>441.39459964817</ele>
        <time>2016-06-26T12:22:12Z</time>
      </trkpt>
      <trkpt lat="45.60474" lon="5.47024">
        <ele>440.57997376402</ele>
        <time>2016-06-26T12:22:22Z</time>
      </trkpt>
      <trkpt lat="45.6047" lon="5.47032">
        <ele>440.57997376402</ele>
        <time>2016-06-26T12:22:27Z</time>
      </trkpt>
      <trkpt lat="45.6046" lon="5.47047">
        <ele>440.39336569519</ele>
        <time>2016-06-26T12:22:37Z</time>
      </trkpt>
      <trkpt lat="45.60457" lon="5.47057">
        <ele>440.39336569519</ele>
        <time>2016-06-26T12:22:42Z</time>
      </trkpt>
      <trkpt lat="45.60457" lon="5.47075">
        <ele>440.27288362206</ele>
        <time>2016-06-26T12:22:52Z</time>
      </trkpt>
      <trkpt lat="45.60457" lon="5.47085">
        <ele>440.27288362206</ele>
        <time>2016-06-26T12:22:57Z</time>
      </trkpt>
      <trkpt lat="45.6046" lon="5.47104">
        <ele>440.41815127744</ele>
        <time>2016-06-26T12:23:07Z</time>
      </trkpt>
      <trkpt lat="45.60459" lon="5.47122">
        <ele>440.55209735937</ele>
        <time>2016-06-26T12:23:12Z</time>
      </trkpt>
      <trkpt lat="45.60456" lon="5.47165">
        <ele>440.07204166376</ele>
        <time>2016-06-26T12:23:27Z</time>
      </trkpt>
      <trkpt lat="45.60455" lon="5.47174">
        <ele>440.07204166376</ele>
        <time>2016-06-26T12:23:32Z</time>
      </trkpt>
      <trkpt lat="45.6045" lon="5.47192">
        <ele>439.86228593952</ele>
        <time>2016-06-26T12:23:42Z</time>
      </trkpt>
      <trkpt lat="45.60447" lon="5.47201">
        <ele>439.86228593952</ele>
        <time>2016-06-26T12:23:47Z</time>
      </trkpt>
      <trkpt lat="45.60443" lon="5.4722">
        <ele>439.602812643</ele>
        <time>2016-06-26T12:23:57Z</time>
      </trkpt>
      <trkpt lat="45.60441" lon="5.4723">
        <ele>439.602812643</ele>
        <time>2016-06-26T12:24:02Z</time>
      </trkpt>
      <trkpt lat="45.60434" lon="5.47248">
        <ele>439.32858677844</ele>
        <time>2016-06-26T12:24:12Z</time>
      </trkpt>
      <trkpt lat="45.6043" lon="5.47257">
        <ele>439.32858677844</ele>
        <time>2016-06-26T12:24:17Z</time>
      </trkpt>
      <trkpt lat="45.60421" lon="5.47272">
        <ele>439.0142822191</ele>
        <time>2016-06-26T12:24:27Z</time>
      </trkpt>
      <trkpt lat="45.60418" lon="5.47281">
        <ele>439.0142822191</ele>
        <time>2016-06-26T12:24:32Z</time>
      </trkpt>
      <trkpt lat="45.60412" lon="5.47298">
        <ele>438.95347298789</ele>
        <time>2016-06-26T12:24:42Z</time>
      </trkpt>
      <trkpt lat="45.6041" lon="5.47303">
        <ele>438.95347298789</ele>
        <time>2016-06-26T12:24:47Z</time>
      </trkpt>
      <trkpt lat="45.60406" lon="5.47315">
        <ele>438.63914076531</ele>
        <time>2016-06-26T12:24:57Z</time>
      </trkpt>
      <trkpt lat="45.60402" lon="5.47334">
        <ele>437.77504342979</ele>
        <time>2016-06-26T12:25:02Z</time>
      </trkpt>
      <trkpt lat="45.60398" lon="5.47356">
        <ele>437.19778657642</ele>
        <time>2016-06-26T12:25:12Z</time>
      </trkpt>
      <trkpt lat="45.60396" lon="5.47367">
        <ele>437.19778657642</ele>
        <time>2016-06-26T12:25:17Z</time>
      </trkpt>
      <trkpt lat="45.60395" lon="5.47387">
        <ele>436.77370291181</ele>
        <time>2016-06-26T12:25:27Z</time>
      </trkpt>
      <trkpt lat="45.60394" lon="5.47397">
        <ele>436.77370291181</ele>
        <time>2016-06-26T12:25:32Z</time>
      </trkpt>
      <trkpt lat="45.60396" lon="5.47417">
        <ele>436.3063481931</ele>
        <time>2016-06-26T12:25:42Z</time>
      </trkpt>
      <trkpt lat="45.60399" lon="5.47426">
        <ele>436.3063481931</ele>
        <time>2016-06-26T12:25:47Z</time>
      </trkpt>
      <trkpt lat="45.60405" lon="5.47444">
        <ele>436.68014444647</ele>
        <time>2016-06-26T12:25:57Z</time>
      </trkpt>
      <trkpt lat="45.60408" lon="5.47453">
        <ele>436.68014444647</ele>
        <time>2016-06-26T12:26:02Z</time>
      </trkpt>
      <trkpt lat="45.60417" lon="5.47476">
        <ele>437.1700914335</ele>
        <time>2016-06-26T12:26:17Z</time>
      </trkpt>
      <trkpt lat="45.6042" lon="5.47484">
        <ele>437.1700914335</ele>
        <time>2016-06-26T12:26:22Z</time>
      </trkpt>
      <trkpt lat="45.60429" lon="5.47496">
        <ele>437.63723489172</ele>
        <time>2016-06-26T12:26:32Z</time>
      </trkpt>
      <trkpt lat="45.60435" lon="5.4751">
        <ele>437.99603561916</ele>
        <time>2016-06-26T12:26:37Z</time>
      </trkpt>
      <trkpt lat="45.60441" lon="5.47524">
        <ele>438.16746061411</ele>
        <time>2016-06-26T12:26:47Z</time>
      </trkpt>
      <trkpt lat="45.60441" lon="5.47525">
        <ele>438.16746061411</ele>
        <time>2016-06-26T12:26:52Z</time>
      </trkpt>
      <trkpt lat="45.60438" lon="5.47531">
        <ele>438.16746061411</ele>
        <time>2016-06-26T12:27:02Z</time>
      </trkpt>
      <trkpt lat="45.60433" lon="5.47527">
        <ele>438.13637857142</ele>
        <time>2016-06-26T12:27:07Z</time>
      </trkpt>
      <trkpt lat="45.6042" lon="5.47516">
        <ele>438.46571500218</ele>
        <time>2016-06-26T12:27:17Z</time>
      </trkpt>
      <trkpt lat="45.60412" lon="5.47512">
        <ele>438.46571500218</ele>
        <time>2016-06-26T12:27:22Z</time>
      </trkpt>
      <trkpt lat="45.60397" lon="5.47504">
        <ele>438.11956880562</ele>
        <time>2016-06-26T12:27:32Z</time>
      </trkpt>
      <trkpt lat="45.6039" lon="5.47502">
        <ele>438.11956880562</ele>
        <time>2016-06-26T12:27:37Z</time>
      </trkpt>
      <trkpt lat="45.60376" lon="5.47501">
        <ele>437.55226051501</ele>
        <time>2016-06-26T12:27:47Z</time>
      </trkpt>
      <trkpt lat="45.60365" lon="5.47503">
        <ele>437.0411885151</ele>
        <time>2016-06-26T12:27:52Z</time>
      </trkpt>
      <trkpt lat="45.60352" lon="5.47507">
        <ele>436.77110435621</ele>
        <time>2016-06-26T12:28:02Z</time>
      </trkpt>
      <trkpt lat="45.60344" lon="5.47509">
        <ele>436.77110435621</ele>
        <time>2016-06-26T12:28:07Z</time>
      </trkpt>
      <trkpt lat="45.6033" lon="5.47512">
        <ele>436.14866650921</ele>
        <time>2016-06-26T12:28:17Z</time>
      </trkpt>
      <trkpt lat="45.60323" lon="5.47514">
        <ele>436.14866650921</ele>
        <time>2016-06-26T12:28:22Z</time>
      </trkpt>
      <trkpt lat="45.60303" lon="5.47517">
        <ele>434.95650686915</ele>
        <time>2016-06-26T12:28:37Z</time>
      </trkpt>
      <trkpt lat="45.60296" lon="5.47517">
        <ele>434.95650686915</ele>
        <time>2016-06-26T12:28:42Z</time>
      </trkpt>
      <trkpt lat="45.60282" lon="5.47515">
        <ele>433.65767545375</ele>
        <time>2016-06-26T12:28:52Z</time>
      </trkpt>
      <trkpt lat="45.60274" lon="5.47512">
        <ele>433.65767545375</ele>
        <time>2016-06-26T12:28:57Z</time>
      </trkpt>
      <trkpt lat="45.60255" lon="5.475">
        <ele>432.20587647535</ele>
        <time>2016-06-26T12:29:07Z</time>
      </trkpt>
      <trkpt lat="45.60249" lon="5.47497">
        <ele>432.20587647535</ele>
        <time>2016-06-26T12:29:12Z</time>
      </trkpt>
      <trkpt lat="45.6025" lon="5.47496">
        <ele>432.20587647535</ele>
        <time>2016-06-26T12:29:22Z</time>
      </trkpt>
      <trkpt lat="45.60249" lon="5.47495">
        <ele>432.20587647535</ele>
        <time>2016-06-26T12:29:27Z</time>
      </trkpt>
      <trkpt lat="45.60244" lon="5.47485">
        <ele>431.192666023</ele>
        <time>2016-06-26T12:29:37Z</time>
      </trkpt>
      <trkpt lat="45.60245" lon="5.47484">
        <ele>431.192666023</ele>
        <time>2016-06-26T12:29:42Z</time>
      </trkpt>
      <trkpt lat="45.60246" lon="5.47482">
        <ele>431.192666023</ele>
        <time>2016-06-26T12:29:52Z</time>
      </trkpt>
      <trkpt lat="45.60246" lon="5.47473">
        <ele>431.192666023</ele>
        <time>2016-06-26T12:29:57Z</time>
      </trkpt>
      <trkpt lat="45.60247" lon="5.47441">
        <ele>430.30017583804</ele>
        <time>2016-06-26T12:30:07Z</time>
      </trkpt>
      <trkpt lat="45.60247" lon="5.47429">
        <ele>430.30017583804</ele>
        <time>2016-06-26T12:30:12Z</time>
      </trkpt>
      <trkpt lat="45.60247" lon="5.4741">
        <ele>429.59375283076</ele>
        <time>2016-06-26T12:30:22Z</time>
      </trkpt>
      <trkpt lat="45.60246" lon="5.47401">
        <ele>429.59375283076</ele>
        <time>2016-06-26T12:30:27Z</time>
      </trkpt>
      <trkpt lat="45.60244" lon="5.47387">
        <ele>428.22544430541</ele>
        <time>2016-06-26T12:30:37Z</time>
      </trkpt>
      <trkpt lat="45.60246" lon="5.47382">
        <ele>428.22544430541</ele>
        <time>2016-06-26T12:30:42Z</time>
      </trkpt>
      <trkpt lat="45.60244" lon="5.4735">
        <ele>427.18393375329</ele>
        <time>2016-06-26T12:30:57Z</time>
      </trkpt>
      <trkpt lat="45.60243" lon="5.47338">
        <ele>427.18393375329</ele>
        <time>2016-06-26T12:31:02Z</time>
      </trkpt>
      <trkpt lat="45.60242" lon="5.47316">
        <ele>426.17374681606</ele>
        <time>2016-06-26T12:31:12Z</time>
      </trkpt>
      <trkpt lat="45.60242" lon="5.47308">
        <ele>426.17374681606</ele>
        <time>2016-06-26T12:31:17Z</time>
      </trkpt>
      <trkpt lat="45.60241" lon="5.47291">
        <ele>425.19475757526</ele>
        <time>2016-06-26T12:31:27Z</time>
      </trkpt>
      <trkpt lat="45.60238" lon="5.47282">
        <ele>425.19475757526</ele>
        <time>2016-06-26T12:31:32Z</time>
      </trkpt>
      <trkpt lat="45.60224" lon="5.47266">
        <ele>423.97286901413</ele>
        <time>2016-06-26T12:31:42Z</time>
      </trkpt>
      <trkpt lat="45.60216" lon="5.47265">
        <ele>423.97286901413</ele>
        <time>2016-06-26T12:31:47Z</time>
      </trkpt>
      <trkpt lat="45.60203" lon="5.4726">
        <ele>422.6582292753</ele>
        <time>2016-06-26T12:31:57Z</time>
      </trkpt>
      <trkpt lat="45.60201" lon="5.4726">
        <ele>422.6582292753</ele>
        <time>2016-06-26T12:32:02Z</time>
      </trkpt>
      <trkpt lat="45.60189" lon="5.47261">
        <ele>422.34126871384</ele>
        <time>2016-06-26T12:32:12Z</time>
      </trkpt>
      <trkpt lat="45.60173" lon="5.47255">
        <ele>421.85335726518</ele>
        <time>2016-06-26T12:32:17Z</time>
      </trkpt>
      <trkpt lat="45.60156" lon="5.47251">
        <ele>421.09206881528</ele>
        <time>2016-06-26T12:32:27Z</time>
      </trkpt>
      <trkpt lat="45.60151" lon="5.4725">
        <ele>421.09206881528</ele>
        <time>2016-06-26T12:32:32Z</time>
      </trkpt>
      <trkpt lat="45.60127" lon="5.47244">
        <ele>421.63488512085</ele>
        <time>2016-06-26T12:32:47Z</time>
      </trkpt>
      <trkpt lat="45.60124" lon="5.47247">
        <ele>421.63488512085</ele>
        <time>2016-06-26T12:32:52Z</time>
      </trkpt>
      <trkpt lat="45.60122" lon="5.47247">
        <ele>421.63488512085</ele>
        <time>2016-06-26T12:33:02Z</time>
      </trkpt>
      <trkpt lat="45.60122" lon="5.47251">
        <ele>421.63488512085</ele>
        <time>2016-06-26T12:33:07Z</time>
      </trkpt>
      <trkpt lat="45.60121" lon="5.47268">
        <ele>422.02863779664</ele>
        <time>2016-06-26T12:33:17Z</time>
      </trkpt>
      <trkpt lat="45.6012" lon="5.47278">
        <ele>422.02863779664</ele>
        <time>2016-06-26T12:33:22Z</time>
      </trkpt>
      <trkpt lat="45.60116" lon="5.47307">
        <ele>422.12339115058</ele>
        <time>2016-06-26T12:33:32Z</time>
      </trkpt>
      <trkpt lat="45.60114" lon="5.47315">
        <ele>422.12339115058</ele>
        <time>2016-06-26T12:33:37Z</time>
      </trkpt>
      <trkpt lat="45.60111" lon="5.47334">
        <ele>422.02600336707</ele>
        <time>2016-06-26T12:33:47Z</time>
      </trkpt>
      <trkpt lat="45.60111" lon="5.47344">
        <ele>422.02600336707</ele>
        <time>2016-06-26T12:33:52Z</time>
      </trkpt>
      <trkpt lat="45.60108" lon="5.47367">
        <ele>422.84476262492</ele>
        <time>2016-06-26T12:34:02Z</time>
      </trkpt>
      <trkpt lat="45.60105" lon="5.4738">
        <ele>422.84476262492</ele>
        <time>2016-06-26T12:34:07Z</time>
      </trkpt>
      <trkpt lat="45.601" lon="5.47423">
        <ele>423.24052150078</ele>
        <time>2016-06-26T12:34:22Z</time>
      </trkpt>
      <trkpt lat="45.60097" lon="5.47446">
        <ele>423.14097271484</ele>
        <time>2016-06-26T12:34:27Z</time>
      </trkpt>
      <trkpt lat="45.60094" lon="5.47506">
        <ele>422.75430865151</ele>
        <time>2016-06-26T12:34:37Z</time>
      </trkpt>
      <trkpt lat="45.60088" lon="5.47537">
        <ele>422.89390541789</ele>
        <time>2016-06-26T12:34:42Z</time>
      </trkpt>
      <trkpt lat="45.60085" lon="5.4758">
        <ele>423.25990021111</ele>
        <time>2016-06-26T12:34:52Z</time>
      </trkpt>
      <trkpt lat="45.60084" lon="5.4759">
        <ele>423.25990021111</ele>
        <time>2016-06-26T12:34:57Z</time>
      </trkpt>
      <trkpt lat="45.60081" lon="5.4761">
        <ele>423.22795927649</ele>
        <time>2016-06-26T12:35:07Z</time>
      </trkpt>
      <trkpt lat="45.6008" lon="5.47619">
        <ele>423.22795927649</ele>
        <time>2016-06-26T12:35:12Z</time>
      </trkpt>
      <trkpt lat="45.60072" lon="5.4765">
        <ele>422.36484574072</ele>
        <time>2016-06-26T12:35:22Z</time>
      </trkpt>
      <trkpt lat="45.60066" lon="5.47685">
        <ele>421.78465564589</ele>
        <time>2016-06-26T12:35:27Z</time>
      </trkpt>
      <trkpt lat="45.60049" lon="5.47757">
        <ele>422.41798388987</ele>
        <time>2016-06-26T12:35:37Z</time>
      </trkpt>
      <trkpt lat="45.60044" lon="5.47779">
        <ele>422.90436144086</ele>
        <time>2016-06-26T12:35:42Z</time>
      </trkpt>
      <trkpt lat="45.60041" lon="5.47799">
        <ele>423.36715479124</ele>
        <time>2016-06-26T12:35:52Z</time>
      </trkpt>
      <trkpt lat="45.60039" lon="5.47807">
        <ele>423.36715479124</ele>
        <time>2016-06-26T12:35:57Z</time>
      </trkpt>
      <trkpt lat="45.60036" lon="5.47827">
        <ele>423.56047832089</ele>
        <time>2016-06-26T12:36:07Z</time>
      </trkpt>
      <trkpt lat="45.60033" lon="5.47837">
        <ele>423.56047832089</ele>
        <time>2016-06-26T12:36:12Z</time>
      </trkpt>
      <trkpt lat="45.60029" lon="5.47858">
        <ele>423.74727071471</ele>
        <time>2016-06-26T12:36:22Z</time>
      </trkpt>
      <trkpt lat="45.60026" lon="5.47868">
        <ele>423.74727071471</ele>
        <time>2016-06-26T12:36:27Z</time>
      </trkpt>
      <trkpt lat="45.60022" lon="5.47883">
        <ele>423.8253388339</ele>
        <time>2016-06-26T12:36:37Z</time>
      </trkpt>
      <trkpt lat="45.6002" lon="5.47891">
        <ele>423.8253388339</ele>
        <time>2016-06-26T12:36:42Z</time>
      </trkpt>
      <trkpt lat="45.60012" lon="5.47913">
        <ele>424.29119307069</ele>
        <time>2016-06-26T12:36:52Z</time>
      </trkpt>
      <trkpt lat="45.6001" lon="5.47921">
        <ele>424.29119307069</ele>
        <time>2016-06-26T12:36:57Z</time>
      </trkpt>
      <trkpt lat="45.6" lon="5.47956">
        <ele>424.42210939735</ele>
        <time>2016-06-26T12:37:12Z</time>
      </trkpt>
      <trkpt lat="45.59995" lon="5.47966">
        <ele>424.42210939735</ele>
        <time>2016-06-26T12:37:17Z</time>
      </trkpt>
      <trkpt lat="45.59989" lon="5.47982">
        <ele>424.63026898083</ele>
        <time>2016-06-26T12:37:27Z</time>
      </trkpt>
      <trkpt lat="45.59985" lon="5.47993">
        <ele>424.63026898083</ele>
        <time>2016-06-26T12:37:32Z</time>
      </trkpt>
      <trkpt lat="45.59976" lon="5.48014">
        <ele>425.49915777764</ele>
        <time>2016-06-26T12:37:42Z</time>
      </trkpt>
      <trkpt lat="45.59976" lon="5.48022">
        <ele>425.49915777764</ele>
        <time>2016-06-26T12:37:47Z</time>
      </trkpt>
      <trkpt lat="45.59971" lon="5.48033">
        <ele>425.76620344785</ele>
        <time>2016-06-26T12:37:57Z</time>
      </trkpt>
      <trkpt lat="45.59971" lon="5.48035">
        <ele>425.76620344785</ele>
        <time>2016-06-26T12:38:02Z</time>
      </trkpt>
      <trkpt lat="45.59963" lon="5.48059">
        <ele>424.91181829322</ele>
        <time>2016-06-26T12:38:12Z</time>
      </trkpt>
      <trkpt lat="45.59957" lon="5.48075">
        <ele>424.51856720252</ele>
        <time>2016-06-26T12:38:17Z</time>
      </trkpt>
      <trkpt lat="45.59947" lon="5.481">
        <ele>424.42305783669</ele>
        <time>2016-06-26T12:38:27Z</time>
      </trkpt>
      <trkpt lat="45.59945" lon="5.48105">
        <ele>424.42305783669</ele>
        <time>2016-06-26T12:38:32Z</time>
      </trkpt>
      <trkpt lat="45.59925" lon="5.48102">
        <ele>424.58839832243</ele>
        <time>2016-06-26T12:38:42Z</time>
      </trkpt>
      <trkpt lat="45.59909" lon="5.48099">
        <ele>424.89325036464</ele>
        <time>2016-06-26T12:38:47Z</time>
      </trkpt>
      <trkpt lat="45.59862" lon="5.48087">
        <ele>425.05190594591</ele>
        <time>2016-06-26T12:39:02Z</time>
      </trkpt>
      <trkpt lat="45.59848" lon="5.48083">
        <ele>425.39095336427</ele>
        <time>2016-06-26T12:39:07Z</time>
      </trkpt>
      <trkpt lat="45.59819" lon="5.48074">
        <ele>425.7657830293</ele>
        <time>2016-06-26T12:39:17Z</time>
      </trkpt>
      <trkpt lat="45.59807" lon="5.48069">
        <ele>426.14323087639</ele>
        <time>2016-06-26T12:39:22Z</time>
      </trkpt>
      <trkpt lat="45.5978" lon="5.48062">
        <ele>426.99699815808</ele>
        <time>2016-06-26T12:39:32Z</time>
      </trkpt>
      <trkpt lat="45.59767" lon="5.48059">
        <ele>428.15943596016</ele>
        <time>2016-06-26T12:39:37Z</time>
      </trkpt>
      <trkpt lat="45.59744" lon="5.48055">
        <ele>429.24382204314</ele>
        <time>2016-06-26T12:39:47Z</time>
      </trkpt>
      <trkpt lat="45.59739" lon="5.48056">
        <ele>429.24382204314</ele>
        <time>2016-06-26T12:39:52Z</time>
      </trkpt>
      <trkpt lat="45.59735" lon="5.48072">
        <ele>430.32445535598</ele>
        <time>2016-06-26T12:40:02Z</time>
      </trkpt>
      <trkpt lat="45.59731" lon="5.48081">
        <ele>430.32445535598</ele>
        <time>2016-06-26T12:40:07Z</time>
      </trkpt>
      <trkpt lat="45.59724" lon="5.48099">
        <ele>432.04669933384</ele>
        <time>2016-06-26T12:40:17Z</time>
      </trkpt>
      <trkpt lat="45.5972" lon="5.48107">
        <ele>432.04669933384</ele>
        <time>2016-06-26T12:40:22Z</time>
      </trkpt>
      <trkpt lat="45.59708" lon="5.48145">
        <ele>433.47920516075</ele>
        <time>2016-06-26T12:40:32Z</time>
      </trkpt>
      <trkpt lat="45.59698" lon="5.48179">
        <ele>434.71106741385</ele>
        <time>2016-06-26T12:40:37Z</time>
      </trkpt>
      <trkpt lat="45.59687" lon="5.48223">
        <ele>435.98400779567</ele>
        <time>2016-06-26T12:40:47Z</time>
      </trkpt>
      <trkpt lat="45.59683" lon="5.48237">
        <ele>437.276979356</ele>
        <time>2016-06-26T12:40:52Z</time>
      </trkpt>
      <trkpt lat="45.59672" lon="5.48258">
        <ele>437.359985554</ele>
        <time>2016-06-26T12:41:02Z</time>
      </trkpt>
      <trkpt lat="45.59669" lon="5.48265">
        <ele>437.359985554</ele>
        <time>2016-06-26T12:41:07Z</time>
      </trkpt>
      <trkpt lat="45.59662" lon="5.48284">
        <ele>438.09438647541</ele>
        <time>2016-06-26T12:41:17Z</time>
      </trkpt>
      <trkpt lat="45.59659" lon="5.48293">
        <ele>438.09438647541</ele>
        <time>2016-06-26T12:41:22Z</time>
      </trkpt>
      <trkpt lat="45.59655" lon="5.48307">
        <ele>439.15669671744</ele>
        <time>2016-06-26T12:41:32Z</time>
      </trkpt>
      <trkpt lat="45.59651" lon="5.48315">
        <ele>439.15669671744</ele>
        <time>2016-06-26T12:41:37Z</time>
      </trkpt>
      <trkpt lat="45.59644" lon="5.48349">
        <ele>438.83407580555</ele>
        <time>2016-06-26T12:41:52Z</time>
      </trkpt>
      <trkpt lat="45.59644" lon="5.48359">
        <ele>438.83407580555</ele>
        <time>2016-06-26T12:41:57Z</time>
      </trkpt>
      <trkpt lat="45.59646" lon="5.4839">
        <ele>438.29600158162</ele>
        <time>2016-06-26T12:42:07Z</time>
      </trkpt>
      <trkpt lat="45.59639" lon="5.48421">
        <ele>438.07910392076</ele>
        <time>2016-06-26T12:42:12Z</time>
      </trkpt>
      <trkpt lat="45.59613" lon="5.4848">
        <ele>437.15218229144</ele>
        <time>2016-06-26T12:42:22Z</time>
      </trkpt>
      <trkpt lat="45.59603" lon="5.48491">
        <ele>436.11823744236</ele>
        <time>2016-06-26T12:42:27Z</time>
      </trkpt>
      <trkpt lat="45.59604" lon="5.48494">
        <ele>436.11823744236</ele>
        <time>2016-06-26T12:42:37Z</time>
      </trkpt>
      <trkpt lat="45.59602" lon="5.48495">
        <ele>436.11823744236</ele>
        <time>2016-06-26T12:42:42Z</time>
      </trkpt>
      <trkpt lat="45.59585" lon="5.48492">
        <ele>435.9110097003</ele>
        <time>2016-06-26T12:42:52Z</time>
      </trkpt>
      <trkpt lat="45.59577" lon="5.48489">
        <ele>435.9110097003</ele>
        <time>2016-06-26T12:42:57Z</time>
      </trkpt>
      <trkpt lat="45.59566" lon="5.48488">
        <ele>435.64961891378</ele>
        <time>2016-06-26T12:43:07Z</time>
      </trkpt>
      <trkpt lat="45.5956" lon="5.48486">
        <ele>435.64961891378</ele>
        <time>2016-06-26T12:43:12Z</time>
      </trkpt>
      <trkpt lat="45.59549" lon="5.48482">
        <ele>435.49802836359</ele>
        <time>2016-06-26T12:43:22Z</time>
      </trkpt>
      <trkpt lat="45.59542" lon="5.4848">
        <ele>435.49802836359</ele>
        <time>2016-06-26T12:43:27Z</time>
      </trkpt>
      <trkpt lat="45.59525" lon="5.48481">
        <ele>434.90172273378</ele>
        <time>2016-06-26T12:43:42Z</time>
      </trkpt>
      <trkpt lat="45.59519" lon="5.48478">
        <ele>434.90172273378</ele>
        <time>2016-06-26T12:43:47Z</time>
      </trkpt>
      <trkpt lat="45.59505" lon="5.4848">
        <ele>434.0975584798</ele>
        <time>2016-06-26T12:43:57Z</time>
      </trkpt>
      <trkpt lat="45.59497" lon="5.48478">
        <ele>434.0975584798</ele>
        <time>2016-06-26T12:44:02Z</time>
      </trkpt>
      <trkpt lat="45.59485" lon="5.48481">
        <ele>432.57061184179</ele>
        <time>2016-06-26T12:44:12Z</time>
      </trkpt>
      <trkpt lat="45.59479" lon="5.48484">
        <ele>432.57061184179</ele>
        <time>2016-06-26T12:44:17Z</time>
      </trkpt>
      <trkpt lat="45.59466" lon="5.4849">
        <ele>431.53190685064</ele>
        <time>2016-06-26T12:44:27Z</time>
      </trkpt>
      <trkpt lat="45.5946" lon="5.48489">
        <ele>431.53190685064</ele>
        <time>2016-06-26T12:44:32Z</time>
      </trkpt>
      <trkpt lat="45.59451" lon="5.485">
        <ele>429.75310644101</ele>
        <time>2016-06-26T12:44:42Z</time>
      </trkpt>
      <trkpt lat="45.59445" lon="5.48507">
        <ele>429.75310644101</ele>
        <time>2016-06-26T12:44:47Z</time>
      </trkpt>
      <trkpt lat="45.59433" lon="5.48518">
        <ele>427.94277463322</ele>
        <time>2016-06-26T12:44:57Z</time>
      </trkpt>
      <trkpt lat="45.5943" lon="5.48525">
        <ele>427.94277463322</ele>
        <time>2016-06-26T12:45:02Z</time>
      </trkpt>
      <trkpt lat="45.59423" lon="5.48541">
        <ele>426.23866908178</ele>
        <time>2016-06-26T12:45:12Z</time>
      </trkpt>
      <trkpt lat="45.59421" lon="5.48547">
        <ele>426.23866908178</ele>
        <time>2016-06-26T12:45:17Z</time>
      </trkpt>
      <trkpt lat="45.59406" lon="5.48567">
        <ele>424.40779520065</ele>
        <time>2016-06-26T12:45:27Z</time>
      </trkpt>
      <trkpt lat="45.59396" lon="5.48572">
        <ele>422.1192705323</ele>
        <time>2016-06-26T12:45:32Z</time>
      </trkpt>
      <trkpt lat="45.59345" lon="5.4858">
        <ele>420.33589889273</ele>
        <time>2016-06-26T12:45:42Z</time>
      </trkpt>
      <trkpt lat="45.5931" lon="5.48583">
        <ele>418.59360156516</ele>
        <time>2016-06-26T12:45:47Z</time>
      </trkpt>
      <trkpt lat="45.59247" lon="5.48594">
        <ele>416.63510507122</ele>
        <time>2016-06-26T12:45:57Z</time>
      </trkpt>
      <trkpt lat="45.59212" lon="5.48602">
        <ele>415.346596837</ele>
        <time>2016-06-26T12:46:02Z</time>
      </trkpt>
      <trkpt lat="45.59171" lon="5.4861">
        <ele>414.52397983773</ele>
        <time>2016-06-26T12:46:12Z</time>
      </trkpt>
      <trkpt lat="45.59164" lon="5.48612">
        <ele>414.52397983773</ele>
        <time>2016-06-26T12:46:17Z</time>
      </trkpt>
      <trkpt lat="45.59151" lon="5.48613">
        <ele>414.38023590487</ele>
        <time>2016-06-26T12:46:27Z</time>
      </trkpt>
      <trkpt lat="45.59144" lon="5.48614">
        <ele>414.38023590487</ele>
        <time>2016-06-26T12:46:32Z</time>
      </trkpt>
      <trkpt lat="45.59132" lon="5.48615">
        <ele>414.69275895692</ele>
        <time>2016-06-26T12:46:42Z</time>
      </trkpt>
      <trkpt lat="45.59126" lon="5.48615">
        <ele>414.69275895692</ele>
        <time>2016-06-26T12:46:47Z</time>
      </trkpt>
      <trkpt lat="45.59096" lon="5.48622">
        <ele>415.13861790248</ele>
        <time>2016-06-26T12:47:02Z</time>
      </trkpt>
      <trkpt lat="45.59089" lon="5.48625">
        <ele>415.13861790248</ele>
        <time>2016-06-26T12:47:07Z</time>
      </trkpt>
      <trkpt lat="45.59075" lon="5.48628">
        <ele>415.00020775645</ele>
        <time>2016-06-26T12:47:17Z</time>
      </trkpt>
      <trkpt lat="45.59068" lon="5.48627">
        <ele>415.00020775645</ele>
        <time>2016-06-26T12:47:22Z</time>
      </trkpt>
      <trkpt lat="45.59055" lon="5.48623">
        <ele>414.50767602862</ele>
        <time>2016-06-26T12:47:32Z</time>
      </trkpt>
      <trkpt lat="45.5905" lon="5.48617">
        <ele>414.50767602862</ele>
        <time>2016-06-26T12:47:37Z</time>
      </trkpt>
      <trkpt lat="45.59046" lon="5.48611">
        <ele>413.81752965956</ele>
        <time>2016-06-26T12:47:47Z</time>
      </trkpt>
      <trkpt lat="45.59046" lon="5.48611">
        <ele>413.81752965956</ele>
        <time>2016-06-26T12:47:52Z</time>
      </trkpt>
      <trkpt lat="45.59041" lon="5.48603">
        <ele>413.81752965956</ele>
        <time>2016-06-26T12:48:02Z</time>
      </trkpt>
      <trkpt lat="45.59036" lon="5.48594">
        <ele>413.17613323479</ele>
        <time>2016-06-26T12:48:07Z</time>
      </trkpt>
      <trkpt lat="45.59024" lon="5.48572">
        <ele>411.91805221833</ele>
        <time>2016-06-26T12:48:22Z</time>
      </trkpt>
      <trkpt lat="45.59019" lon="5.48567">
        <ele>411.91805221833</ele>
        <time>2016-06-26T12:48:27Z</time>
      </trkpt>
      <trkpt lat="45.59007" lon="5.48558">
        <ele>410.6821570882</ele>
        <time>2016-06-26T12:48:37Z</time>
      </trkpt>
      <trkpt lat="45.59" lon="5.48553">
        <ele>410.6821570882</ele>
        <time>2016-06-26T12:48:42Z</time>
      </trkpt>
      <trkpt lat="45.58987" lon="5.48546">
        <ele>409.36851629591</ele>
        <time>2016-06-26T12:48:52Z</time>
      </trkpt>
      <trkpt lat="45.5898" lon="5.48543">
        <ele>409.36851629591</ele>
        <time>2016-06-26T12:48:57Z</time>
      </trkpt>
      <trkpt lat="45.58966" lon="5.48539">
        <ele>408.08643631173</ele>
        <time>2016-06-26T12:49:07Z</time>
      </trkpt>
      <trkpt lat="45.58959" lon="5.48538">
        <ele>408.08643631173</ele>
        <time>2016-06-26T12:49:12Z</time>
      </trkpt>
      <trkpt lat="45.58945" lon="5.48536">
        <ele>407.03790502251</ele>
        <time>2016-06-26T12:49:22Z</time>
      </trkpt>
      <trkpt lat="45.58938" lon="5.48534">
        <ele>407.03790502251</ele>
        <time>2016-06-26T12:49:27Z</time>
      </trkpt>
      <trkpt lat="45.58924" lon="5.48528">
        <ele>406.33728294776</ele>
        <time>2016-06-26T12:49:37Z</time>
      </trkpt>
      <trkpt lat="45.58917" lon="5.48526">
        <ele>406.33728294776</ele>
        <time>2016-06-26T12:49:42Z</time>
      </trkpt>
      <trkpt lat="45.58904" lon="5.48522">
        <ele>405.85889833195</ele>
        <time>2016-06-26T12:49:52Z</time>
      </trkpt>
      <trkpt lat="45.58896" lon="5.48521">
        <ele>405.85889833195</ele>
        <time>2016-06-26T12:49:57Z</time>
      </trkpt>
      <trkpt lat="45.58874" lon="5.48516">
        <ele>405.55766888425</ele>
        <time>2016-06-26T12:50:12Z</time>
      </trkpt>
      <trkpt lat="45.58867" lon="5.48516">
        <ele>405.55766888425</ele>
        <time>2016-06-26T12:50:17Z</time>
      </trkpt>
      <trkpt lat="45.58856" lon="5.48507">
        <ele>405.1174459592</ele>
        <time>2016-06-26T12:50:27Z</time>
      </trkpt>
      <trkpt lat="45.58851" lon="5.485">
        <ele>405.1174459592</ele>
        <time>2016-06-26T12:50:32Z</time>
      </trkpt>
      <trkpt lat="45.58838" lon="5.48491">
        <ele>404.67796406181</ele>
        <time>2016-06-26T12:50:42Z</time>
      </trkpt>
      <trkpt lat="45.5883" lon="5.48491">
        <ele>404.67796406181</ele>
        <time>2016-06-26T12:50:47Z</time>
      </trkpt>
      <trkpt lat="45.58818" lon="5.48497">
        <ele>404.18128749502</ele>
        <time>2016-06-26T12:50:57Z</time>
      </trkpt>
      <trkpt lat="45.58812" lon="5.48497">
        <ele>404.18128749502</ele>
        <time>2016-06-26T12:51:02Z</time>
      </trkpt>
      <trkpt lat="45.58799" lon="5.48487">
        <ele>403.79001028261</ele>
        <time>2016-06-26T12:51:12Z</time>
      </trkpt>
      <trkpt lat="45.58793" lon="5.48481">
        <ele>403.79001028261</ele>
        <time>2016-06-26T12:51:17Z</time>
      </trkpt>
      <trkpt lat="45.5878" lon="5.48473">
        <ele>403.45268275211</ele>
        <time>2016-06-26T12:51:27Z</time>
      </trkpt>
      <trkpt lat="45.58774" lon="5.48469">
        <ele>403.45268275211</ele>
        <time>2016-06-26T12:51:32Z</time>
      </trkpt>
      <trkpt lat="45.58765" lon="5.4846">
        <ele>403.43848516096</ele>
        <time>2016-06-26T12:51:42Z</time>
      </trkpt>
      <trkpt lat="45.58757" lon="5.48455">
        <ele>403.43848516096</ele>
        <time>2016-06-26T12:51:47Z</time>
      </trkpt>
      <trkpt lat="45.58747" lon="5.48445">
        <ele>402.94386831562</ele>
        <time>2016-06-26T12:51:57Z</time>
      </trkpt>
      <trkpt lat="45.58742" lon="5.48441">
        <ele>402.94386831562</ele>
        <time>2016-06-26T12:52:02Z</time>
      </trkpt>
      <trkpt lat="45.58731" lon="5.4843">
        <ele>402.55144937605</ele>
        <time>2016-06-26T12:52:12Z</time>
      </trkpt>
      <trkpt lat="45.58726" lon="5.48424">
        <ele>402.55144937605</ele>
        <time>2016-06-26T12:52:17Z</time>
      </trkpt>
      <trkpt lat="45.58707" lon="5.48409">
        <ele>402.35398831834</ele>
        <time>2016-06-26T12:52:32Z</time>
      </trkpt>
      <trkpt lat="45.58701" lon="5.48404">
        <ele>402.35398831834</ele>
        <time>2016-06-26T12:52:37Z</time>
      </trkpt>
      <trkpt lat="45.58697" lon="5.48402">
        <ele>402.24951742663</ele>
        <time>2016-06-26T12:52:47Z</time>
      </trkpt>
      <trkpt lat="45.58693" lon="5.48397">
        <ele>402.24951742663</ele>
        <time>2016-06-26T12:52:52Z</time>
      </trkpt>
      <trkpt lat="45.58682" lon="5.48387">
        <ele>401.73976922394</ele>
        <time>2016-06-26T12:53:02Z</time>
      </trkpt>
      <trkpt lat="45.58677" lon="5.48381">
        <ele>401.73976922394</ele>
        <time>2016-06-26T12:53:07Z</time>
      </trkpt>
      <trkpt lat="45.58666" lon="5.48367">
        <ele>401.32974643266</ele>
        <time>2016-06-26T12:53:17Z</time>
      </trkpt>
      <trkpt lat="45.58661" lon="5.4836">
        <ele>401.32974643266</ele>
        <time>2016-06-26T12:53:22Z</time>
      </trkpt>
      <trkpt lat="45.58652" lon="5.48345">
        <ele>400.49269666712</ele>
        <time>2016-06-26T12:53:32Z</time>
      </trkpt>
      <trkpt lat="45.58647" lon="5.48339">
        <ele>400.49269666712</ele>
        <time>2016-06-26T12:53:37Z</time>
      </trkpt>
      <trkpt lat="45.58639" lon="5.48324">
        <ele>399.85140726737</ele>
        <time>2016-06-26T12:53:47Z</time>
      </trkpt>
      <trkpt lat="45.58635" lon="5.48315">
        <ele>399.85140726737</ele>
        <time>2016-06-26T12:53:52Z</time>
      </trkpt>
      <trkpt lat="45.58624" lon="5.4829">
        <ele>399.20415828459</ele>
        <time>2016-06-26T12:54:07Z</time>
      </trkpt>
      <trkpt lat="45.58621" lon="5.48283">
        <ele>399.20415828459</ele>
        <time>2016-06-26T12:54:12Z</time>
      </trkpt>
      <trkpt lat="45.58613" lon="5.48266">
        <ele>398.75315749398</ele>
        <time>2016-06-26T12:54:22Z</time>
      </trkpt>
      <trkpt lat="45.58609" lon="5.48258">
        <ele>398.75315749398</ele>
        <time>2016-06-26T12:54:27Z</time>
      </trkpt>
      <trkpt lat="45.58602" lon="5.48241">
        <ele>398.62755767598</ele>
        <time>2016-06-26T12:54:37Z</time>
      </trkpt>
      <trkpt lat="45.58594" lon="5.48233">
        <ele>398.68670801509</ele>
        <time>2016-06-26T12:54:42Z</time>
      </trkpt>
      <trkpt lat="45.58581" lon="5.48216">
        <ele>398.71330548921</ele>
        <time>2016-06-26T12:54:52Z</time>
      </trkpt>
      <trkpt lat="45.58576" lon="5.4821">
        <ele>398.71330548921</ele>
        <time>2016-06-26T12:54:57Z</time>
      </trkpt>
      <trkpt lat="45.58567" lon="5.48199">
        <ele>398.86638489908</ele>
        <time>2016-06-26T12:55:07Z</time>
      </trkpt>
      <trkpt lat="45.58562" lon="5.48192">
        <ele>398.86638489908</ele>
        <time>2016-06-26T12:55:12Z</time>
      </trkpt>
      <trkpt lat="45.58556" lon="5.48189">
        <ele>399.42265551183</ele>
        <time>2016-06-26T12:55:22Z</time>
      </trkpt>
      <trkpt lat="45.58557" lon="5.48188">
        <ele>399.42265551183</ele>
        <time>2016-06-26T12:55:27Z</time>
      </trkpt>
      <trkpt lat="45.58557" lon="5.48188">
        <ele>399.42265551183</ele>
        <time>2016-06-26T12:55:37Z</time>
      </trkpt>
      <trkpt lat="45.58556" lon="5.48191">
        <ele>399.42265551183</ele>
        <time>2016-06-26T12:55:42Z</time>
      </trkpt>
      <trkpt lat="45.58565" lon="5.48199">
        <ele>399.94565348878</ele>
        <time>2016-06-26T12:55:52Z</time>
      </trkpt>
      <trkpt lat="45.5857" lon="5.48204">
        <ele>399.94565348878</ele>
        <time>2016-06-26T12:55:57Z</time>
      </trkpt>
      <trkpt lat="45.5858" lon="5.48219">
        <ele>400.18961802645</ele>
        <time>2016-06-26T12:56:07Z</time>
      </trkpt>
      <trkpt lat="45.58585" lon="5.48225">
        <ele>400.18961802645</ele>
        <time>2016-06-26T12:56:12Z</time>
      </trkpt>
      <trkpt lat="45.58591" lon="5.4822">
        <ele>400.08617777873</ele>
        <time>2016-06-26T12:56:22Z</time>
      </trkpt>
      <trkpt lat="45.58589" lon="5.48213">
        <ele>400.08617777873</ele>
        <time>2016-06-26T12:56:27Z</time>
      </trkpt>
      <trkpt lat="45.58584" lon="5.48195">
        <ele>399.34241528988</ele>
        <time>2016-06-26T12:56:37Z</time>
      </trkpt>
      <trkpt lat="45.58582" lon="5.48186">
        <ele>399.34241528988</ele>
        <time>2016-06-26T12:56:42Z</time>
      </trkpt>
      <trkpt lat="45.58576" lon="5.48166">
        <ele>398.74077451199</ele>
        <time>2016-06-26T12:56:52Z</time>
      </trkpt>
      <trkpt lat="45.58573" lon="5.48158">
        <ele>398.74077451199</ele>
        <time>2016-06-26T12:56:57Z</time>
      </trkpt>
      <trkpt lat="45.58562" lon="5.48134">
        <ele>397.92502374252</ele>
        <time>2016-06-26T12:57:12Z</time>
      </trkpt>
      <trkpt lat="45.58557" lon="5.48126">
        <ele>397.92502374252</ele>
        <time>2016-06-26T12:57:17Z</time>
      </trkpt>
      <trkpt lat="45.58549" lon="5.4811">
        <ele>397.27187701412</ele>
        <time>2016-06-26T12:57:27Z</time>
      </trkpt>
      <trkpt lat="45.58546" lon="5.48101">
        <ele>397.27187701412</ele>
        <time>2016-06-26T12:57:32Z</time>
      </trkpt>
      <trkpt lat="45.5854" lon="5.48083">
        <ele>396.36615765871</ele>
        <time>2016-06-26T12:57:42Z</time>
      </trkpt>
      <trkpt lat="45.58537" lon="5.48075">
        <ele>396.36615765871</ele>
        <time>2016-06-26T12:57:47Z</time>
      </trkpt>
      <trkpt lat="45.58531" lon="5.48061">
        <ele>395.12655287799</ele>
        <time>2016-06-26T12:57:57Z</time>
      </trkpt>
      <trkpt lat="45.58526" lon="5.48054">
        <ele>395.12655287799</ele>
        <time>2016-06-26T12:58:02Z</time>
      </trkpt>
      <trkpt lat="45.5851" lon="5.4803">
        <ele>393.91101126265</ele>
        <time>2016-06-26T12:58:12Z</time>
      </trkpt>
      <trkpt lat="45.58503" lon="5.48019">
        <ele>392.99348752019</ele>
        <time>2016-06-26T12:58:17Z</time>
      </trkpt>
      <trkpt lat="45.58488" lon="5.47998">
        <ele>392.13700523188</ele>
        <time>2016-06-26T12:58:32Z</time>
      </trkpt>
      <trkpt lat="45.58481" lon="5.47992">
        <ele>392.13700523188</ele>
        <time>2016-06-26T12:58:37Z</time>
      </trkpt>
      <trkpt lat="45.58472" lon="5.47985">
        <ele>390.93448250433</ele>
        <time>2016-06-26T12:58:47Z</time>
      </trkpt>
      <trkpt lat="45.58467" lon="5.47977">
        <ele>390.93448250433</ele>
        <time>2016-06-26T12:58:52Z</time>
      </trkpt>
      <trkpt lat="45.58453" lon="5.47968">
        <ele>390.03289952224</ele>
        <time>2016-06-26T12:59:02Z</time>
      </trkpt>
      <trkpt lat="45.58447" lon="5.47963">
        <ele>390.03289952224</ele>
        <time>2016-06-26T12:59:07Z</time>
      </trkpt>
      <trkpt lat="45.58436" lon="5.47948">
        <ele>389.02208161608</ele>
        <time>2016-06-26T12:59:17Z</time>
      </trkpt>
      <trkpt lat="45.58431" lon="5.47942">
        <ele>389.02208161608</ele>
        <time>2016-06-26T12:59:22Z</time>
      </trkpt>
      <trkpt lat="45.58422" lon="5.47929">
        <ele>387.36375908773</ele>
        <time>2016-06-26T12:59:32Z</time>
      </trkpt>
      <trkpt lat="45.58418" lon="5.47922">
        <ele>387.36375908773</ele>
        <time>2016-06-26T12:59:37Z</time>
      </trkpt>
      <trkpt lat="45.58407" lon="5.479">
        <ele>385.49772623932</ele>
        <time>2016-06-26T12:59:52Z</time>
      </trkpt>
      <trkpt lat="45.58404" lon="5.47891">
        <ele>385.49772623932</ele>
        <time>2016-06-26T12:59:57Z</time>
      </trkpt>
      <trkpt lat="45.58403" lon="5.47872">
        <ele>383.73115281849</ele>
        <time>2016-06-26T13:00:07Z</time>
      </trkpt>
      <trkpt lat="45.58403" lon="5.47862">
        <ele>383.73115281849</ele>
        <time>2016-06-26T13:00:12Z</time>
      </trkpt>
      <trkpt lat="45.58403" lon="5.47837">
        <ele>382.79508114097</ele>
        <time>2016-06-26T13:00:22Z</time>
      </trkpt>
      <trkpt lat="45.58403" lon="5.47827">
        <ele>382.79508114097</ele>
        <time>2016-06-26T13:00:27Z</time>
      </trkpt>
      <trkpt lat="45.58401" lon="5.47807">
        <ele>382.37012154403</ele>
        <time>2016-06-26T13:00:37Z</time>
      </trkpt>
      <trkpt lat="45.584" lon="5.47798">
        <ele>382.37012154403</ele>
        <time>2016-06-26T13:00:42Z</time>
      </trkpt>
      <trkpt lat="45.58395" lon="5.47779">
        <ele>382.0003554499</ele>
        <time>2016-06-26T13:00:52Z</time>
      </trkpt>
      <trkpt lat="45.58391" lon="5.47768">
        <ele>382.0003554499</ele>
        <time>2016-06-26T13:00:57Z</time>
      </trkpt>
      <trkpt lat="45.58385" lon="5.47758">
        <ele>381.1622886972</ele>
        <time>2016-06-26T13:01:07Z</time>
      </trkpt>
      <trkpt lat="45.58383" lon="5.47753">
        <ele>381.1622886972</ele>
        <time>2016-06-26T13:01:12Z</time>
      </trkpt>
      <trkpt lat="45.58371" lon="5.47717">
        <ele>379.97743051193</ele>
        <time>2016-06-26T13:01:22Z</time>
      </trkpt>
      <trkpt lat="45.58368" lon="5.47698">
        <ele>379.53926238681</ele>
        <time>2016-06-26T13:01:27Z</time>
      </trkpt>
      <trkpt lat="45.58371" lon="5.47663">
        <ele>378.45215812355</ele>
        <time>2016-06-26T13:01:37Z</time>
      </trkpt>
      <trkpt lat="45.58366" lon="5.47648">
        <ele>377.68734961444</ele>
        <time>2016-06-26T13:01:42Z</time>
      </trkpt>
      <trkpt lat="45.58358" lon="5.47616">
        <ele>377.39441231188</ele>
        <time>2016-06-26T13:01:52Z</time>
      </trkpt>
      <trkpt lat="45.58356" lon="5.47601">
        <ele>377.11972877624</ele>
        <time>2016-06-26T13:01:57Z</time>
      </trkpt>
      <trkpt lat="45.58354" lon="5.47575">
        <ele>377.06260869336</ele>
        <time>2016-06-26T13:02:07Z</time>
      </trkpt>
      <trkpt lat="45.58356" lon="5.47556">
        <ele>377.32062694262</ele>
        <time>2016-06-26T13:02:12Z</time>
      </trkpt>
      <trkpt lat="45.58361" lon="5.47485">
        <ele>377.5797854095</ele>
        <time>2016-06-26T13:02:27Z</time>
      </trkpt>
      <trkpt lat="45.58361" lon="5.47469">
        <ele>378.03912468494</ele>
        <time>2016-06-26T13:02:32Z</time>
      </trkpt>
      <trkpt lat="45.58356" lon="5.47444">
        <ele>379.32925458422</ele>
        <time>2016-06-26T13:02:42Z</time>
      </trkpt>
      <trkpt lat="45.58354" lon="5.47434">
        <ele>379.32925458422</ele>
        <time>2016-06-26T13:02:47Z</time>
      </trkpt>
      <trkpt lat="45.5835" lon="5.47418">
        <ele>381.54217224886</ele>
        <time>2016-06-26T13:02:57Z</time>
      </trkpt>
      <trkpt lat="45.58348" lon="5.4741">
        <ele>381.54217224886</ele>
        <time>2016-06-26T13:03:02Z</time>
      </trkpt>
      <trkpt lat="45.58355" lon="5.47399">
        <ele>383.49238436389</ele>
        <time>2016-06-26T13:03:12Z</time>
      </trkpt>
      <trkpt lat="45.58356" lon="5.47391">
        <ele>383.49238436389</ele>
        <time>2016-06-26T13:03:17Z</time>
      </trkpt>
      <trkpt lat="45.58361" lon="5.47373">
        <ele>386.05659552302</ele>
        <time>2016-06-26T13:03:27Z</time>
      </trkpt>
      <trkpt lat="45.58366" lon="5.47367">
        <ele>386.05659552302</ele>
        <time>2016-06-26T13:03:32Z</time>
      </trkpt>
      <trkpt lat="45.58363" lon="5.47346">
        <ele>388.79169063549</ele>
        <time>2016-06-26T13:03:42Z</time>
      </trkpt>
      <trkpt lat="45.58361" lon="5.47328">
        <ele>391.31554047963</ele>
        <time>2016-06-26T13:03:47Z</time>
      </trkpt>
      <trkpt lat="45.58351" lon="5.47306">
        <ele>393.49095667492</ele>
        <time>2016-06-26T13:03:57Z</time>
      </trkpt>
      <trkpt lat="45.58342" lon="5.47279">
        <ele>395.75396726485</ele>
        <time>2016-06-26T13:04:02Z</time>
      </trkpt>
      <trkpt lat="45.58313" lon="5.4722">
        <ele>397.15382003088</ele>
        <time>2016-06-26T13:04:12Z</time>
      </trkpt>
      <trkpt lat="45.58302" lon="5.47197">
        <ele>398.95943351612</ele>
        <time>2016-06-26T13:04:17Z</time>
      </trkpt>
      <trkpt lat="45.5829" lon="5.47167">
        <ele>400.93324379241</ele>
        <time>2016-06-26T13:04:32Z</time>
      </trkpt>
      <trkpt lat="45.58288" lon="5.47156">
        <ele>400.93324379241</ele>
        <time>2016-06-26T13:04:37Z</time>
      </trkpt>
      <trkpt lat="45.58286" lon="5.47137">
        <ele>403.70508926414</ele>
        <time>2016-06-26T13:04:47Z</time>
      </trkpt>
      <trkpt lat="45.58285" lon="5.47127">
        <ele>403.70508926414</ele>
        <time>2016-06-26T13:04:52Z</time>
      </trkpt>
      <trkpt lat="45.58278" lon="5.47113">
        <ele>406.9197549193</ele>
        <time>2016-06-26T13:05:02Z</time>
      </trkpt>
      <trkpt lat="45.58274" lon="5.47107">
        <ele>406.9197549193</ele>
        <time>2016-06-26T13:05:07Z</time>
      </trkpt>
      <trkpt lat="45.58266" lon="5.47092">
        <ele>409.75708462696</ele>
        <time>2016-06-26T13:05:17Z</time>
      </trkpt>
      <trkpt lat="45.58261" lon="5.47086">
        <ele>409.75708462696</ele>
        <time>2016-06-26T13:05:22Z</time>
      </trkpt>
      <trkpt lat="45.58254" lon="5.47069">
        <ele>412.22221339346</ele>
        <time>2016-06-26T13:05:32Z</time>
      </trkpt>
      <trkpt lat="45.58251" lon="5.47059">
        <ele>412.22221339346</ele>
        <time>2016-06-26T13:05:37Z</time>
      </trkpt>
      <trkpt lat="45.58248" lon="5.47039">
        <ele>414.07615768918</ele>
        <time>2016-06-26T13:05:47Z</time>
      </trkpt>
      <trkpt lat="45.58246" lon="5.47029">
        <ele>414.07615768918</ele>
        <time>2016-06-26T13:05:52Z</time>
      </trkpt>
      <trkpt lat="45.58243" lon="5.47012">
        <ele>415.79114632709</ele>
        <time>2016-06-26T13:06:02Z</time>
      </trkpt>
      <trkpt lat="45.58241" lon="5.47006">
        <ele>415.79114632709</ele>
        <time>2016-06-26T13:06:07Z</time>
      </trkpt>
      <trkpt lat="45.58235" lon="5.46993">
        <ele>417.11358395623</ele>
        <time>2016-06-26T13:06:17Z</time>
      </trkpt>
      <trkpt lat="45.58231" lon="5.46987">
        <ele>417.11358395623</ele>
        <time>2016-06-26T13:06:22Z</time>
      </trkpt>
      <trkpt lat="45.58226" lon="5.46972">
        <ele>417.30542109131</ele>
        <time>2016-06-26T13:06:32Z</time>
      </trkpt>
      <trkpt lat="45.58225" lon="5.46963">
        <ele>417.30542109131</ele>
        <time>2016-06-26T13:06:37Z</time>
      </trkpt>
      <trkpt lat="45.58229" lon="5.46936">
        <ele>418.10726179573</ele>
        <time>2016-06-26T13:06:52Z</time>
      </trkpt>
      <trkpt lat="45.58235" lon="5.46928">
        <ele>418.10726179573</ele>
        <time>2016-06-26T13:06:57Z</time>
      </trkpt>
      <trkpt lat="45.58247" lon="5.46911">
        <ele>419.51627904399</ele>
        <time>2016-06-26T13:07:07Z</time>
      </trkpt>
      <trkpt lat="45.58252" lon="5.46904">
        <ele>419.51627904399</ele>
        <time>2016-06-26T13:07:12Z</time>
      </trkpt>
      <trkpt lat="45.58262" lon="5.46891">
        <ele>420.87982954622</ele>
        <time>2016-06-26T13:07:22Z</time>
      </trkpt>
      <trkpt lat="45.58268" lon="5.46885">
        <ele>420.87982954622</ele>
        <time>2016-06-26T13:07:27Z</time>
      </trkpt>
      <trkpt lat="45.58277" lon="5.46872">
        <ele>422.5446458906</ele>
        <time>2016-06-26T13:07:37Z</time>
      </trkpt>
      <trkpt lat="45.58283" lon="5.46866">
        <ele>422.5446458906</ele>
        <time>2016-06-26T13:07:42Z</time>
      </trkpt>
      <trkpt lat="45.58297" lon="5.46851">
        <ele>424.71602317979</ele>
        <time>2016-06-26T13:07:52Z</time>
      </trkpt>
      <trkpt lat="45.58298" lon="5.46842">
        <ele>424.71602317979</ele>
        <time>2016-06-26T13:07:57Z</time>
      </trkpt>
      <trkpt lat="45.58302" lon="5.46832">
        <ele>426.3147400933</ele>
        <time>2016-06-26T13:08:07Z</time>
      </trkpt>
      <trkpt lat="45.58302" lon="5.46826">
        <ele>426.3147400933</ele>
        <time>2016-06-26T13:08:12Z</time>
      </trkpt>
      <trkpt lat="45.58304" lon="5.46807">
        <ele>427.94225549207</ele>
        <time>2016-06-26T13:08:22Z</time>
      </trkpt>
      <trkpt lat="45.58307" lon="5.46796">
        <ele>427.94225549207</ele>
        <time>2016-06-26T13:08:27Z</time>
      </trkpt>
      <trkpt lat="45.58312" lon="5.46765">
        <ele>428.87333188412</ele>
        <time>2016-06-26T13:08:42Z</time>
      </trkpt>
      <trkpt lat="45.58313" lon="5.46754">
        <ele>428.87333188412</ele>
        <time>2016-06-26T13:08:47Z</time>
      </trkpt>
      <trkpt lat="45.58315" lon="5.46734">
        <ele>429.66305667342</ele>
        <time>2016-06-26T13:08:57Z</time>
      </trkpt>
      <trkpt lat="45.58316" lon="5.46725">
        <ele>429.66305667342</ele>
        <time>2016-06-26T13:09:02Z</time>
      </trkpt>
      <trkpt lat="45.58323" lon="5.46707">
        <ele>430.52364658206</ele>
        <time>2016-06-26T13:09:12Z</time>
      </trkpt>
      <trkpt lat="45.58327" lon="5.46696">
        <ele>430.52364658206</ele>
        <time>2016-06-26T13:09:17Z</time>
      </trkpt>
      <trkpt lat="45.58332" lon="5.46676">
        <ele>431.33461872317</ele>
        <time>2016-06-26T13:09:27Z</time>
      </trkpt>
      <trkpt lat="45.58331" lon="5.46668">
        <ele>431.33461872317</ele>
        <time>2016-06-26T13:09:32Z</time>
      </trkpt>
      <trkpt lat="45.58338" lon="5.46654">
        <ele>432.57545922406</ele>
        <time>2016-06-26T13:09:42Z</time>
      </trkpt>
      <trkpt lat="45.58339" lon="5.46647">
        <ele>432.57545922406</ele>
        <time>2016-06-26T13:09:47Z</time>
      </trkpt>
      <trkpt lat="45.58344" lon="5.46627">
        <ele>433.26263861256</ele>
        <time>2016-06-26T13:09:57Z</time>
      </trkpt>
      <trkpt lat="45.5835" lon="5.46619">
        <ele>433.26263861256</ele>
        <time>2016-06-26T13:10:02Z</time>
      </trkpt>
      <trkpt lat="45.58364" lon="5.46609">
        <ele>434.35998033137</ele>
        <time>2016-06-26T13:10:12Z</time>
      </trkpt>
      <trkpt lat="45.58371" lon="5.46603">
        <ele>434.35998033137</ele>
        <time>2016-06-26T13:10:17Z</time>
      </trkpt>
      <trkpt lat="45.58391" lon="5.46587">
        <ele>435.83714153883</ele>
        <time>2016-06-26T13:10:32Z</time>
      </trkpt>
      <trkpt lat="45.58397" lon="5.4658">
        <ele>435.83714153883</ele>
        <time>2016-06-26T13:10:37Z</time>
      </trkpt>
      <trkpt lat="45.58436" lon="5.46537">
        <ele>437.07417810553</ele>
        <time>2016-06-26T13:10:47Z</time>
      </trkpt>
      <trkpt lat="45.58459" lon="5.46527">
        <ele>438.43416816387</ele>
        <time>2016-06-26T13:10:52Z</time>
      </trkpt>
      <trkpt lat="45.58463" lon="5.46529">
        <ele>438.43416816387</ele>
        <time>2016-06-26T13:11:02Z</time>
      </trkpt>
      <trkpt lat="45.58464" lon="5.46529">
        <ele>438.43416816387</ele>
        <time>2016-06-26T13:11:07Z</time>
      </trkpt>
      <trkpt lat="45.58478" lon="5.4653">
        <ele>440.35413299378</ele>
        <time>2016-06-26T13:11:17Z</time>
      </trkpt>
      <trkpt lat="45.58487" lon="5.46527">
        <ele>442.3295986563</ele>
        <time>2016-06-26T13:11:22Z</time>
      </trkpt>
      <trkpt lat="45.58503" lon="5.46513">
        <ele>444.33981658446</ele>
        <time>2016-06-26T13:11:32Z</time>
      </trkpt>
      <trkpt lat="45.58505" lon="5.46505">
        <ele>444.33981658446</ele>
        <time>2016-06-26T13:11:37Z</time>
      </trkpt>
      <trkpt lat="45.58507" lon="5.46487">
        <ele>445.91879767142</ele>
        <time>2016-06-26T13:11:47Z</time>
      </trkpt>
      <trkpt lat="45.58508" lon="5.46479">
        <ele>445.91879767142</ele>
        <time>2016-06-26T13:11:52Z</time>
      </trkpt>
      <trkpt lat="45.5851" lon="5.46457">
        <ele>446.7657694887</ele>
        <time>2016-06-26T13:12:07Z</time>
      </trkpt>
      <trkpt lat="45.58511" lon="5.46448">
        <ele>446.7657694887</ele>
        <time>2016-06-26T13:12:12Z</time>
      </trkpt>
      <trkpt lat="45.58512" lon="5.46429">
        <ele>447.39679070246</ele>
        <time>2016-06-26T13:12:22Z</time>
      </trkpt>
      <trkpt lat="45.5851" lon="5.46421">
        <ele>447.39679070246</ele>
        <time>2016-06-26T13:12:27Z</time>
      </trkpt>
      <trkpt lat="45.58509" lon="5.46404">
        <ele>448.04569257091</ele>
        <time>2016-06-26T13:12:37Z</time>
      </trkpt>
      <trkpt lat="45.58509" lon="5.46396">
        <ele>448.04569257091</ele>
        <time>2016-06-26T13:12:42Z</time>
      </trkpt>
      <trkpt lat="45.5851" lon="5.46382">
        <ele>449.13089196941</ele>
        <time>2016-06-26T13:12:52Z</time>
      </trkpt>
      <trkpt lat="45.58507" lon="5.46375">
        <ele>449.13089196941</ele>
        <time>2016-06-26T13:12:57Z</time>
      </trkpt>
      <trkpt lat="45.58508" lon="5.46356">
        <ele>448.97810233046</ele>
        <time>2016-06-26T13:13:07Z</time>
      </trkpt>
      <trkpt lat="45.58509" lon="5.46347">
        <ele>448.97810233046</ele>
        <time>2016-06-26T13:13:12Z</time>
      </trkpt>
      <trkpt lat="45.58509" lon="5.46323">
        <ele>449.35409592547</ele>
        <time>2016-06-26T13:13:22Z</time>
      </trkpt>
      <trkpt lat="45.58508" lon="5.46314">
        <ele>449.35409592547</ele>
        <time>2016-06-26T13:13:27Z</time>
      </trkpt>
      <trkpt lat="45.58507" lon="5.46295">
        <ele>449.63185690829</ele>
        <time>2016-06-26T13:13:37Z</time>
      </trkpt>
      <trkpt lat="45.58506" lon="5.46285">
        <ele>449.63185690829</ele>
        <time>2016-06-26T13:13:42Z</time>
      </trkpt>
      <trkpt lat="45.58503" lon="5.46257">
        <ele>449.6342321019</ele>
        <time>2016-06-26T13:13:57Z</time>
      </trkpt>
      <trkpt lat="45.58502" lon="5.46248">
        <ele>449.6342321019</ele>
        <time>2016-06-26T13:14:02Z</time>
      </trkpt>
      <trkpt lat="45.585" lon="5.46228">
        <ele>449.4428472664</ele>
        <time>2016-06-26T13:14:12Z</time>
      </trkpt>
      <trkpt lat="45.58498" lon="5.46218">
        <ele>449.4428472664</ele>
        <time>2016-06-26T13:14:17Z</time>
      </trkpt>
      <trkpt lat="45.58497" lon="5.462">
        <ele>449.11945684999</ele>
        <time>2016-06-26T13:14:27Z</time>
      </trkpt>
      <trkpt lat="45.58496" lon="5.4619">
        <ele>449.11945684999</ele>
        <time>2016-06-26T13:14:32Z</time>
      </trkpt>
      <trkpt lat="45.58494" lon="5.46171">
        <ele>448.92338567457</ele>
        <time>2016-06-26T13:14:42Z</time>
      </trkpt>
      <trkpt lat="45.58493" lon="5.46161">
        <ele>448.92338567457</ele>
        <time>2016-06-26T13:14:47Z</time>
      </trkpt>
      <trkpt lat="45.58493" lon="5.46141">
        <ele>448.60454275551</ele>
        <time>2016-06-26T13:14:57Z</time>
      </trkpt>
      <trkpt lat="45.58493" lon="5.46131">
        <ele>448.60454275551</ele>
        <time>2016-06-26T13:15:02Z</time>
      </trkpt>
      <trkpt lat="45.58491" lon="5.46113">
        <ele>448.27737787873</ele>
        <time>2016-06-26T13:15:12Z</time>
      </trkpt>
      <trkpt lat="45.58491" lon="5.46104">
        <ele>448.27737787873</ele>
        <time>2016-06-26T13:15:17Z</time>
      </trkpt>
      <trkpt lat="45.58498" lon="5.4608">
        <ele>447.62998148015</ele>
        <time>2016-06-26T13:15:32Z</time>
      </trkpt>
      <trkpt lat="45.58503" lon="5.46077">
        <ele>447.62998148015</ele>
        <time>2016-06-26T13:15:37Z</time>
      </trkpt>
      <trkpt lat="45.58515" lon="5.46068">
        <ele>446.97945858057</ele>
        <time>2016-06-26T13:15:47Z</time>
      </trkpt>
      <trkpt lat="45.58521" lon="5.46063">
        <ele>446.97945858057</ele>
        <time>2016-06-26T13:15:52Z</time>
      </trkpt>
      <trkpt lat="45.58531" lon="5.46053">
        <ele>446.33133263216</ele>
        <time>2016-06-26T13:16:02Z</time>
      </trkpt>
      <trkpt lat="45.58536" lon="5.46048">
        <ele>446.33133263216</ele>
        <time>2016-06-26T13:16:07Z</time>
      </trkpt>
      <trkpt lat="45.58546" lon="5.46033">
        <ele>445.48887503407</ele>
        <time>2016-06-26T13:16:17Z</time>
      </trkpt>
      <trkpt lat="45.58551" lon="5.46027">
        <ele>445.48887503407</ele>
        <time>2016-06-26T13:16:22Z</time>
      </trkpt>
      <trkpt lat="45.5856" lon="5.46013">
        <ele>445.35109499147</ele>
        <time>2016-06-26T13:16:32Z</time>
      </trkpt>
      <trkpt lat="45.58564" lon="5.46006">
        <ele>445.35109499147</ele>
        <time>2016-06-26T13:16:37Z</time>
      </trkpt>
      <trkpt lat="45.58576" lon="5.45996">
        <ele>444.81779397679</ele>
        <time>2016-06-26T13:16:47Z</time>
      </trkpt>
      <trkpt lat="45.58583" lon="5.45989">
        <ele>444.81779397679</ele>
        <time>2016-06-26T13:16:52Z</time>
      </trkpt>
      <trkpt lat="45.58585" lon="5.45987">
        <ele>444.35494103021</ele>
        <time>2016-06-26T13:17:02Z</time>
      </trkpt>
      <trkpt lat="45.58592" lon="5.45981">
        <ele>444.35494103021</ele>
        <time>2016-06-26T13:17:07Z</time>
      </trkpt>
      <trkpt lat="45.58603" lon="5.45969">
        <ele>444.1489771562</ele>
        <time>2016-06-26T13:17:17Z</time>
      </trkpt>
      <trkpt lat="45.58608" lon="5.45964">
        <ele>444.1489771562</ele>
        <time>2016-06-26T13:17:22Z</time>
      </trkpt>
      <trkpt lat="45.5862" lon="5.45952">
        <ele>443.04598763501</ele>
        <time>2016-06-26T13:17:32Z</time>
      </trkpt>
      <trkpt lat="45.58626" lon="5.45947">
        <ele>443.04598763501</ele>
        <time>2016-06-26T13:17:37Z</time>
      </trkpt>
      <trkpt lat="45.58637" lon="5.45931">
        <ele>442.24176417329</ele>
        <time>2016-06-26T13:17:47Z</time>
      </trkpt>
      <trkpt lat="45.58642" lon="5.45923">
        <ele>442.24176417329</ele>
        <time>2016-06-26T13:17:52Z</time>
      </trkpt>
      <trkpt lat="45.58657" lon="5.45903">
        <ele>441.89215925889</ele>
        <time>2016-06-26T13:18:07Z</time>
      </trkpt>
      <trkpt lat="45.58663" lon="5.45897">
        <ele>441.89215925889</ele>
        <time>2016-06-26T13:18:12Z</time>
      </trkpt>
      <trkpt lat="45.58673" lon="5.45882">
        <ele>441.37638294092</ele>
        <time>2016-06-26T13:18:22Z</time>
      </trkpt>
      <trkpt lat="45.58677" lon="5.45875">
        <ele>441.37638294092</ele>
        <time>2016-06-26T13:18:27Z</time>
      </trkpt>
      <trkpt lat="45.58688" lon="5.45861">
        <ele>440.2925145458</ele>
        <time>2016-06-26T13:18:37Z</time>
      </trkpt>
      <trkpt lat="45.58693" lon="5.45853">
        <ele>440.2925145458</ele>
        <time>2016-06-26T13:18:42Z</time>
      </trkpt>
      <trkpt lat="45.58675" lon="5.45842">
        <ele>438.67312596876</ele>
        <time>2016-06-26T13:18:52Z</time>
      </trkpt>
      <trkpt lat="45.58671" lon="5.4584">
        <ele>438.67312596876</ele>
        <time>2016-06-26T13:18:57Z</time>
      </trkpt>
      <trkpt lat="45.58658" lon="5.45836">
        <ele>436.86680075881</ele>
        <time>2016-06-26T13:19:07Z</time>
      </trkpt>
      <trkpt lat="45.58653" lon="5.45836">
        <ele>436.86680075881</ele>
        <time>2016-06-26T13:19:12Z</time>
      </trkpt>
      <trkpt lat="45.5864" lon="5.45831">
        <ele>436.22008179083</ele>
        <time>2016-06-26T13:19:22Z</time>
      </trkpt>
      <trkpt lat="45.58631" lon="5.45829">
        <ele>436.22008179083</ele>
        <time>2016-06-26T13:19:27Z</time>
      </trkpt>
      <trkpt lat="45.58631" lon="5.45828">
        <ele>435.1670216108</ele>
        <time>2016-06-26T13:19:42Z</time>
      </trkpt>
      <trkpt lat="45.58631" lon="5.45829">
        <ele>435.1670216108</ele>
        <time>2016-06-26T13:19:47Z</time>
      </trkpt>
      <trkpt lat="45.58631" lon="5.45829">
        <ele>435.1670216108</ele>
        <time>2016-06-26T13:19:57Z</time>
      </trkpt>
      <trkpt lat="45.58631" lon="5.45829">
        <ele>435.1670216108</ele>
        <time>2016-06-26T13:20:02Z</time>
      </trkpt>
      <trkpt lat="45.58631" lon="5.45829">
        <ele>435.1670216108</ele>
        <time>2016-06-26T13:20:12Z</time>
      </trkpt>
      <trkpt lat="45.58631" lon="5.45829">
        <ele>435.1670216108</ele>
        <time>2016-06-26T13:20:17Z</time>
      </trkpt>
      <trkpt lat="45.58631" lon="5.45829">
        <ele>435.1670216108</ele>
        <time>2016-06-26T13:20:27Z</time>
      </trkpt>
      <trkpt lat="45.58628" lon="5.45828">
        <ele>435.1670216108</ele>
        <time>2016-06-26T13:20:32Z</time>
      </trkpt>
      <trkpt lat="45.58618" lon="5.45825">
        <ele>434.13113411576</ele>
        <time>2016-06-26T13:20:42Z</time>
      </trkpt>
      <trkpt lat="45.58612" lon="5.45821">
        <ele>434.13113411576</ele>
        <time>2016-06-26T13:20:47Z</time>
      </trkpt>
      <trkpt lat="45.58596" lon="5.45817">
        <ele>433.17315912128</ele>
        <time>2016-06-26T13:20:57Z</time>
      </trkpt>
      <trkpt lat="45.58588" lon="5.45814">
        <ele>433.17315912128</ele>
        <time>2016-06-26T13:21:02Z</time>
      </trkpt>
      <trkpt lat="45.58576" lon="5.45812">
        <ele>432.82456441609</ele>
        <time>2016-06-26T13:21:12Z</time>
      </trkpt>
      <trkpt lat="45.58577" lon="5.45813">
        <ele>432.82456441609</ele>
        <time>2016-06-26T13:21:17Z</time>
      </trkpt>
      <trkpt lat="45.58576" lon="5.45814">
        <ele>432.82456441609</ele>
        <time>2016-06-26T13:21:27Z</time>
      </trkpt>
      <trkpt lat="45.58576" lon="5.45814">
        <ele>432.82456441609</ele>
        <time>2016-06-26T13:21:32Z</time>
      </trkpt>
      <trkpt lat="45.58572" lon="5.45805">
        <ele>432.74006590904</ele>
        <time>2016-06-26T13:21:47Z</time>
      </trkpt>
      <trkpt lat="45.58573" lon="5.45804">
        <ele>432.74006590904</ele>
        <time>2016-06-26T13:21:52Z</time>
      </trkpt>
      <trkpt lat="45.58573" lon="5.45803">
        <ele>432.74006590904</ele>
        <time>2016-06-26T13:22:02Z</time>
      </trkpt>
      <trkpt lat="45.58573" lon="5.45803">
        <ele>432.74006590904</ele>
        <time>2016-06-26T13:22:07Z</time>
      </trkpt>
      <trkpt lat="45.58573" lon="5.45803">
        <ele>432.74006590904</ele>
        <time>2016-06-26T13:22:17Z</time>
      </trkpt>
      <trkpt lat="45.58573" lon="5.45803">
        <ele>432.74006590904</ele>
        <time>2016-06-26T13:22:22Z</time>
      </trkpt>
      <trkpt lat="45.58573" lon="5.45803">
        <ele>432.74006590904</ele>
        <time>2016-06-26T13:22:32Z</time>
      </trkpt>
      <trkpt lat="45.58573" lon="5.45803">
        <ele>432.74006590904</ele>
        <time>2016-06-26T13:22:37Z</time>
      </trkpt>
      <trkpt lat="45.58573" lon="5.45802">
        <ele>432.74006590904</ele>
        <time>2016-06-26T13:22:47Z</time>
      </trkpt>
      <trkpt lat="45.58573" lon="5.45802">
        <ele>432.74006590904</ele>
        <time>2016-06-26T13:22:52Z</time>
      </trkpt>
      <trkpt lat="45.58573" lon="5.45802">
        <ele>432.74006590904</ele>
        <time>2016-06-26T13:23:02Z</time>
      </trkpt>
      <trkpt lat="45.58573" lon="5.45802">
        <ele>432.74006590904</ele>
        <time>2016-06-26T13:23:07Z</time>
      </trkpt>
      <trkpt lat="45.58573" lon="5.45802">
        <ele>432.74006590904</ele>
        <time>2016-06-26T13:23:17Z</time>
      </trkpt>
      <trkpt lat="45.58573" lon="5.45802">
        <ele>432.74006590904</ele>
        <time>2016-06-26T13:23:22Z</time>
      </trkpt>
      <trkpt lat="45.58573" lon="5.45802">
        <ele>432.74006590904</ele>
        <time>2016-06-26T13:23:32Z</time>
      </trkpt>
      <trkpt lat="45.58571" lon="5.45803">
        <ele>432.74006590904</ele>
        <time>2016-06-26T13:23:37Z</time>
      </trkpt>
      <trkpt lat="45.58571" lon="5.45811">
        <ele>431.48919287306</ele>
        <time>2016-06-26T13:23:47Z</time>
      </trkpt>
      <trkpt lat="45.5857" lon="5.45812">
        <ele>431.48919287306</ele>
        <time>2016-06-26T13:23:52Z</time>
      </trkpt>
      <trkpt lat="45.58958" lon="5.45923">
        <ele>434.47967560237</ele>
        <time>2016-06-26T15:19:30Z</time>
      </trkpt>
      <trkpt lat="45.58969" lon="5.45918">
        <ele>434.61903604519</ele>
        <time>2016-06-26T15:19:35Z</time>
      </trkpt>
      <trkpt lat="45.58992" lon="5.45922">
        <ele>435.67645346217</ele>
        <time>2016-06-26T15:19:50Z</time>
      </trkpt>
      <trkpt lat="45.58999" lon="5.45921">
        <ele>435.67645346217</ele>
        <time>2016-06-26T15:19:55Z</time>
      </trkpt>
      <trkpt lat="45.59013" lon="5.45923">
        <ele>436.58763130747</ele>
        <time>2016-06-26T15:20:05Z</time>
      </trkpt>
      <trkpt lat="45.59019" lon="5.45925">
        <ele>436.58763130747</ele>
        <time>2016-06-26T15:20:10Z</time>
      </trkpt>
      <trkpt lat="45.59031" lon="5.45924">
        <ele>436.59735229597</ele>
        <time>2016-06-26T15:20:20Z</time>
      </trkpt>
      <trkpt lat="45.59034" lon="5.45923">
        <ele>436.59735229597</ele>
        <time>2016-06-26T15:20:25Z</time>
      </trkpt>
      <trkpt lat="45.59049" lon="5.45925">
        <ele>436.1756240708</ele>
        <time>2016-06-26T15:20:35Z</time>
      </trkpt>
      <trkpt lat="45.59056" lon="5.45925">
        <ele>436.1756240708</ele>
        <time>2016-06-26T15:20:40Z</time>
      </trkpt>
      <trkpt lat="45.59068" lon="5.45929">
        <ele>435.83111898263</ele>
        <time>2016-06-26T15:20:50Z</time>
      </trkpt>
      <trkpt lat="45.59074" lon="5.45929">
        <ele>435.83111898263</ele>
        <time>2016-06-26T15:20:55Z</time>
      </trkpt>
      <trkpt lat="45.59088" lon="5.45938">
        <ele>434.69462035389</ele>
        <time>2016-06-26T15:21:05Z</time>
      </trkpt>
      <trkpt lat="45.59094" lon="5.45945">
        <ele>434.69462035389</ele>
        <time>2016-06-26T15:21:10Z</time>
      </trkpt>
      <trkpt lat="45.5911" lon="5.45967">
        <ele>434.02370410719</ele>
        <time>2016-06-26T15:21:20Z</time>
      </trkpt>
      <trkpt lat="45.59115" lon="5.4597">
        <ele>434.02370410719</ele>
        <time>2016-06-26T15:21:25Z</time>
      </trkpt>
      <trkpt lat="45.59125" lon="5.45965">
        <ele>434.14634438332</ele>
        <time>2016-06-26T15:21:35Z</time>
      </trkpt>
      <trkpt lat="45.59128" lon="5.45951">
        <ele>434.18241609226</ele>
        <time>2016-06-26T15:21:40Z</time>
      </trkpt>
      <trkpt lat="45.59137" lon="5.45928">
        <ele>434.41186983326</ele>
        <time>2016-06-26T15:21:50Z</time>
      </trkpt>
      <trkpt lat="45.59142" lon="5.45917">
        <ele>434.41186983326</ele>
        <time>2016-06-26T15:21:55Z</time>
      </trkpt>
      <trkpt lat="45.59152" lon="5.45893">
        <ele>434.21440981701</ele>
        <time>2016-06-26T15:22:10Z</time>
      </trkpt>
      <trkpt lat="45.59157" lon="5.45885">
        <ele>434.21440981701</ele>
        <time>2016-06-26T15:22:15Z</time>
      </trkpt>
      <trkpt lat="45.59163" lon="5.4587">
        <ele>433.82347114015</ele>
        <time>2016-06-26T15:22:25Z</time>
      </trkpt>
      <trkpt lat="45.59167" lon="5.45862">
        <ele>433.82347114015</ele>
        <time>2016-06-26T15:22:30Z</time>
      </trkpt>
      <trkpt lat="45.59174" lon="5.45843">
        <ele>433.21084232618</ele>
        <time>2016-06-26T15:22:40Z</time>
      </trkpt>
      <trkpt lat="45.59177" lon="5.45833">
        <ele>433.21084232618</ele>
        <time>2016-06-26T15:22:45Z</time>
      </trkpt>
      <trkpt lat="45.59191" lon="5.45813">
        <ele>432.97063460615</ele>
        <time>2016-06-26T15:22:55Z</time>
      </trkpt>
      <trkpt lat="45.59198" lon="5.45812">
        <ele>432.97063460615</ele>
        <time>2016-06-26T15:23:00Z</time>
      </trkpt>
      <trkpt lat="45.59218" lon="5.45824">
        <ele>433.89721455293</ele>
        <time>2016-06-26T15:23:10Z</time>
      </trkpt>
      <trkpt lat="45.59228" lon="5.45829">
        <ele>434.95071416006</ele>
        <time>2016-06-26T15:23:15Z</time>
      </trkpt>
      <trkpt lat="45.59242" lon="5.45832">
        <ele>435.70047610655</ele>
        <time>2016-06-26T15:23:25Z</time>
      </trkpt>
      <trkpt lat="45.59249" lon="5.45833">
        <ele>435.70047610655</ele>
        <time>2016-06-26T15:23:30Z</time>
      </trkpt>
      <trkpt lat="45.59262" lon="5.45834">
        <ele>436.52650860407</ele>
        <time>2016-06-26T15:23:40Z</time>
      </trkpt>
      <trkpt lat="45.59269" lon="5.4583">
        <ele>436.52650860407</ele>
        <time>2016-06-26T15:23:45Z</time>
      </trkpt>
      <trkpt lat="45.59281" lon="5.45821">
        <ele>437.16100032357</ele>
        <time>2016-06-26T15:23:55Z</time>
      </trkpt>
      <trkpt lat="45.59286" lon="5.45814">
        <ele>437.16100032357</ele>
        <time>2016-06-26T15:24:00Z</time>
      </trkpt>
      <trkpt lat="45.59302" lon="5.45794">
        <ele>438.78304941937</ele>
        <time>2016-06-26T15:24:15Z</time>
      </trkpt>
      <trkpt lat="45.59307" lon="5.45788">
        <ele>438.78304941937</ele>
        <time>2016-06-26T15:24:20Z</time>
      </trkpt>
      <trkpt lat="45.59319" lon="5.45775">
        <ele>440.39276479104</ele>
        <time>2016-06-26T15:24:30Z</time>
      </trkpt>
      <trkpt lat="45.59325" lon="5.4577">
        <ele>440.39276479104</ele>
        <time>2016-06-26T15:24:35Z</time>
      </trkpt>
      <trkpt lat="45.59331" lon="5.45766">
        <ele>441.91401745322</ele>
        <time>2016-06-26T15:24:45Z</time>
      </trkpt>
      <trkpt lat="45.59332" lon="5.45765">
        <ele>441.91401745322</ele>
        <time>2016-06-26T15:24:50Z</time>
      </trkpt>
      <trkpt lat="45.59346" lon="5.45753">
        <ele>443.2044951651</ele>
        <time>2016-06-26T15:25:00Z</time>
      </trkpt>
      <trkpt lat="45.59367" lon="5.45745">
        <ele>444.47889719739</ele>
        <time>2016-06-26T15:25:05Z</time>
      </trkpt>
      <trkpt lat="45.59402" lon="5.45735">
        <ele>444.98511403341</ele>
        <time>2016-06-26T15:25:15Z</time>
      </trkpt>
      <trkpt lat="45.59415" lon="5.45731">
        <ele>445.55607655373</ele>
        <time>2016-06-26T15:25:20Z</time>
      </trkpt>
      <trkpt lat="45.59424" lon="5.45727">
        <ele>445.34936205518</ele>
        <time>2016-06-26T15:25:30Z</time>
      </trkpt>
      <trkpt lat="45.59426" lon="5.45722">
        <ele>445.34936205518</ele>
        <time>2016-06-26T15:25:35Z</time>
      </trkpt>
      <trkpt lat="45.59445" lon="5.45713">
        <ele>445.402473589</ele>
        <time>2016-06-26T15:25:50Z</time>
      </trkpt>
      <trkpt lat="45.59454" lon="5.45711">
        <ele>445.94106192228</ele>
        <time>2016-06-26T15:25:55Z</time>
      </trkpt>
      <trkpt lat="45.59501" lon="5.45703">
        <ele>446.56762894111</ele>
        <time>2016-06-26T15:26:05Z</time>
      </trkpt>
      <trkpt lat="45.59528" lon="5.45695">
        <ele>446.76957262115</ele>
        <time>2016-06-26T15:26:10Z</time>
      </trkpt>
      <trkpt lat="45.59572" lon="5.45682">
        <ele>447.02432436005</ele>
        <time>2016-06-26T15:26:20Z</time>
      </trkpt>
      <trkpt lat="45.59579" lon="5.4568">
        <ele>447.02432436005</ele>
        <time>2016-06-26T15:26:25Z</time>
      </trkpt>
      <trkpt lat="45.59588" lon="5.45678">
        <ele>446.86624655163</ele>
        <time>2016-06-26T15:26:35Z</time>
      </trkpt>
      <trkpt lat="45.59588" lon="5.45678">
        <ele>446.86624655163</ele>
        <time>2016-06-26T15:26:40Z</time>
      </trkpt>
      <trkpt lat="45.59612" lon="5.45671">
        <ele>446.48479114664</ele>
        <time>2016-06-26T15:26:50Z</time>
      </trkpt>
      <trkpt lat="45.59615" lon="5.45671">
        <ele>446.48479114664</ele>
        <time>2016-06-26T15:26:55Z</time>
      </trkpt>
      <trkpt lat="45.59629" lon="5.45668">
        <ele>446.32997442495</ele>
        <time>2016-06-26T15:27:05Z</time>
      </trkpt>
      <trkpt lat="45.59636" lon="5.45667">
        <ele>446.32997442495</ele>
        <time>2016-06-26T15:27:10Z</time>
      </trkpt>
      <trkpt lat="45.59653" lon="5.45665">
        <ele>446.34259072623</ele>
        <time>2016-06-26T15:27:20Z</time>
      </trkpt>
      <trkpt lat="45.59653" lon="5.45665">
        <ele>446.34259072623</ele>
        <time>2016-06-26T15:27:25Z</time>
      </trkpt>
      <trkpt lat="45.59672" lon="5.4566">
        <ele>446.04942468552</ele>
        <time>2016-06-26T15:27:40Z</time>
      </trkpt>
      <trkpt lat="45.5968" lon="5.4566">
        <ele>446.04942468552</ele>
        <time>2016-06-26T15:27:45Z</time>
      </trkpt>
      <trkpt lat="45.59694" lon="5.45658">
        <ele>445.79110932827</ele>
        <time>2016-06-26T15:27:55Z</time>
      </trkpt>
      <trkpt lat="45.597" lon="5.45657">
        <ele>445.79110932827</ele>
        <time>2016-06-26T15:28:00Z</time>
      </trkpt>
      <trkpt lat="45.59719" lon="5.45654">
        <ele>445.45084707921</ele>
        <time>2016-06-26T15:28:10Z</time>
      </trkpt>
      <trkpt lat="45.59726" lon="5.45654">
        <ele>445.45084707921</ele>
        <time>2016-06-26T15:28:15Z</time>
      </trkpt>
      <trkpt lat="45.59742" lon="5.45655">
        <ele>445.52593620046</ele>
        <time>2016-06-26T15:28:25Z</time>
      </trkpt>
      <trkpt lat="45.59749" lon="5.45653">
        <ele>445.52593620046</ele>
        <time>2016-06-26T15:28:30Z</time>
      </trkpt>
      <trkpt lat="45.59763" lon="5.45653">
        <ele>445.2798705734</ele>
        <time>2016-06-26T15:28:40Z</time>
      </trkpt>
      <trkpt lat="45.5977" lon="5.4565">
        <ele>445.2798705734</ele>
        <time>2016-06-26T15:28:45Z</time>
      </trkpt>
      <trkpt lat="45.59784" lon="5.45648">
        <ele>444.96788166297</ele>
        <time>2016-06-26T15:28:55Z</time>
      </trkpt>
      <trkpt lat="45.59791" lon="5.45647">
        <ele>444.96788166297</ele>
        <time>2016-06-26T15:29:00Z</time>
      </trkpt>
      <trkpt lat="45.59805" lon="5.45645">
        <ele>444.59606578104</ele>
        <time>2016-06-26T15:29:10Z</time>
      </trkpt>
      <trkpt lat="45.59812" lon="5.45644">
        <ele>444.59606578104</ele>
        <time>2016-06-26T15:29:15Z</time>
      </trkpt>
      <trkpt lat="45.59833" lon="5.45635">
        <ele>444.18465337112</ele>
        <time>2016-06-26T15:29:30Z</time>
      </trkpt>
      <trkpt lat="45.59839" lon="5.4563">
        <ele>444.18465337112</ele>
        <time>2016-06-26T15:29:35Z</time>
      </trkpt>
      <trkpt lat="45.59845" lon="5.45611">
        <ele>443.86778757953</ele>
        <time>2016-06-26T15:29:45Z</time>
      </trkpt>
      <trkpt lat="45.59846" lon="5.456">
        <ele>443.86778757953</ele>
        <time>2016-06-26T15:29:50Z</time>
      </trkpt>
      <trkpt lat="45.59848" lon="5.45582">
        <ele>443.81272080903</ele>
        <time>2016-06-26T15:30:00Z</time>
      </trkpt>
      <trkpt lat="45.59849" lon="5.45571">
        <ele>443.81272080903</ele>
        <time>2016-06-26T15:30:05Z</time>
      </trkpt>
      <trkpt lat="45.5985" lon="5.45552">
        <ele>443.79898811105</ele>
        <time>2016-06-26T15:30:15Z</time>
      </trkpt>
      <trkpt lat="45.59851" lon="5.45541">
        <ele>443.79898811105</ele>
        <time>2016-06-26T15:30:20Z</time>
      </trkpt>
      <trkpt lat="45.59853" lon="5.45521">
        <ele>443.73748314955</ele>
        <time>2016-06-26T15:30:30Z</time>
      </trkpt>
      <trkpt lat="45.59854" lon="5.45511">
        <ele>443.73748314955</ele>
        <time>2016-06-26T15:30:35Z</time>
      </trkpt>
      <trkpt lat="45.59856" lon="5.4549">
        <ele>444.2230920342</ele>
        <time>2016-06-26T15:30:45Z</time>
      </trkpt>
      <trkpt lat="45.59859" lon="5.45485">
        <ele>444.2230920342</ele>
        <time>2016-06-26T15:30:50Z</time>
      </trkpt>
      <trkpt lat="45.59873" lon="5.45493">
        <ele>444.2634670242</ele>
        <time>2016-06-26T15:31:00Z</time>
      </trkpt>
      <trkpt lat="45.5988" lon="5.45497">
        <ele>444.2634670242</ele>
        <time>2016-06-26T15:31:05Z</time>
      </trkpt>
      <trkpt lat="45.59897" lon="5.455">
        <ele>443.76183049663</ele>
        <time>2016-06-26T15:31:15Z</time>
      </trkpt>
      <trkpt lat="45.5991" lon="5.455">
        <ele>443.5523358821</ele>
        <time>2016-06-26T15:31:20Z</time>
      </trkpt>
      <trkpt lat="45.59928" lon="5.45499">
        <ele>443.47030701498</ele>
        <time>2016-06-26T15:31:30Z</time>
      </trkpt>
      <trkpt lat="45.59936" lon="5.45499">
        <ele>443.47030701498</ele>
        <time>2016-06-26T15:31:35Z</time>
      </trkpt>
      <trkpt lat="45.59954" lon="5.45493">
        <ele>444.04011801397</ele>
        <time>2016-06-26T15:31:45Z</time>
      </trkpt>
      <trkpt lat="45.59963" lon="5.45492">
        <ele>444.4776045292</ele>
        <time>2016-06-26T15:31:50Z</time>
      </trkpt>
      <trkpt lat="45.59973" lon="5.45488">
        <ele>444.79153509879</ele>
        <time>2016-06-26T15:32:00Z</time>
      </trkpt>
      <trkpt lat="45.59977" lon="5.45489">
        <ele>444.79153509879</ele>
        <time>2016-06-26T15:32:05Z</time>
      </trkpt>
      <trkpt lat="45.5999" lon="5.45487">
        <ele>444.67332868423</ele>
        <time>2016-06-26T15:32:20Z</time>
      </trkpt>
      <trkpt lat="45.59991" lon="5.45486">
        <ele>444.67332868423</ele>
        <time>2016-06-26T15:32:25Z</time>
      </trkpt>
      <trkpt lat="45.59998" lon="5.45484">
        <ele>444.67332868423</ele>
        <time>2016-06-26T15:32:35Z</time>
      </trkpt>
      <trkpt lat="45.59998" lon="5.45482">
        <ele>444.37148989602</ele>
        <time>2016-06-26T15:32:40Z</time>
      </trkpt>
      <trkpt lat="45.60004" lon="5.45482">
        <ele>444.37148989602</ele>
        <time>2016-06-26T15:32:50Z</time>
      </trkpt>
      <trkpt lat="45.6001" lon="5.45481">
        <ele>444.13118831002</ele>
        <time>2016-06-26T15:32:55Z</time>
      </trkpt>
      <trkpt lat="45.60027" lon="5.45479">
        <ele>444.16499246387</ele>
        <time>2016-06-26T15:33:05Z</time>
      </trkpt>
      <trkpt lat="45.60038" lon="5.45478">
        <ele>444.29438929409</ele>
        <time>2016-06-26T15:33:10Z</time>
      </trkpt>
      <trkpt lat="45.60061" lon="5.45479">
        <ele>444.23841281871</ele>
        <time>2016-06-26T15:33:20Z</time>
      </trkpt>
      <trkpt lat="45.60077" lon="5.45481">
        <ele>443.8093021741</ele>
        <time>2016-06-26T15:33:25Z</time>
      </trkpt>
      <trkpt lat="45.60106" lon="5.45486">
        <ele>443.41056965128</ele>
        <time>2016-06-26T15:33:35Z</time>
      </trkpt>
      <trkpt lat="45.60108" lon="5.45486">
        <ele>443.41056965128</ele>
        <time>2016-06-26T15:33:40Z</time>
      </trkpt>
      <trkpt lat="45.60121" lon="5.45489">
        <ele>442.58014212793</ele>
        <time>2016-06-26T15:33:50Z</time>
      </trkpt>
      <trkpt lat="45.60126" lon="5.45487">
        <ele>442.58014212793</ele>
        <time>2016-06-26T15:33:55Z</time>
      </trkpt>
      <trkpt lat="45.6014" lon="5.45487">
        <ele>441.98632889747</ele>
        <time>2016-06-26T15:34:05Z</time>
      </trkpt>
      <trkpt lat="45.60147" lon="5.45487">
        <ele>441.98632889747</ele>
        <time>2016-06-26T15:34:10Z</time>
      </trkpt>
      <trkpt lat="45.60165" lon="5.45486">
        <ele>441.2821156121</ele>
        <time>2016-06-26T15:34:25Z</time>
      </trkpt>
      <trkpt lat="45.60175" lon="5.45485">
        <ele>440.93887526949</ele>
        <time>2016-06-26T15:34:30Z</time>
      </trkpt>
      <trkpt lat="45.60192" lon="5.45484">
        <ele>440.98880232902</ele>
        <time>2016-06-26T15:34:40Z</time>
      </trkpt>
      <trkpt lat="45.602" lon="5.45484">
        <ele>440.98880232902</ele>
        <time>2016-06-26T15:34:45Z</time>
      </trkpt>
      <trkpt lat="45.60213" lon="5.45479">
        <ele>440.985027564</ele>
        <time>2016-06-26T15:34:55Z</time>
      </trkpt>
      <trkpt lat="45.60219" lon="5.45476">
        <ele>440.985027564</ele>
        <time>2016-06-26T15:35:00Z</time>
      </trkpt>
      <trkpt lat="45.60233" lon="5.45471">
        <ele>440.06688446881</ele>
        <time>2016-06-26T15:35:10Z</time>
      </trkpt>
      <trkpt lat="45.60241" lon="5.45468">
        <ele>440.06688446881</ele>
        <time>2016-06-26T15:35:15Z</time>
      </trkpt>
      <trkpt lat="45.60266" lon="5.4546">
        <ele>438.83734233066</ele>
        <time>2016-06-26T15:35:25Z</time>
      </trkpt>
      <trkpt lat="45.60273" lon="5.45456">
        <ele>438.83734233066</ele>
        <time>2016-06-26T15:35:30Z</time>
      </trkpt>
      <trkpt lat="45.60298" lon="5.45431">
        <ele>437.5388706538</ele>
        <time>2016-06-26T15:35:45Z</time>
      </trkpt>
      <trkpt lat="45.60302" lon="5.45425">
        <ele>437.5388706538</ele>
        <time>2016-06-26T15:35:50Z</time>
      </trkpt>
      <trkpt lat="45.60306" lon="5.45411">
        <ele>435.48837834385</ele>
        <time>2016-06-26T15:36:00Z</time>
      </trkpt>
      <trkpt lat="45.60308" lon="5.45396">
        <ele>434.43284814954</ele>
        <time>2016-06-26T15:36:05Z</time>
      </trkpt>
      <trkpt lat="45.60306" lon="5.45371">
        <ele>433.97052690721</ele>
        <time>2016-06-26T15:36:15Z</time>
      </trkpt>
      <trkpt lat="45.60303" lon="5.45352">
        <ele>433.3959932496</ele>
        <time>2016-06-26T15:36:20Z</time>
      </trkpt>
      <trkpt lat="45.60294" lon="5.45318">
        <ele>433.23760951407</ele>
        <time>2016-06-26T15:36:30Z</time>
      </trkpt>
      <trkpt lat="45.60285" lon="5.45291">
        <ele>432.78757337561</ele>
        <time>2016-06-26T15:36:35Z</time>
      </trkpt>
      <trkpt lat="45.60284" lon="5.45246">
        <ele>430.33882132756</ele>
        <time>2016-06-26T15:36:45Z</time>
      </trkpt>
      <trkpt lat="45.60289" lon="5.45223">
        <ele>427.97565439888</ele>
        <time>2016-06-26T15:36:50Z</time>
      </trkpt>
      <trkpt lat="45.60296" lon="5.45179">
        <ele>426.27430528204</ele>
        <time>2016-06-26T15:37:00Z</time>
      </trkpt>
      <trkpt lat="45.60298" lon="5.45165">
        <ele>425.07500743647</ele>
        <time>2016-06-26T15:37:05Z</time>
      </trkpt>
      <trkpt lat="45.60299" lon="5.45143">
        <ele>423.85354661462</ele>
        <time>2016-06-26T15:37:15Z</time>
      </trkpt>
      <trkpt lat="45.60302" lon="5.45129">
        <ele>422.32594363969</ele>
        <time>2016-06-26T15:37:20Z</time>
      </trkpt>
      <trkpt lat="45.603" lon="5.45109">
        <ele>421.18097974555</ele>
        <time>2016-06-26T15:37:30Z</time>
      </trkpt>
      <trkpt lat="45.60301" lon="5.45099">
        <ele>421.18097974555</ele>
        <time>2016-06-26T15:37:35Z</time>
      </trkpt>
      <trkpt lat="45.60306" lon="5.45065">
        <ele>420.6521611396</ele>
        <time>2016-06-26T15:37:50Z</time>
      </trkpt>
      <trkpt lat="45.60307" lon="5.45056">
        <ele>420.6521611396</ele>
        <time>2016-06-26T15:37:55Z</time>
      </trkpt>
      <trkpt lat="45.60311" lon="5.45037">
        <ele>420.11817608831</ele>
        <time>2016-06-26T15:38:05Z</time>
      </trkpt>
      <trkpt lat="45.60314" lon="5.45025">
        <ele>419.88235888375</ele>
        <time>2016-06-26T15:38:10Z</time>
      </trkpt>
      <trkpt lat="45.60318" lon="5.45006">
        <ele>419.59075342238</ele>
        <time>2016-06-26T15:38:20Z</time>
      </trkpt>
      <trkpt lat="45.60319" lon="5.44998">
        <ele>419.59075342238</ele>
        <time>2016-06-26T15:38:25Z</time>
      </trkpt>
      <trkpt lat="45.60315" lon="5.44977">
        <ele>418.9010745463</ele>
        <time>2016-06-26T15:38:35Z</time>
      </trkpt>
      <trkpt lat="45.60315" lon="5.44965">
        <ele>418.9010745463</ele>
        <time>2016-06-26T15:38:40Z</time>
      </trkpt>
      <trkpt lat="45.60316" lon="5.4495">
        <ele>418.24660605954</ele>
        <time>2016-06-26T15:38:50Z</time>
      </trkpt>
      <trkpt lat="45.60315" lon="5.44938">
        <ele>418.24660605954</ele>
        <time>2016-06-26T15:38:55Z</time>
      </trkpt>
      <trkpt lat="45.60313" lon="5.44913">
        <ele>417.82688435096</ele>
        <time>2016-06-26T15:39:05Z</time>
      </trkpt>
      <trkpt lat="45.60311" lon="5.44901">
        <ele>417.82688435096</ele>
        <time>2016-06-26T15:39:10Z</time>
      </trkpt>
      <trkpt lat="45.60313" lon="5.44878">
        <ele>417.69637060195</ele>
        <time>2016-06-26T15:39:20Z</time>
      </trkpt>
      <trkpt lat="45.60313" lon="5.44869">
        <ele>417.69637060195</ele>
        <time>2016-06-26T15:39:25Z</time>
      </trkpt>
      <trkpt lat="45.60313" lon="5.4484">
        <ele>418.46669591076</ele>
        <time>2016-06-26T15:39:35Z</time>
      </trkpt>
      <trkpt lat="45.60313" lon="5.44832">
        <ele>418.46669591076</ele>
        <time>2016-06-26T15:39:40Z</time>
      </trkpt>
      <trkpt lat="45.60311" lon="5.44804">
        <ele>418.84295692428</ele>
        <time>2016-06-26T15:39:50Z</time>
      </trkpt>
      <trkpt lat="45.60309" lon="5.4479">
        <ele>419.51430228517</ele>
        <time>2016-06-26T15:39:55Z</time>
      </trkpt>
      <trkpt lat="45.60309" lon="5.44764">
        <ele>419.37466096081</ele>
        <time>2016-06-26T15:40:05Z</time>
      </trkpt>
      <trkpt lat="45.60308" lon="5.44755">
        <ele>419.37466096081</ele>
        <time>2016-06-26T15:40:10Z</time>
      </trkpt>
      <trkpt lat="45.60324" lon="5.44743">
        <ele>419.14522047842</ele>
        <time>2016-06-26T15:40:25Z</time>
      </trkpt>
      <trkpt lat="45.60332" lon="5.44743">
        <ele>419.14522047842</ele>
        <time>2016-06-26T15:40:30Z</time>
      </trkpt>
      <trkpt lat="45.6035" lon="5.44743">
        <ele>418.71623563758</ele>
        <time>2016-06-26T15:40:40Z</time>
      </trkpt>
      <trkpt lat="45.60356" lon="5.44742">
        <ele>418.71623563758</ele>
        <time>2016-06-26T15:40:45Z</time>
      </trkpt>
      <trkpt lat="45.60375" lon="5.44741">
        <ele>418.43332583372</ele>
        <time>2016-06-26T15:40:55Z</time>
      </trkpt>
      <trkpt lat="45.60383" lon="5.4474">
        <ele>418.43332583372</ele>
        <time>2016-06-26T15:41:00Z</time>
      </trkpt>
      <trkpt lat="45.60399" lon="5.44738">
        <ele>418.21280176559</ele>
        <time>2016-06-26T15:41:10Z</time>
      </trkpt>
      <trkpt lat="45.60407" lon="5.44732">
        <ele>418.17870680001</ele>
        <time>2016-06-26T15:41:15Z</time>
      </trkpt>
      <trkpt lat="45.60408" lon="5.44722">
        <ele>418.17870680001</ele>
        <time>2016-06-26T15:41:25Z</time>
      </trkpt>
      <trkpt lat="45.60411" lon="5.447">
        <ele>417.79695567731</ele>
        <time>2016-06-26T15:41:30Z</time>
      </trkpt>
      <trkpt lat="45.60413" lon="5.44677">
        <ele>417.40952604084</ele>
        <time>2016-06-26T15:41:40Z</time>
      </trkpt>
      <trkpt lat="45.60416" lon="5.44669">
        <ele>417.40952604084</ele>
        <time>2016-06-26T15:41:45Z</time>
      </trkpt>
      <trkpt lat="45.60426" lon="5.44642">
        <ele>417.14595697618</ele>
        <time>2016-06-26T15:42:00Z</time>
      </trkpt>
      <trkpt lat="45.60429" lon="5.44632">
        <ele>417.14595697618</ele>
        <time>2016-06-26T15:42:05Z</time>
      </trkpt>
      <trkpt lat="45.60435" lon="5.44612">
        <ele>416.86653736151</ele>
        <time>2016-06-26T15:42:15Z</time>
      </trkpt>
      <trkpt lat="45.6044" lon="5.44603">
        <ele>416.86653736151</ele>
        <time>2016-06-26T15:42:20Z</time>
      </trkpt>
      <trkpt lat="45.60443" lon="5.44599">
        <ele>417.07596813919</ele>
        <time>2016-06-26T15:42:30Z</time>
      </trkpt>
      <trkpt lat="45.60443" lon="5.446">
        <ele>417.07596813919</ele>
        <time>2016-06-26T15:42:35Z</time>
      </trkpt>
      <trkpt lat="45.60443" lon="5.446">
        <ele>417.07596813919</ele>
        <time>2016-06-26T15:42:45Z</time>
      </trkpt>
      <trkpt lat="45.60443" lon="5.446">
        <ele>417.07596813919</ele>
        <time>2016-06-26T15:42:50Z</time>
      </trkpt>
      <trkpt lat="45.60443" lon="5.446">
        <ele>417.07596813919</ele>
        <time>2016-06-26T15:43:00Z</time>
      </trkpt>
      <trkpt lat="45.60443" lon="5.446">
        <ele>417.07596813919</ele>
        <time>2016-06-26T15:43:05Z</time>
      </trkpt>
      <trkpt lat="45.60443" lon="5.446">
        <ele>417.07596813919</ele>
        <time>2016-06-26T15:43:15Z</time>
      </trkpt>
      <trkpt lat="45.60444" lon="5.446">
        <ele>417.07596813919</ele>
        <time>2016-06-26T15:43:20Z</time>
      </trkpt>
      <trkpt lat="45.60444" lon="5.446">
        <ele>417.07596813919</ele>
        <time>2016-06-26T15:43:35Z</time>
      </trkpt>
      <trkpt lat="45.60444" lon="5.446">
        <ele>417.07596813919</ele>
        <time>2016-06-26T15:43:40Z</time>
      </trkpt>
      <trkpt lat="45.60447" lon="5.44585">
        <ele>416.9723432056</ele>
        <time>2016-06-26T15:43:50Z</time>
      </trkpt>
      <trkpt lat="45.60452" lon="5.44574">
        <ele>416.9723432056</ele>
        <time>2016-06-26T15:43:55Z</time>
      </trkpt>
      <trkpt lat="45.6046" lon="5.44555">
        <ele>416.77910725639</ele>
        <time>2016-06-26T15:44:05Z</time>
      </trkpt>
      <trkpt lat="45.60463" lon="5.44545">
        <ele>416.77910725639</ele>
        <time>2016-06-26T15:44:10Z</time>
      </trkpt>
      <trkpt lat="45.60468" lon="5.44526">
        <ele>416.45857579636</ele>
        <time>2016-06-26T15:44:20Z</time>
      </trkpt>
      <trkpt lat="45.60473" lon="5.44521">
        <ele>416.45857579636</ele>
        <time>2016-06-26T15:44:25Z</time>
      </trkpt>
      <trkpt lat="45.60475" lon="5.44517">
        <ele>416.32208109997</ele>
        <time>2016-06-26T15:44:35Z</time>
      </trkpt>
      <trkpt lat="45.60476" lon="5.44515">
        <ele>416.32208109997</ele>
        <time>2016-06-26T15:44:40Z</time>
      </trkpt>
      <trkpt lat="45.60476" lon="5.44513">
        <ele>416.32208109997</ele>
        <time>2016-06-26T15:44:50Z</time>
      </trkpt>
      <trkpt lat="45.60476" lon="5.44513">
        <ele>416.32208109997</ele>
        <time>2016-06-26T15:44:55Z</time>
      </trkpt>
      <trkpt lat="45.60476" lon="5.44513">
        <ele>416.32208109997</ele>
        <time>2016-06-26T15:45:05Z</time>
      </trkpt>
      <trkpt lat="45.60476" lon="5.44514">
        <ele>416.32208109997</ele>
        <time>2016-06-26T15:45:10Z</time>
      </trkpt>
      <trkpt lat="45.60476" lon="5.44515">
        <ele>416.32208109997</ele>
        <time>2016-06-26T15:45:20Z</time>
      </trkpt>
      <trkpt lat="45.60476" lon="5.44515">
        <ele>416.32208109997</ele>
        <time>2016-06-26T15:45:25Z</time>
      </trkpt>
      <trkpt lat="45.60479" lon="5.4451">
        <ele>416.32208109997</ele>
        <time>2016-06-26T15:45:40Z</time>
      </trkpt>
      <trkpt lat="45.60484" lon="5.44503">
        <ele>416.64318435927</ele>
        <time>2016-06-26T15:45:45Z</time>
      </trkpt>
      <trkpt lat="45.60497" lon="5.44494">
        <ele>416.53561745451</ele>
        <time>2016-06-26T15:45:55Z</time>
      </trkpt>
      <trkpt lat="45.60505" lon="5.44488">
        <ele>416.53561745451</ele>
        <time>2016-06-26T15:46:00Z</time>
      </trkpt>
      <trkpt lat="45.6052" lon="5.44478">
        <ele>417.12495174896</ele>
        <time>2016-06-26T15:46:10Z</time>
      </trkpt>
      <trkpt lat="45.6053" lon="5.44472">
        <ele>417.83811046992</ele>
        <time>2016-06-26T15:46:15Z</time>
      </trkpt>
      <trkpt lat="45.60549" lon="5.44466">
        <ele>419.18140984113</ele>
        <time>2016-06-26T15:46:25Z</time>
      </trkpt>
      <trkpt lat="45.60556" lon="5.44463">
        <ele>419.18140984113</ele>
        <time>2016-06-26T15:46:30Z</time>
      </trkpt>
      <trkpt lat="45.6057" lon="5.44463">
        <ele>420.90169918859</ele>
        <time>2016-06-26T15:46:40Z</time>
      </trkpt>
      <trkpt lat="45.60578" lon="5.44464">
        <ele>420.90169918859</ele>
        <time>2016-06-26T15:46:45Z</time>
      </trkpt>
      <trkpt lat="45.60603" lon="5.44459">
        <ele>423.19576191494</ele>
        <time>2016-06-26T15:47:00Z</time>
      </trkpt>
      <trkpt lat="45.60604" lon="5.44459">
        <ele>423.19576191494</ele>
        <time>2016-06-26T15:47:05Z</time>
      </trkpt>
      <trkpt lat="45.60614" lon="5.44457">
        <ele>425.53824683459</ele>
        <time>2016-06-26T15:47:15Z</time>
      </trkpt>
      <trkpt lat="45.60619" lon="5.44456">
        <ele>425.53824683459</ele>
        <time>2016-06-26T15:47:20Z</time>
      </trkpt>
      <trkpt lat="45.60632" lon="5.44452">
        <ele>428.018794219</ele>
        <time>2016-06-26T15:47:30Z</time>
      </trkpt>
      <trkpt lat="45.60637" lon="5.4445">
        <ele>428.018794219</ele>
        <time>2016-06-26T15:47:35Z</time>
      </trkpt>
      <trkpt lat="45.60643" lon="5.44451">
        <ele>430.56165639197</ele>
        <time>2016-06-26T15:47:45Z</time>
      </trkpt>
      <trkpt lat="45.60655" lon="5.44449">
        <ele>433.19747541671</ele>
        <time>2016-06-26T15:47:50Z</time>
      </trkpt>
      <trkpt lat="45.6067" lon="5.44448">
        <ele>435.92569672968</ele>
        <time>2016-06-26T15:48:00Z</time>
      </trkpt>
      <trkpt lat="45.60679" lon="5.44449">
        <ele>438.3133645651</ele>
        <time>2016-06-26T15:48:05Z</time>
      </trkpt>
      <trkpt lat="45.60694" lon="5.44448">
        <ele>440.86834657161</ele>
        <time>2016-06-26T15:48:15Z</time>
      </trkpt>
      <trkpt lat="45.60702" lon="5.44445">
        <ele>440.86834657161</ele>
        <time>2016-06-26T15:48:20Z</time>
      </trkpt>
      <trkpt lat="45.60728" lon="5.44437">
        <ele>443.35476224197</ele>
        <time>2016-06-26T15:48:30Z</time>
      </trkpt>
      <trkpt lat="45.60738" lon="5.44436">
        <ele>445.82824475694</ele>
        <time>2016-06-26T15:48:35Z</time>
      </trkpt>
      <trkpt lat="45.60752" lon="5.44433">
        <ele>448.55673384732</ele>
        <time>2016-06-26T15:48:45Z</time>
      </trkpt>
      <trkpt lat="45.60757" lon="5.44431">
        <ele>448.55673384732</ele>
        <time>2016-06-26T15:48:50Z</time>
      </trkpt>
      <trkpt lat="45.60778" lon="5.44424">
        <ele>451.13946803132</ele>
        <time>2016-06-26T15:49:05Z</time>
      </trkpt>
      <trkpt lat="45.60785" lon="5.44423">
        <ele>451.13946803132</ele>
        <time>2016-06-26T15:49:10Z</time>
      </trkpt>
      <trkpt lat="45.60791" lon="5.44418">
        <ele>453.89747131587</ele>
        <time>2016-06-26T15:49:20Z</time>
      </trkpt>
      <trkpt lat="45.60794" lon="5.44414">
        <ele>453.89747131587</ele>
        <time>2016-06-26T15:49:25Z</time>
      </trkpt>
      <trkpt lat="45.60821" lon="5.44395">
        <ele>456.22000152509</ele>
        <time>2016-06-26T15:49:35Z</time>
      </trkpt>
      <trkpt lat="45.60827" lon="5.4439">
        <ele>456.22000152509</ele>
        <time>2016-06-26T15:49:40Z</time>
      </trkpt>
      <trkpt lat="45.60838" lon="5.44384">
        <ele>458.42169248226</ele>
        <time>2016-06-26T15:49:50Z</time>
      </trkpt>
      <trkpt lat="45.60846" lon="5.44378">
        <ele>458.42169248226</ele>
        <time>2016-06-26T15:49:55Z</time>
      </trkpt>
      <trkpt lat="45.60862" lon="5.44367">
        <ele>460.54962816788</ele>
        <time>2016-06-26T15:50:05Z</time>
      </trkpt>
      <trkpt lat="45.6087" lon="5.44363">
        <ele>460.54962816788</ele>
        <time>2016-06-26T15:50:10Z</time>
      </trkpt>
      <trkpt lat="45.6088" lon="5.44336">
        <ele>462.734320211</ele>
        <time>2016-06-26T15:50:20Z</time>
      </trkpt>
      <trkpt lat="45.60887" lon="5.44303">
        <ele>464.24648776693</ele>
        <time>2016-06-26T15:50:25Z</time>
      </trkpt>
      <trkpt lat="45.60901" lon="5.44237">
        <ele>465.72392626864</ele>
        <time>2016-06-26T15:50:35Z</time>
      </trkpt>
      <trkpt lat="45.60901" lon="5.4422">
        <ele>467.00849744228</ele>
        <time>2016-06-26T15:50:40Z</time>
      </trkpt>
      <trkpt lat="45.60902" lon="5.44188">
        <ele>468.35792301748</ele>
        <time>2016-06-26T15:50:55Z</time>
      </trkpt>
      <trkpt lat="45.60902" lon="5.44166">
        <ele>469.20396891299</ele>
        <time>2016-06-26T15:51:00Z</time>
      </trkpt>
      <trkpt lat="45.60902" lon="5.44124">
        <ele>469.26671274116</ele>
        <time>2016-06-26T15:51:10Z</time>
      </trkpt>
      <trkpt lat="45.60907" lon="5.44104">
        <ele>469.64379229972</ele>
        <time>2016-06-26T15:51:15Z</time>
      </trkpt>
      <trkpt lat="45.60932" lon="5.44058">
        <ele>469.79507056792</ele>
        <time>2016-06-26T15:51:25Z</time>
      </trkpt>
      <trkpt lat="45.60945" lon="5.44045">
        <ele>469.68200017316</ele>
        <time>2016-06-26T15:51:30Z</time>
      </trkpt>
      <trkpt lat="45.60954" lon="5.44039">
        <ele>469.08236654407</ele>
        <time>2016-06-26T15:51:40Z</time>
      </trkpt>
      <trkpt lat="45.60961" lon="5.44038">
        <ele>469.08236654407</ele>
        <time>2016-06-26T15:51:45Z</time>
      </trkpt>
      <trkpt lat="45.60976" lon="5.44035">
        <ele>468.45464080951</ele>
        <time>2016-06-26T15:51:55Z</time>
      </trkpt>
      <trkpt lat="45.60983" lon="5.44034">
        <ele>468.45464080951</ele>
        <time>2016-06-26T15:52:00Z</time>
      </trkpt>
      <trkpt lat="45.60996" lon="5.4403">
        <ele>467.04204741415</ele>
        <time>2016-06-26T15:52:10Z</time>
      </trkpt>
      <trkpt lat="45.61001" lon="5.44029">
        <ele>467.04204741415</ele>
        <time>2016-06-26T15:52:15Z</time>
      </trkpt>
      <trkpt lat="45.61007" lon="5.44025">
        <ele>465.57234881296</ele>
        <time>2016-06-26T15:52:25Z</time>
      </trkpt>
      <trkpt lat="45.61011" lon="5.44023">
        <ele>465.57234881296</ele>
        <time>2016-06-26T15:52:30Z</time>
      </trkpt>
      <trkpt lat="45.61024" lon="5.44006">
        <ele>463.33655892477</ele>
        <time>2016-06-26T15:52:45Z</time>
      </trkpt>
      <trkpt lat="45.61024" lon="5.44002">
        <ele>463.33655892477</ele>
        <time>2016-06-26T15:52:50Z</time>
      </trkpt>
      <trkpt lat="45.61023" lon="5.43982">
        <ele>461.10661760308</ele>
        <time>2016-06-26T15:53:00Z</time>
      </trkpt>
      <trkpt lat="45.61021" lon="5.43967">
        <ele>459.00685533598</ele>
        <time>2016-06-26T15:53:05Z</time>
      </trkpt>
      <trkpt lat="45.61014" lon="5.43939">
        <ele>456.90705938416</ele>
        <time>2016-06-26T15:53:15Z</time>
      </trkpt>
      <trkpt lat="45.61013" lon="5.43924">
        <ele>455.04678140142</ele>
        <time>2016-06-26T15:53:20Z</time>
      </trkpt>
      <trkpt lat="45.61007" lon="5.43905">
        <ele>452.92664797993</ele>
        <time>2016-06-26T15:53:30Z</time>
      </trkpt>
      <trkpt lat="45.61004" lon="5.4389">
        <ele>450.58896828591</ele>
        <time>2016-06-26T15:53:35Z</time>
      </trkpt>
      <trkpt lat="45.61001" lon="5.43867">
        <ele>448.56339541586</ele>
        <time>2016-06-26T15:53:45Z</time>
      </trkpt>
      <trkpt lat="45.60999" lon="5.43856">
        <ele>448.56339541586</ele>
        <time>2016-06-26T15:53:50Z</time>
      </trkpt>
      <trkpt lat="45.60996" lon="5.43839">
        <ele>446.83525837801</ele>
        <time>2016-06-26T15:54:00Z</time>
      </trkpt>
      <trkpt lat="45.60995" lon="5.4383">
        <ele>446.83525837801</ele>
        <time>2016-06-26T15:54:05Z</time>
      </trkpt>
      <trkpt lat="45.60992" lon="5.43812">
        <ele>445.10174244611</ele>
        <time>2016-06-26T15:54:15Z</time>
      </trkpt>
      <trkpt lat="45.60991" lon="5.43805">
        <ele>445.10174244611</ele>
        <time>2016-06-26T15:54:20Z</time>
      </trkpt>
      <trkpt lat="45.60983" lon="5.4379">
        <ele>441.66982462408</ele>
        <time>2016-06-26T15:54:35Z</time>
      </trkpt>
      <trkpt lat="45.60977" lon="5.43778">
        <ele>438.47732468001</ele>
        <time>2016-06-26T15:54:40Z</time>
      </trkpt>
      <trkpt lat="45.60967" lon="5.43761">
        <ele>435.70478947455</ele>
        <time>2016-06-26T15:54:50Z</time>
      </trkpt>
      <trkpt lat="45.60961" lon="5.43758">
        <ele>435.70478947455</ele>
        <time>2016-06-26T15:54:55Z</time>
      </trkpt>
      <trkpt lat="45.60949" lon="5.43755">
        <ele>432.16345925755</ele>
        <time>2016-06-26T15:55:05Z</time>
      </trkpt>
      <trkpt lat="45.60942" lon="5.43754">
        <ele>432.16345925755</ele>
        <time>2016-06-26T15:55:10Z</time>
      </trkpt>
      <trkpt lat="45.60929" lon="5.43747">
        <ele>428.71373224325</ele>
        <time>2016-06-26T15:55:20Z</time>
      </trkpt>
      <trkpt lat="45.60937" lon="5.43737">
        <ele>425.50379537096</ele>
        <time>2016-06-26T15:55:25Z</time>
      </trkpt>
      <trkpt lat="45.60958" lon="5.43718">
        <ele>422.10798141455</ele>
        <time>2016-06-26T15:55:35Z</time>
      </trkpt>
      <trkpt lat="45.60962" lon="5.43712">
        <ele>422.10798141455</ele>
        <time>2016-06-26T15:55:40Z</time>
      </trkpt>
      <trkpt lat="45.60972" lon="5.43703">
        <ele>418.838285204</ele>
        <time>2016-06-26T15:55:50Z</time>
      </trkpt>
      <trkpt lat="45.60975" lon="5.437">
        <ele>418.838285204</ele>
        <time>2016-06-26T15:55:55Z</time>
      </trkpt>
      <trkpt lat="45.6098" lon="5.43687">
        <ele>415.46434598188</ele>
        <time>2016-06-26T15:56:05Z</time>
      </trkpt>
      <trkpt lat="45.60977" lon="5.43683">
        <ele>415.46434598188</ele>
        <time>2016-06-26T15:56:10Z</time>
      </trkpt>
      <trkpt lat="45.60969" lon="5.43677">
        <ele>412.16182759643</ele>
        <time>2016-06-26T15:56:20Z</time>
      </trkpt>
      <trkpt lat="45.60963" lon="5.43674">
        <ele>412.16182759643</ele>
        <time>2016-06-26T15:56:25Z</time>
      </trkpt>
      <trkpt lat="45.60944" lon="5.4367">
        <ele>408.50213665281</ele>
        <time>2016-06-26T15:56:40Z</time>
      </trkpt>
      <trkpt lat="45.60937" lon="5.43667">
        <ele>408.50213665281</ele>
        <time>2016-06-26T15:56:45Z</time>
      </trkpt>
      <trkpt lat="45.60931" lon="5.43649">
        <ele>405.55879840212</ele>
        <time>2016-06-26T15:56:55Z</time>
      </trkpt>
      <trkpt lat="45.60932" lon="5.43635">
        <ele>403.25774199778</ele>
        <time>2016-06-26T15:57:00Z</time>
      </trkpt>
      <trkpt lat="45.60931" lon="5.43613">
        <ele>400.72121058944</ele>
        <time>2016-06-26T15:57:10Z</time>
      </trkpt>
      <trkpt lat="45.6093" lon="5.43602">
        <ele>400.72121058944</ele>
        <time>2016-06-26T15:57:15Z</time>
      </trkpt>
      <trkpt lat="45.60929" lon="5.43586">
        <ele>398.00095450142</ele>
        <time>2016-06-26T15:57:25Z</time>
      </trkpt>
      <trkpt lat="45.6093" lon="5.43576">
        <ele>398.00095450142</ele>
        <time>2016-06-26T15:57:30Z</time>
      </trkpt>
      <trkpt lat="45.60929" lon="5.43541">
        <ele>395.30366551258</ele>
        <time>2016-06-26T15:57:40Z</time>
      </trkpt>
      <trkpt lat="45.60928" lon="5.43527">
        <ele>392.5034538593</ele>
        <time>2016-06-26T15:57:45Z</time>
      </trkpt>
      <trkpt lat="45.60912" lon="5.43533">
        <ele>390.18982802973</ele>
        <time>2016-06-26T15:57:55Z</time>
      </trkpt>
      <trkpt lat="45.609" lon="5.43539">
        <ele>388.17238387068</ele>
        <time>2016-06-26T15:58:00Z</time>
      </trkpt>
      <trkpt lat="45.60858" lon="5.43547">
        <ele>386.47536254907</ele>
        <time>2016-06-26T15:58:10Z</time>
      </trkpt>
      <trkpt lat="45.60838" lon="5.43542">
        <ele>384.70214796127</ele>
        <time>2016-06-26T15:58:15Z</time>
      </trkpt>
      <trkpt lat="45.60813" lon="5.43533">
        <ele>382.9752085941</ele>
        <time>2016-06-26T15:58:25Z</time>
      </trkpt>
      <trkpt lat="45.60802" lon="5.4353">
        <ele>381.04737973471</ele>
        <time>2016-06-26T15:58:30Z</time>
      </trkpt>
      <trkpt lat="45.60783" lon="5.43526">
        <ele>379.82848033151</ele>
        <time>2016-06-26T15:58:40Z</time>
      </trkpt>
      <trkpt lat="45.60776" lon="5.43524">
        <ele>379.82848033151</ele>
        <time>2016-06-26T15:58:45Z</time>
      </trkpt>
      <trkpt lat="45.60761" lon="5.43514">
        <ele>379.95755224508</ele>
        <time>2016-06-26T15:58:55Z</time>
      </trkpt>
      <trkpt lat="45.60754" lon="5.43494">
        <ele>380.63926706913</ele>
        <time>2016-06-26T15:59:00Z</time>
      </trkpt>
      <trkpt lat="45.6074" lon="5.43435">
        <ele>381.65381686735</ele>
        <time>2016-06-26T15:59:15Z</time>
      </trkpt>
      <trkpt lat="45.60733" lon="5.43422">
        <ele>382.65237007448</ele>
        <time>2016-06-26T15:59:20Z</time>
      </trkpt>
      <trkpt lat="45.60723" lon="5.43403">
        <ele>383.52783564884</ele>
        <time>2016-06-26T15:59:30Z</time>
      </trkpt>
      <trkpt lat="45.6072" lon="5.43393">
        <ele>383.52783564884</ele>
        <time>2016-06-26T15:59:35Z</time>
      </trkpt>
      <trkpt lat="45.60718" lon="5.43374">
        <ele>384.54154569037</ele>
        <time>2016-06-26T15:59:45Z</time>
      </trkpt>
      <trkpt lat="45.60717" lon="5.43364">
        <ele>384.54154569037</ele>
        <time>2016-06-26T15:59:50Z</time>
      </trkpt>
      <trkpt lat="45.60715" lon="5.4334">
        <ele>385.97844182785</ele>
        <time>2016-06-26T16:00:00Z</time>
      </trkpt>
      <trkpt lat="45.60714" lon="5.43327">
        <ele>387.27990106216</ele>
        <time>2016-06-26T16:00:05Z</time>
      </trkpt>
      <trkpt lat="45.6071" lon="5.43309">
        <ele>388.34665159514</ele>
        <time>2016-06-26T16:00:15Z</time>
      </trkpt>
      <trkpt lat="45.60708" lon="5.43297">
        <ele>388.34665159514</ele>
        <time>2016-06-26T16:00:20Z</time>
      </trkpt>
      <trkpt lat="45.60705" lon="5.43278">
        <ele>389.49092009604</ele>
        <time>2016-06-26T16:00:30Z</time>
      </trkpt>
      <trkpt lat="45.60704" lon="5.43269">
        <ele>389.49092009604</ele>
        <time>2016-06-26T16:00:35Z</time>
      </trkpt>
      <trkpt lat="45.607" lon="5.43255">
        <ele>390.51185951604</ele>
        <time>2016-06-26T16:00:45Z</time>
      </trkpt>
      <trkpt lat="45.60698" lon="5.43245">
        <ele>390.51185951604</ele>
        <time>2016-06-26T16:00:50Z</time>
      </trkpt>
      <trkpt lat="45.60693" lon="5.43229">
        <ele>392.04523403172</ele>
        <time>2016-06-26T16:01:00Z</time>
      </trkpt>
      <trkpt lat="45.60689" lon="5.43223">
        <ele>392.04523403172</ele>
        <time>2016-06-26T16:01:05Z</time>
      </trkpt>
      <trkpt lat="45.60676" lon="5.43206">
        <ele>393.367351263</ele>
        <time>2016-06-26T16:01:15Z</time>
      </trkpt>
      <trkpt lat="45.60671" lon="5.43201">
        <ele>393.367351263</ele>
        <time>2016-06-26T16:01:20Z</time>
      </trkpt>
      <trkpt lat="45.60638" lon="5.43169">
        <ele>395.3215542151</ele>
        <time>2016-06-26T16:01:30Z</time>
      </trkpt>
      <trkpt lat="45.60627" lon="5.43154">
        <ele>398.01027107802</ele>
        <time>2016-06-26T16:01:35Z</time>
      </trkpt>
      <trkpt lat="45.60598" lon="5.43121">
        <ele>400.53212977268</ele>
        <time>2016-06-26T16:01:50Z</time>
      </trkpt>
      <trkpt lat="45.60597" lon="5.43115">
        <ele>400.53212977268</ele>
        <time>2016-06-26T16:01:55Z</time>
      </trkpt>
      <trkpt lat="45.60596" lon="5.43102">
        <ele>403.13344569683</ele>
        <time>2016-06-26T16:02:05Z</time>
      </trkpt>
      <trkpt lat="45.60597" lon="5.43089">
        <ele>405.35067409131</ele>
        <time>2016-06-26T16:02:10Z</time>
      </trkpt>
      <trkpt lat="45.606" lon="5.43059">
        <ele>407.63468558646</ele>
        <time>2016-06-26T16:02:20Z</time>
      </trkpt>
      <trkpt lat="45.60602" lon="5.43051">
        <ele>407.63468558646</ele>
        <time>2016-06-26T16:02:25Z</time>
      </trkpt>
      <trkpt lat="45.60606" lon="5.4304">
        <ele>409.68270940704</ele>
        <time>2016-06-26T16:02:35Z</time>
      </trkpt>
      <trkpt lat="45.60609" lon="5.43033">
        <ele>409.68270940704</ele>
        <time>2016-06-26T16:02:40Z</time>
      </trkpt>
      <trkpt lat="45.60613" lon="5.43019">
        <ele>412.51211426544</ele>
        <time>2016-06-26T16:02:50Z</time>
      </trkpt>
      <trkpt lat="45.60616" lon="5.43011">
        <ele>412.51211426544</ele>
        <time>2016-06-26T16:02:55Z</time>
      </trkpt>
      <trkpt lat="45.60616" lon="5.42997">
        <ele>415.26219905859</ele>
        <time>2016-06-26T16:03:05Z</time>
      </trkpt>
      <trkpt lat="45.60615" lon="5.42993">
        <ele>415.26219905859</ele>
        <time>2016-06-26T16:03:10Z</time>
      </trkpt>
      <trkpt lat="45.60613" lon="5.42985">
        <ele>415.26219905859</ele>
        <time>2016-06-26T16:03:20Z</time>
      </trkpt>
      <trkpt lat="45.6061" lon="5.42985">
        <ele>418.20239280338</ele>
        <time>2016-06-26T16:03:25Z</time>
      </trkpt>
      <trkpt lat="45.60602" lon="5.42977">
        <ele>420.83268986002</ele>
        <time>2016-06-26T16:03:35Z</time>
      </trkpt>
      <trkpt lat="45.60598" lon="5.42972">
        <ele>420.83268986002</ele>
        <time>2016-06-26T16:03:40Z</time>
      </trkpt>
      <trkpt lat="45.60584" lon="5.42961">
        <ele>423.52680746786</ele>
        <time>2016-06-26T16:03:50Z</time>
      </trkpt>
      <trkpt lat="45.60579" lon="5.42957">
        <ele>423.52680746786</ele>
        <time>2016-06-26T16:03:55Z</time>
      </trkpt>
      <trkpt lat="45.60567" lon="5.42949">
        <ele>425.63674930916</ele>
        <time>2016-06-26T16:04:05Z</time>
      </trkpt>
      <trkpt lat="45.60561" lon="5.42944">
        <ele>425.63674930916</ele>
        <time>2016-06-26T16:04:10Z</time>
      </trkpt>
      <trkpt lat="45.60526" lon="5.42922">
        <ele>427.27019327319</ele>
        <time>2016-06-26T16:04:25Z</time>
      </trkpt>
      <trkpt lat="45.60518" lon="5.42916">
        <ele>428.65823332101</ele>
        <time>2016-06-26T16:04:30Z</time>
      </trkpt>
      <trkpt lat="45.60501" lon="5.4291">
        <ele>429.97272831974</ele>
        <time>2016-06-26T16:04:40Z</time>
      </trkpt>
      <trkpt lat="45.60495" lon="5.42907">
        <ele>429.97272831974</ele>
        <time>2016-06-26T16:04:45Z</time>
      </trkpt>
      <trkpt lat="45.60482" lon="5.42898">
        <ele>431.02753104244</ele>
        <time>2016-06-26T16:04:55Z</time>
      </trkpt>
      <trkpt lat="45.60475" lon="5.42893">
        <ele>431.02753104244</ele>
        <time>2016-06-26T16:05:00Z</time>
      </trkpt>
      <trkpt lat="45.60461" lon="5.42885">
        <ele>432.54465734704</ele>
        <time>2016-06-26T16:05:10Z</time>
      </trkpt>
      <trkpt lat="45.60454" lon="5.4288">
        <ele>432.54465734704</ele>
        <time>2016-06-26T16:05:15Z</time>
      </trkpt>
      <trkpt lat="45.60441" lon="5.42874">
        <ele>433.76534871141</ele>
        <time>2016-06-26T16:05:25Z</time>
      </trkpt>
      <trkpt lat="45.60434" lon="5.42871">
        <ele>433.76534871141</ele>
        <time>2016-06-26T16:05:30Z</time>
      </trkpt>
      <trkpt lat="45.60412" lon="5.42865">
        <ele>434.95321364329</ele>
        <time>2016-06-26T16:05:45Z</time>
      </trkpt>
      <trkpt lat="45.60404" lon="5.42862">
        <ele>434.95321364329</ele>
        <time>2016-06-26T16:05:50Z</time>
      </trkpt>
      <trkpt lat="45.60388" lon="5.42859">
        <ele>436.32400951792</ele>
        <time>2016-06-26T16:06:00Z</time>
      </trkpt>
      <trkpt lat="45.60381" lon="5.42856">
        <ele>436.32400951792</ele>
        <time>2016-06-26T16:06:05Z</time>
      </trkpt>
      <trkpt lat="45.60366" lon="5.42854">
        <ele>437.54415412803</ele>
        <time>2016-06-26T16:06:15Z</time>
      </trkpt>
      <trkpt lat="45.6036" lon="5.42851">
        <ele>437.54415412803</ele>
        <time>2016-06-26T16:06:20Z</time>
      </trkpt>
      <trkpt lat="45.60356" lon="5.42838">
        <ele>438.55020604976</ele>
        <time>2016-06-26T16:06:30Z</time>
      </trkpt>
      <trkpt lat="45.60361" lon="5.42831">
        <ele>438.55020604976</ele>
        <time>2016-06-26T16:06:35Z</time>
      </trkpt>
      <trkpt lat="45.60371" lon="5.42818">
        <ele>439.75976635746</ele>
        <time>2016-06-26T16:06:45Z</time>
      </trkpt>
      <trkpt lat="45.60375" lon="5.42811">
        <ele>439.75976635746</ele>
        <time>2016-06-26T16:06:50Z</time>
      </trkpt>
      <trkpt lat="45.60384" lon="5.42796">
        <ele>440.72354812099</ele>
        <time>2016-06-26T16:07:00Z</time>
      </trkpt>
      <trkpt lat="45.60387" lon="5.42787">
        <ele>440.72354812099</ele>
        <time>2016-06-26T16:07:05Z</time>
      </trkpt>
      <trkpt lat="45.60394" lon="5.4277">
        <ele>441.29996250994</ele>
        <time>2016-06-26T16:07:15Z</time>
      </trkpt>
      <trkpt lat="45.60397" lon="5.42761">
        <ele>441.29996250994</ele>
        <time>2016-06-26T16:07:20Z</time>
      </trkpt>
      <trkpt lat="45.60405" lon="5.42743">
        <ele>441.77701169102</ele>
        <time>2016-06-26T16:07:30Z</time>
      </trkpt>
      <trkpt lat="45.6041" lon="5.42732">
        <ele>441.77701169102</ele>
        <time>2016-06-26T16:07:35Z</time>
      </trkpt>
      <trkpt lat="45.60413" lon="5.42709">
        <ele>442.65256666033</ele>
        <time>2016-06-26T16:07:45Z</time>
      </trkpt>
      <trkpt lat="45.60412" lon="5.42697">
        <ele>442.65256666033</ele>
        <time>2016-06-26T16:07:50Z</time>
      </trkpt>
      <trkpt lat="45.60414" lon="5.42661">
        <ele>443.68081883796</ele>
        <time>2016-06-26T16:08:00Z</time>
      </trkpt>
      <trkpt lat="45.60416" lon="5.42653">
        <ele>443.68081883796</ele>
        <time>2016-06-26T16:08:05Z</time>
      </trkpt>
      <trkpt lat="45.60426" lon="5.4261">
        <ele>444.47521038259</ele>
        <time>2016-06-26T16:08:15Z</time>
      </trkpt>
      <trkpt lat="45.60431" lon="5.426">
        <ele>444.47521038259</ele>
        <time>2016-06-26T16:08:20Z</time>
      </trkpt>
      <trkpt lat="45.60441" lon="5.42574">
        <ele>444.11633387251</ele>
        <time>2016-06-26T16:08:35Z</time>
      </trkpt>
      <trkpt lat="45.60444" lon="5.42566">
        <ele>444.11633387251</ele>
        <time>2016-06-26T16:08:40Z</time>
      </trkpt>
      <trkpt lat="45.60452" lon="5.42546">
        <ele>443.24001857348</ele>
        <time>2016-06-26T16:08:50Z</time>
      </trkpt>
      <trkpt lat="45.60457" lon="5.42537">
        <ele>443.24001857348</ele>
        <time>2016-06-26T16:08:55Z</time>
      </trkpt>
      <trkpt lat="45.60463" lon="5.42517">
        <ele>442.32164904495</ele>
        <time>2016-06-26T16:09:05Z</time>
      </trkpt>
      <trkpt lat="45.60467" lon="5.42509">
        <ele>442.32164904495</ele>
        <time>2016-06-26T16:09:10Z</time>
      </trkpt>
      <trkpt lat="45.60471" lon="5.42491">
        <ele>442.03246588364</ele>
        <time>2016-06-26T16:09:20Z</time>
      </trkpt>
      <trkpt lat="45.60472" lon="5.42484">
        <ele>442.03246588364</ele>
        <time>2016-06-26T16:09:25Z</time>
      </trkpt>
      <trkpt lat="45.6047" lon="5.42461">
        <ele>441.29218550814</ele>
        <time>2016-06-26T16:09:35Z</time>
      </trkpt>
      <trkpt lat="45.60465" lon="5.42438">
        <ele>439.90821094864</ele>
        <time>2016-06-26T16:09:40Z</time>
      </trkpt>
      <trkpt lat="45.6045" lon="5.42373">
        <ele>438.77034457245</ele>
        <time>2016-06-26T16:09:50Z</time>
      </trkpt>
      <trkpt lat="45.60444" lon="5.42332">
        <ele>438.29882835843</ele>
        <time>2016-06-26T16:09:55Z</time>
      </trkpt>
      <trkpt lat="45.60447" lon="5.42238">
        <ele>438.23265389872</ele>
        <time>2016-06-26T16:10:05Z</time>
      </trkpt>
      <trkpt lat="45.60445" lon="5.42216">
        <ele>438.38647097494</ele>
        <time>2016-06-26T16:10:10Z</time>
      </trkpt>
      <trkpt lat="45.60444" lon="5.42199">
        <ele>438.64554111993</ele>
        <time>2016-06-26T16:10:20Z</time>
      </trkpt>
      <trkpt lat="45.60446" lon="5.42187">
        <ele>438.47088813772</ele>
        <time>2016-06-26T16:10:25Z</time>
      </trkpt>
      <trkpt lat="45.60459" lon="5.42134">
        <ele>438.22896965255</ele>
        <time>2016-06-26T16:10:35Z</time>
      </trkpt>
      <trkpt lat="45.60464" lon="5.42113">
        <ele>437.78389710956</ele>
        <time>2016-06-26T16:10:40Z</time>
      </trkpt>
      <trkpt lat="45.60469" lon="5.42047">
        <ele>437.13997953038</ele>
        <time>2016-06-26T16:10:55Z</time>
      </trkpt>
      <trkpt lat="45.60472" lon="5.42031">
        <ele>435.99907106969</ele>
        <time>2016-06-26T16:11:00Z</time>
      </trkpt>
      <trkpt lat="45.60477" lon="5.41993">
        <ele>434.64828339818</ele>
        <time>2016-06-26T16:11:10Z</time>
      </trkpt>
      <trkpt lat="45.60477" lon="5.41977">
        <ele>433.80088931844</ele>
        <time>2016-06-26T16:11:15Z</time>
      </trkpt>
      <trkpt lat="45.60477" lon="5.41958">
        <ele>433.97215286255</ele>
        <time>2016-06-26T16:11:25Z</time>
      </trkpt>
      <trkpt lat="45.60477" lon="5.41948">
        <ele>433.97215286255</ele>
        <time>2016-06-26T16:11:30Z</time>
      </trkpt>
      <trkpt lat="45.60477" lon="5.4193">
        <ele>435.03126977017</ele>
        <time>2016-06-26T16:11:40Z</time>
      </trkpt>
      <trkpt lat="45.60474" lon="5.41927">
        <ele>435.03126977017</ele>
        <time>2016-06-26T16:11:45Z</time>
      </trkpt>
      <trkpt lat="45.60459" lon="5.41937">
        <ele>436.14831717025</ele>
        <time>2016-06-26T16:11:55Z</time>
      </trkpt>
      <trkpt lat="45.60439" lon="5.41949">
        <ele>437.14494448708</ele>
        <time>2016-06-26T16:12:00Z</time>
      </trkpt>
      <trkpt lat="45.60385" lon="5.41983">
        <ele>437.69763916016</ele>
        <time>2016-06-26T16:12:10Z</time>
      </trkpt>
      <trkpt lat="45.60376" lon="5.41997">
        <ele>438.6030731855</ele>
        <time>2016-06-26T16:12:15Z</time>
      </trkpt>
      <trkpt lat="45.6035" lon="5.42059">
        <ele>438.95547429915</ele>
        <time>2016-06-26T16:12:30Z</time>
      </trkpt>
      <trkpt lat="45.60342" lon="5.42075">
        <ele>438.91146614038</ele>
        <time>2016-06-26T16:12:35Z</time>
      </trkpt>
      <trkpt lat="45.60324" lon="5.42123">
        <ele>437.34904053066</ele>
        <time>2016-06-26T16:12:45Z</time>
      </trkpt>
      <trkpt lat="45.60304" lon="5.42157">
        <ele>436.69147707137</ele>
        <time>2016-06-26T16:12:50Z</time>
      </trkpt>
      <trkpt lat="45.60263" lon="5.42195">
        <ele>437.8123844891</ele>
        <time>2016-06-26T16:13:00Z</time>
      </trkpt>
      <trkpt lat="45.60257" lon="5.42207">
        <ele>439.08066464743</ele>
        <time>2016-06-26T16:13:05Z</time>
      </trkpt>
      <trkpt lat="45.60247" lon="5.42228">
        <ele>440.55537663577</ele>
        <time>2016-06-26T16:13:15Z</time>
      </trkpt>
      <trkpt lat="45.60242" lon="5.42237">
        <ele>440.55537663577</ele>
        <time>2016-06-26T16:13:20Z</time>
      </trkpt>
      <trkpt lat="45.60233" lon="5.42256">
        <ele>442.03121023593</ele>
        <time>2016-06-26T16:13:30Z</time>
      </trkpt>
      <trkpt lat="45.60228" lon="5.42264">
        <ele>442.03121023593</ele>
        <time>2016-06-26T16:13:35Z</time>
      </trkpt>
      <trkpt lat="45.60221" lon="5.42283">
        <ele>443.38994929911</ele>
        <time>2016-06-26T16:13:45Z</time>
      </trkpt>
      <trkpt lat="45.60217" lon="5.42291">
        <ele>443.38994929911</ele>
        <time>2016-06-26T16:13:50Z</time>
      </trkpt>
      <trkpt lat="45.60209" lon="5.42304">
        <ele>444.50794941926</ele>
        <time>2016-06-26T16:14:00Z</time>
      </trkpt>
      <trkpt lat="45.60204" lon="5.42311">
        <ele>444.50794941926</ele>
        <time>2016-06-26T16:14:05Z</time>
      </trkpt>
      <trkpt lat="45.60189" lon="5.4232">
        <ele>445.60275992808</ele>
        <time>2016-06-26T16:14:15Z</time>
      </trkpt>
      <trkpt lat="45.60182" lon="5.42323">
        <ele>445.60275992808</ele>
        <time>2016-06-26T16:14:20Z</time>
      </trkpt>
      <trkpt lat="45.6017" lon="5.42325">
        <ele>447.48127044444</ele>
        <time>2016-06-26T16:14:30Z</time>
      </trkpt>
      <trkpt lat="45.60161" lon="5.42324">
        <ele>447.48127044444</ele>
        <time>2016-06-26T16:14:35Z</time>
      </trkpt>
      <trkpt lat="45.60138" lon="5.42324">
        <ele>449.86570860385</ele>
        <time>2016-06-26T16:14:50Z</time>
      </trkpt>
      <trkpt lat="45.6013" lon="5.42324">
        <ele>449.86570860385</ele>
        <time>2016-06-26T16:14:55Z</time>
      </trkpt>
      <trkpt lat="45.60114" lon="5.42331">
        <ele>451.28676294959</ele>
        <time>2016-06-26T16:15:05Z</time>
      </trkpt>
      <trkpt lat="45.60106" lon="5.42333">
        <ele>451.28676294959</ele>
        <time>2016-06-26T16:15:10Z</time>
      </trkpt>
      <trkpt lat="45.6009" lon="5.42335">
        <ele>452.53303448847</ele>
        <time>2016-06-26T16:15:20Z</time>
      </trkpt>
      <trkpt lat="45.60081" lon="5.42333">
        <ele>452.53303448847</ele>
        <time>2016-06-26T16:15:25Z</time>
      </trkpt>
      <trkpt lat="45.60067" lon="5.42336">
        <ele>453.47104441237</ele>
        <time>2016-06-26T16:15:35Z</time>
      </trkpt>
      <trkpt lat="45.6006" lon="5.42336">
        <ele>453.47104441237</ele>
        <time>2016-06-26T16:15:40Z</time>
      </trkpt>
      <trkpt lat="45.60045" lon="5.42337">
        <ele>454.3527054834</ele>
        <time>2016-06-26T16:15:50Z</time>
      </trkpt>
      <trkpt lat="45.60038" lon="5.42337">
        <ele>454.3527054834</ele>
        <time>2016-06-26T16:15:55Z</time>
      </trkpt>
      <trkpt lat="45.60024" lon="5.42337">
        <ele>455.62778568981</ele>
        <time>2016-06-26T16:16:05Z</time>
      </trkpt>
      <trkpt lat="45.60017" lon="5.42337">
        <ele>455.62778568981</ele>
        <time>2016-06-26T16:16:10Z</time>
      </trkpt>
      <trkpt lat="45.60018" lon="5.42325">
        <ele>457.02021450988</ele>
        <time>2016-06-26T16:16:25Z</time>
      </trkpt>
      <trkpt lat="45.60022" lon="5.42317">
        <ele>457.02021450988</ele>
        <time>2016-06-26T16:16:30Z</time>
      </trkpt>
      <trkpt lat="45.60031" lon="5.42304">
        <ele>457.94245692927</ele>
        <time>2016-06-26T16:16:40Z</time>
      </trkpt>
      <trkpt lat="45.60035" lon="5.42298">
        <ele>457.94245692927</ele>
        <time>2016-06-26T16:16:45Z</time>
      </trkpt>
      <trkpt lat="45.6004" lon="5.42283">
        <ele>458.81704408151</ele>
        <time>2016-06-26T16:16:55Z</time>
      </trkpt>
      <trkpt lat="45.60044" lon="5.42276">
        <ele>458.81704408151</ele>
        <time>2016-06-26T16:17:00Z</time>
      </trkpt>
      <trkpt lat="45.60049" lon="5.42264">
        <ele>458.75305462442</ele>
        <time>2016-06-26T16:17:10Z</time>
      </trkpt>
      <trkpt lat="45.60053" lon="5.42255">
        <ele>458.75305462442</ele>
        <time>2016-06-26T16:17:15Z</time>
      </trkpt>
      <trkpt lat="45.60064" lon="5.42238">
        <ele>459.00288772878</ele>
        <time>2016-06-26T16:17:25Z</time>
      </trkpt>
      <trkpt lat="45.60071" lon="5.42228">
        <ele>459.5155643723</ele>
        <time>2016-06-26T16:17:30Z</time>
      </trkpt>
      <trkpt lat="45.60078" lon="5.42209">
        <ele>459.92610033988</ele>
        <time>2016-06-26T16:17:40Z</time>
      </trkpt>
      <trkpt lat="45.60082" lon="5.422">
        <ele>459.92610033988</ele>
        <time>2016-06-26T16:17:45Z</time>
      </trkpt>
      <trkpt lat="45.60091" lon="5.42183">
        <ele>460.61719300808</ele>
        <time>2016-06-26T16:17:55Z</time>
      </trkpt>
      <trkpt lat="45.60095" lon="5.42177">
        <ele>460.61719300808</ele>
        <time>2016-06-26T16:18:00Z</time>
      </trkpt>
      <trkpt lat="45.60107" lon="5.42151">
        <ele>461.7120877278</ele>
        <time>2016-06-26T16:18:15Z</time>
      </trkpt>
      <trkpt lat="45.60111" lon="5.42142">
        <ele>461.7120877278</ele>
        <time>2016-06-26T16:18:20Z</time>
      </trkpt>
      <trkpt lat="45.60121" lon="5.42106">
        <ele>462.12774454628</ele>
        <time>2016-06-26T16:18:30Z</time>
      </trkpt>
      <trkpt lat="45.60131" lon="5.42087">
        <ele>462.49106673396</ele>
        <time>2016-06-26T16:18:35Z</time>
      </trkpt>
      <trkpt lat="45.60161" lon="5.42055">
        <ele>462.84986138679</ele>
        <time>2016-06-26T16:18:45Z</time>
      </trkpt>
      <trkpt lat="45.60172" lon="5.42042">
        <ele>462.90258669331</ele>
        <time>2016-06-26T16:18:50Z</time>
      </trkpt>
      <trkpt lat="45.60193" lon="5.42002">
        <ele>463.91271430437</ele>
        <time>2016-06-26T16:19:00Z</time>
      </trkpt>
      <trkpt lat="45.60198" lon="5.41989">
        <ele>465.14596141534</ele>
        <time>2016-06-26T16:19:05Z</time>
      </trkpt>
      <trkpt lat="45.60208" lon="5.41973">
        <ele>466.16636060719</ele>
        <time>2016-06-26T16:19:15Z</time>
      </trkpt>
      <trkpt lat="45.60212" lon="5.41964">
        <ele>466.16636060719</ele>
        <time>2016-06-26T16:19:20Z</time>
      </trkpt>
      <trkpt lat="45.60222" lon="5.41949">
        <ele>466.49852439111</ele>
        <time>2016-06-26T16:19:30Z</time>
      </trkpt>
      <trkpt lat="45.60225" lon="5.41938">
        <ele>466.49852439111</ele>
        <time>2016-06-26T16:19:35Z</time>
      </trkpt>
      <trkpt lat="45.60233" lon="5.41903">
        <ele>466.46771922045</ele>
        <time>2016-06-26T16:19:50Z</time>
      </trkpt>
      <trkpt lat="45.60237" lon="5.41892">
        <ele>466.46771922045</ele>
        <time>2016-06-26T16:19:55Z</time>
      </trkpt>
      <trkpt lat="45.6025" lon="5.4186">
        <ele>466.50604625947</ele>
        <time>2016-06-26T16:20:05Z</time>
      </trkpt>
      <trkpt lat="45.60256" lon="5.41844">
        <ele>466.62457688574</ele>
        <time>2016-06-26T16:20:10Z</time>
      </trkpt>
      <trkpt lat="45.60261" lon="5.41822">
        <ele>466.66041161263</ele>
        <time>2016-06-26T16:20:20Z</time>
      </trkpt>
      <trkpt lat="45.60264" lon="5.41812">
        <ele>466.66041161263</ele>
        <time>2016-06-26T16:20:25Z</time>
      </trkpt>
      <trkpt lat="45.60271" lon="5.4179">
        <ele>467.96160333569</ele>
        <time>2016-06-26T16:20:35Z</time>
      </trkpt>
      <trkpt lat="45.60275" lon="5.4178">
        <ele>467.96160333569</ele>
        <time>2016-06-26T16:20:40Z</time>
      </trkpt>
      <trkpt lat="45.60282" lon="5.41765">
        <ele>468.86257853975</ele>
        <time>2016-06-26T16:20:50Z</time>
      </trkpt>
      <trkpt lat="45.60286" lon="5.41757">
        <ele>468.86257853975</ele>
        <time>2016-06-26T16:20:55Z</time>
      </trkpt>
      <trkpt lat="45.60293" lon="5.41737">
        <ele>469.83879139107</ele>
        <time>2016-06-26T16:21:05Z</time>
      </trkpt>
      <trkpt lat="45.60298" lon="5.41727">
        <ele>469.83879139107</ele>
        <time>2016-06-26T16:21:10Z</time>
      </trkpt>
      <trkpt lat="45.60307" lon="5.41707">
        <ele>469.64445450275</ele>
        <time>2016-06-26T16:21:20Z</time>
      </trkpt>
      <trkpt lat="45.6031" lon="5.41696">
        <ele>469.64445450275</ele>
        <time>2016-06-26T16:21:25Z</time>
      </trkpt>
      <trkpt lat="45.60321" lon="5.4167">
        <ele>469.41994294304</ele>
        <time>2016-06-26T16:21:40Z</time>
      </trkpt>
      <trkpt lat="45.60325" lon="5.41661">
        <ele>469.41994294304</ele>
        <time>2016-06-26T16:21:45Z</time>
      </trkpt>
      <trkpt lat="45.60331" lon="5.41644">
        <ele>468.59348109641</ele>
        <time>2016-06-26T16:21:55Z</time>
      </trkpt>
      <trkpt lat="45.60334" lon="5.41636">
        <ele>468.59348109641</ele>
        <time>2016-06-26T16:22:00Z</time>
      </trkpt>
      <trkpt lat="45.60344" lon="5.41609">
        <ele>468.07808164871</ele>
        <time>2016-06-26T16:22:10Z</time>
      </trkpt>
      <trkpt lat="45.60349" lon="5.41598">
        <ele>467.53708098613</ele>
        <time>2016-06-26T16:22:15Z</time>
      </trkpt>
      <trkpt lat="45.60357" lon="5.41571">
        <ele>467.42237726262</ele>
        <time>2016-06-26T16:22:25Z</time>
      </trkpt>
      <trkpt lat="45.60361" lon="5.41557">
        <ele>467.2291280095</ele>
        <time>2016-06-26T16:22:30Z</time>
      </trkpt>
      <trkpt lat="45.60368" lon="5.41542">
        <ele>466.36005323155</ele>
        <time>2016-06-26T16:22:40Z</time>
      </trkpt>
      <trkpt lat="45.60372" lon="5.41533">
        <ele>466.36005323155</ele>
        <time>2016-06-26T16:22:45Z</time>
      </trkpt>
      <trkpt lat="45.60377" lon="5.41515">
        <ele>465.04179511939</ele>
        <time>2016-06-26T16:22:55Z</time>
      </trkpt>
      <trkpt lat="45.60376" lon="5.41504">
        <ele>465.04179511939</ele>
        <time>2016-06-26T16:23:00Z</time>
      </trkpt>
      <trkpt lat="45.60365" lon="5.41468">
        <ele>462.6641141149</ele>
        <time>2016-06-26T16:23:15Z</time>
      </trkpt>
      <trkpt lat="45.60365" lon="5.41456">
        <ele>462.6641141149</ele>
        <time>2016-06-26T16:23:20Z</time>
      </trkpt>
      <trkpt lat="45.60362" lon="5.41431">
        <ele>460.52353350782</ele>
        <time>2016-06-26T16:23:30Z</time>
      </trkpt>
      <trkpt lat="45.6036" lon="5.41418">
        <ele>460.52353350782</ele>
        <time>2016-06-26T16:23:35Z</time>
      </trkpt>
      <trkpt lat="45.60358" lon="5.41411">
        <ele>458.98474045962</ele>
        <time>2016-06-26T16:23:45Z</time>
      </trkpt>
      <trkpt lat="45.60356" lon="5.41401">
        <ele>458.98474045962</ele>
        <time>2016-06-26T16:23:50Z</time>
      </trkpt>
      <trkpt lat="45.60349" lon="5.41383">
        <ele>455.55926419695</ele>
        <time>2016-06-26T16:24:00Z</time>
      </trkpt>
      <trkpt lat="45.60346" lon="5.41372">
        <ele>455.55926419695</ele>
        <time>2016-06-26T16:24:05Z</time>
      </trkpt>
      <trkpt lat="45.60342" lon="5.4136">
        <ele>452.65904567169</ele>
        <time>2016-06-26T16:24:15Z</time>
      </trkpt>
      <trkpt lat="45.60336" lon="5.41353">
        <ele>452.65904567169</ele>
        <time>2016-06-26T16:24:20Z</time>
      </trkpt>
      <trkpt lat="45.60315" lon="5.41338">
        <ele>449.39002530618</ele>
        <time>2016-06-26T16:24:30Z</time>
      </trkpt>
      <trkpt lat="45.60305" lon="5.41329">
        <ele>446.59639275923</ele>
        <time>2016-06-26T16:24:35Z</time>
      </trkpt>
      <trkpt lat="45.60292" lon="5.41328">
        <ele>443.08449728348</ele>
        <time>2016-06-26T16:24:45Z</time>
      </trkpt>
      <trkpt lat="45.60283" lon="5.41327">
        <ele>440.64683785266</ele>
        <time>2016-06-26T16:24:50Z</time>
      </trkpt>
      <trkpt lat="45.60261" lon="5.41343">
        <ele>437.64088038734</ele>
        <time>2016-06-26T16:25:05Z</time>
      </trkpt>
      <trkpt lat="45.60244" lon="5.41359">
        <ele>434.69339220559</ele>
        <time>2016-06-26T16:25:10Z</time>
      </trkpt>
      <trkpt lat="45.60231" lon="5.41368">
        <ele>431.8659164339</ele>
        <time>2016-06-26T16:25:20Z</time>
      </trkpt>
      <trkpt lat="45.60221" lon="5.41375">
        <ele>429.97870418806</ele>
        <time>2016-06-26T16:25:25Z</time>
      </trkpt>
      <trkpt lat="45.60209" lon="5.41382">
        <ele>427.88661871184</ele>
        <time>2016-06-26T16:25:35Z</time>
      </trkpt>
      <trkpt lat="45.60202" lon="5.41383">
        <ele>427.88661871184</ele>
        <time>2016-06-26T16:25:40Z</time>
      </trkpt>
      <trkpt lat="45.60191" lon="5.41396">
        <ele>425.81157985034</ele>
        <time>2016-06-26T16:25:50Z</time>
      </trkpt>
      <trkpt lat="45.60186" lon="5.41401">
        <ele>425.81157985034</ele>
        <time>2016-06-26T16:25:55Z</time>
      </trkpt>
      <trkpt lat="45.60181" lon="5.41413">
        <ele>423.2527848014</ele>
        <time>2016-06-26T16:26:05Z</time>
      </trkpt>
      <trkpt lat="45.60177" lon="5.41422">
        <ele>423.2527848014</ele>
        <time>2016-06-26T16:26:10Z</time>
      </trkpt>
      <trkpt lat="45.60171" lon="5.41434">
        <ele>420.1076268841</ele>
        <time>2016-06-26T16:26:20Z</time>
      </trkpt>
      <trkpt lat="45.60163" lon="5.41443">
        <ele>417.53622144117</ele>
        <time>2016-06-26T16:26:25Z</time>
      </trkpt>
      <trkpt lat="45.60151" lon="5.41465">
        <ele>415.61725887809</ele>
        <time>2016-06-26T16:26:35Z</time>
      </trkpt>
      <trkpt lat="45.60145" lon="5.41473">
        <ele>415.61725887809</ele>
        <time>2016-06-26T16:26:40Z</time>
      </trkpt>
      <trkpt lat="45.60131" lon="5.41485">
        <ele>414.33512760655</ele>
        <time>2016-06-26T16:26:50Z</time>
      </trkpt>
      <trkpt lat="45.60125" lon="5.4149">
        <ele>414.33512760655</ele>
        <time>2016-06-26T16:26:55Z</time>
      </trkpt>
      <trkpt lat="45.60108" lon="5.41515">
        <ele>412.95280143784</ele>
        <time>2016-06-26T16:27:10Z</time>
      </trkpt>
      <trkpt lat="45.60105" lon="5.41518">
        <ele>412.95280143784</ele>
        <time>2016-06-26T16:27:15Z</time>
      </trkpt>
      <trkpt lat="45.60091" lon="5.41522">
        <ele>411.91153424736</ele>
        <time>2016-06-26T16:27:25Z</time>
      </trkpt>
      <trkpt lat="45.60087" lon="5.41529">
        <ele>411.91153424736</ele>
        <time>2016-06-26T16:27:30Z</time>
      </trkpt>
      <trkpt lat="45.60083" lon="5.41543">
        <ele>409.67350822342</ele>
        <time>2016-06-26T16:27:40Z</time>
      </trkpt>
      <trkpt lat="45.60078" lon="5.41553">
        <ele>409.67350822342</ele>
        <time>2016-06-26T16:27:45Z</time>
      </trkpt>
      <trkpt lat="45.60071" lon="5.41561">
        <ele>408.00189718552</ele>
        <time>2016-06-26T16:27:55Z</time>
      </trkpt>
      <trkpt lat="45.60064" lon="5.41571">
        <ele>406.43897189534</ele>
        <time>2016-06-26T16:28:00Z</time>
      </trkpt>
      <trkpt lat="45.60054" lon="5.41581">
        <ele>404.74749493407</ele>
        <time>2016-06-26T16:28:10Z</time>
      </trkpt>
      <trkpt lat="45.60048" lon="5.41588">
        <ele>404.74749493407</ele>
        <time>2016-06-26T16:28:15Z</time>
      </trkpt>
      <trkpt lat="45.60039" lon="5.41605">
        <ele>402.96725205532</ele>
        <time>2016-06-26T16:28:25Z</time>
      </trkpt>
      <trkpt lat="45.60033" lon="5.41613">
        <ele>402.96725205532</ele>
        <time>2016-06-26T16:28:30Z</time>
      </trkpt>
      <trkpt lat="45.60021" lon="5.41622">
        <ele>401.78369978369</ele>
        <time>2016-06-26T16:28:40Z</time>
      </trkpt>
      <trkpt lat="45.60016" lon="5.41628">
        <ele>401.78369978369</ele>
        <time>2016-06-26T16:28:45Z</time>
      </trkpt>
      <trkpt lat="45.60006" lon="5.41637">
        <ele>400.74928748527</ele>
        <time>2016-06-26T16:28:55Z</time>
      </trkpt>
      <trkpt lat="45.60001" lon="5.41643">
        <ele>400.74928748527</ele>
        <time>2016-06-26T16:29:00Z</time>
      </trkpt>
      <trkpt lat="45.59992" lon="5.41659">
        <ele>399.41996428226</ele>
        <time>2016-06-26T16:29:10Z</time>
      </trkpt>
      <trkpt lat="45.59989" lon="5.41667">
        <ele>399.41996428226</ele>
        <time>2016-06-26T16:29:15Z</time>
      </trkpt>
      <trkpt lat="45.59984" lon="5.4168">
        <ele>397.55793285334</ele>
        <time>2016-06-26T16:29:25Z</time>
      </trkpt>
      <trkpt lat="45.59983" lon="5.41685">
        <ele>397.55793285334</ele>
        <time>2016-06-26T16:29:30Z</time>
      </trkpt>
      <trkpt lat="45.59978" lon="5.41711">
        <ele>395.47745180136</ele>
        <time>2016-06-26T16:29:45Z</time>
      </trkpt>
      <trkpt lat="45.59975" lon="5.41719">
        <ele>395.47745180136</ele>
        <time>2016-06-26T16:29:50Z</time>
      </trkpt>
      <trkpt lat="45.59963" lon="5.4173">
        <ele>398.78790701375</ele>
        <time>2016-06-26T16:30:00Z</time>
      </trkpt>
      <trkpt lat="45.59955" lon="5.41738">
        <ele>400.36432040329</ele>
        <time>2016-06-26T16:30:05Z</time>
      </trkpt>
      <trkpt lat="45.59938" lon="5.41765">
        <ele>398.78349933965</ele>
        <time>2016-06-26T16:30:15Z</time>
      </trkpt>
      <trkpt lat="45.59934" lon="5.41773">
        <ele>398.78349933965</ele>
        <time>2016-06-26T16:30:20Z</time>
      </trkpt>
      <trkpt lat="45.59921" lon="5.41792">
        <ele>396.77072017361</ele>
        <time>2016-06-26T16:30:30Z</time>
      </trkpt>
      <trkpt lat="45.5991" lon="5.41801">
        <ele>394.8346846337</ele>
        <time>2016-06-26T16:30:35Z</time>
      </trkpt>
      <trkpt lat="45.59896" lon="5.4181">
        <ele>393.59059396892</ele>
        <time>2016-06-26T16:30:45Z</time>
      </trkpt>
      <trkpt lat="45.59888" lon="5.41815">
        <ele>393.59059396892</ele>
        <time>2016-06-26T16:30:50Z</time>
      </trkpt>
      <trkpt lat="45.59871" lon="5.41831">
        <ele>393.15974640657</ele>
        <time>2016-06-26T16:31:00Z</time>
      </trkpt>
      <trkpt lat="45.59857" lon="5.4185">
        <ele>393.10460596009</ele>
        <time>2016-06-26T16:31:05Z</time>
      </trkpt>
      <trkpt lat="45.59846" lon="5.41867">
        <ele>393.52310222847</ele>
        <time>2016-06-26T16:31:15Z</time>
      </trkpt>
      <trkpt lat="45.59842" lon="5.41873">
        <ele>393.52310222847</ele>
        <time>2016-06-26T16:31:20Z</time>
      </trkpt>
      <trkpt lat="45.59832" lon="5.41864">
        <ele>394.17318885561</ele>
        <time>2016-06-26T16:31:30Z</time>
      </trkpt>
      <trkpt lat="45.59827" lon="5.41857">
        <ele>394.17318885561</ele>
        <time>2016-06-26T16:31:35Z</time>
      </trkpt>
      <trkpt lat="45.59816" lon="5.41841">
        <ele>394.54174491533</ele>
        <time>2016-06-26T16:31:45Z</time>
      </trkpt>
      <trkpt lat="45.59811" lon="5.41834">
        <ele>394.54174491533</ele>
        <time>2016-06-26T16:31:50Z</time>
      </trkpt>
      <trkpt lat="45.5979" lon="5.41845">
        <ele>394.26945247709</ele>
        <time>2016-06-26T16:32:00Z</time>
      </trkpt>
      <trkpt lat="45.59773" lon="5.41844">
        <ele>393.55844032227</ele>
        <time>2016-06-26T16:32:05Z</time>
      </trkpt>
      <trkpt lat="45.59716" lon="5.41859">
        <ele>393.27459372782</ele>
        <time>2016-06-26T16:32:20Z</time>
      </trkpt>
      <trkpt lat="45.59698" lon="5.41864">
        <ele>393.6281954307</ele>
        <time>2016-06-26T16:32:25Z</time>
      </trkpt>
      <trkpt lat="45.59671" lon="5.41877">
        <ele>393.99092474664</ele>
        <time>2016-06-26T16:32:35Z</time>
      </trkpt>
      <trkpt lat="45.59658" lon="5.41883">
        <ele>394.94796622214</ele>
        <time>2016-06-26T16:32:40Z</time>
      </trkpt>
      <trkpt lat="45.59644" lon="5.41885">
        <ele>396.31937947763</ele>
        <time>2016-06-26T16:32:50Z</time>
      </trkpt>
      <trkpt lat="45.59642" lon="5.41886">
        <ele>396.31937947763</ele>
        <time>2016-06-26T16:32:55Z</time>
      </trkpt>
      <trkpt lat="45.59621" lon="5.41892">
        <ele>397.73562257471</ele>
        <time>2016-06-26T16:33:05Z</time>
      </trkpt>
      <trkpt lat="45.59602" lon="5.41897">
        <ele>398.78222971118</ele>
        <time>2016-06-26T16:33:10Z</time>
      </trkpt>
      <trkpt lat="45.5957" lon="5.41907">
        <ele>401.050667547</ele>
        <time>2016-06-26T16:33:20Z</time>
      </trkpt>
      <trkpt lat="45.59557" lon="5.4191">
        <ele>403.5479075095</ele>
        <time>2016-06-26T16:33:25Z</time>
      </trkpt>
      <trkpt lat="45.59546" lon="5.41913">
        <ele>405.52631640682</ele>
        <time>2016-06-26T16:33:35Z</time>
      </trkpt>
      <trkpt lat="45.59539" lon="5.41913">
        <ele>405.52631640682</ele>
        <time>2016-06-26T16:33:40Z</time>
      </trkpt>
      <trkpt lat="45.59525" lon="5.41912">
        <ele>407.36123125827</ele>
        <time>2016-06-26T16:33:50Z</time>
      </trkpt>
      <trkpt lat="45.59513" lon="5.41914">
        <ele>409.51629455962</ele>
        <time>2016-06-26T16:33:55Z</time>
      </trkpt>
      <trkpt lat="45.59488" lon="5.41912">
        <ele>412.23304664716</ele>
        <time>2016-06-26T16:34:10Z</time>
      </trkpt>
      <trkpt lat="45.59481" lon="5.41916">
        <ele>412.23304664716</ele>
        <time>2016-06-26T16:34:15Z</time>
      </trkpt>
      <trkpt lat="45.5947" lon="5.41919">
        <ele>414.62426370531</ele>
        <time>2016-06-26T16:34:25Z</time>
      </trkpt>
      <trkpt lat="45.59466" lon="5.41919">
        <ele>414.62426370531</ele>
        <time>2016-06-26T16:34:30Z</time>
      </trkpt>
      <trkpt lat="45.59456" lon="5.41919">
        <ele>417.15162185561</ele>
        <time>2016-06-26T16:34:40Z</time>
      </trkpt>
      <trkpt lat="45.59448" lon="5.41918">
        <ele>417.15162185561</ele>
        <time>2016-06-26T16:34:45Z</time>
      </trkpt>
      <trkpt lat="45.59438" lon="5.41921">
        <ele>419.92569007389</ele>
        <time>2016-06-26T16:34:55Z</time>
      </trkpt>
      <trkpt lat="45.59432" lon="5.41918">
        <ele>419.92569007389</ele>
        <time>2016-06-26T16:35:00Z</time>
      </trkpt>
      <trkpt lat="45.59414" lon="5.41924">
        <ele>423.69696923369</ele>
        <time>2016-06-26T16:35:10Z</time>
      </trkpt>
      <trkpt lat="45.59405" lon="5.41924">
        <ele>427.21278854278</ele>
        <time>2016-06-26T16:35:15Z</time>
      </trkpt>
      <trkpt lat="45.59389" lon="5.41924">
        <ele>430.2069730745</ele>
        <time>2016-06-26T16:35:25Z</time>
      </trkpt>
      <trkpt lat="45.59381" lon="5.4193">
        <ele>432.91021119415</ele>
        <time>2016-06-26T16:35:30Z</time>
      </trkpt>
      <trkpt lat="45.59365" lon="5.41932">
        <ele>435.01854829044</ele>
        <time>2016-06-26T16:35:40Z</time>
      </trkpt>
      <trkpt lat="45.59359" lon="5.41933">
        <ele>435.01854829044</ele>
        <time>2016-06-26T16:35:45Z</time>
      </trkpt>
      <trkpt lat="45.59338" lon="5.41926">
        <ele>436.82876137533</ele>
        <time>2016-06-26T16:36:00Z</time>
      </trkpt>
      <trkpt lat="45.59331" lon="5.41922">
        <ele>436.82876137533</ele>
        <time>2016-06-26T16:36:05Z</time>
      </trkpt>
      <trkpt lat="45.59318" lon="5.41915">
        <ele>438.0981498532</ele>
        <time>2016-06-26T16:36:15Z</time>
      </trkpt>
      <trkpt lat="45.59313" lon="5.41911">
        <ele>438.0981498532</ele>
        <time>2016-06-26T16:36:20Z</time>
      </trkpt>
      <trkpt lat="45.59305" lon="5.41906">
        <ele>439.90064166961</ele>
        <time>2016-06-26T16:36:30Z</time>
      </trkpt>
      <trkpt lat="45.59305" lon="5.41903">
        <ele>439.90064166961</ele>
        <time>2016-06-26T16:36:35Z</time>
      </trkpt>
      <trkpt lat="45.59318" lon="5.41888">
        <ele>441.80335362649</ele>
        <time>2016-06-26T16:36:45Z</time>
      </trkpt>
      <trkpt lat="45.59321" lon="5.41881">
        <ele>441.80335362649</ele>
        <time>2016-06-26T16:36:50Z</time>
      </trkpt>
      <trkpt lat="45.59313" lon="5.4186">
        <ele>443.37636522002</ele>
        <time>2016-06-26T16:37:00Z</time>
      </trkpt>
      <trkpt lat="45.59308" lon="5.41853">
        <ele>443.37636522002</ele>
        <time>2016-06-26T16:37:05Z</time>
      </trkpt>
      <trkpt lat="45.59302" lon="5.41845">
        <ele>444.36663105791</ele>
        <time>2016-06-26T16:37:15Z</time>
      </trkpt>
      <trkpt lat="45.59297" lon="5.41834">
        <ele>445.30536551437</ele>
        <time>2016-06-26T16:37:20Z</time>
      </trkpt>
      <trkpt lat="45.59283" lon="5.41812">
        <ele>446.93013039444</ele>
        <time>2016-06-26T16:37:30Z</time>
      </trkpt>
      <trkpt lat="45.59278" lon="5.41802">
        <ele>446.93013039444</ele>
        <time>2016-06-26T16:37:35Z</time>
      </trkpt>
      <trkpt lat="45.5927" lon="5.41788">
        <ele>448.29415071682</ele>
        <time>2016-06-26T16:37:45Z</time>
      </trkpt>
      <trkpt lat="45.59267" lon="5.41781">
        <ele>448.29415071682</ele>
        <time>2016-06-26T16:37:50Z</time>
      </trkpt>
      <trkpt lat="45.59259" lon="5.41773">
        <ele>449.97666917892</ele>
        <time>2016-06-26T16:38:05Z</time>
      </trkpt>
      <trkpt lat="45.59253" lon="5.41772">
        <ele>449.97666917892</ele>
        <time>2016-06-26T16:38:10Z</time>
      </trkpt>
      <trkpt lat="45.59203" lon="5.41758">
        <ele>451.24550958081</ele>
        <time>2016-06-26T16:38:20Z</time>
      </trkpt>
      <trkpt lat="45.59177" lon="5.41748">
        <ele>452.23065761591</ele>
        <time>2016-06-26T16:38:25Z</time>
      </trkpt>
      <trkpt lat="45.59115" lon="5.41725">
        <ele>453.18322896758</ele>
        <time>2016-06-26T16:38:35Z</time>
      </trkpt>
      <trkpt lat="45.59093" lon="5.41722">
        <ele>454.4658556811</ele>
        <time>2016-06-26T16:38:40Z</time>
      </trkpt>
      <trkpt lat="45.59053" lon="5.4176">
        <ele>455.79408749445</ele>
        <time>2016-06-26T16:38:50Z</time>
      </trkpt>
      <trkpt lat="45.59044" lon="5.41774">
        <ele>457.62494809943</ele>
        <time>2016-06-26T16:38:55Z</time>
      </trkpt>
      <trkpt lat="45.59024" lon="5.4179">
        <ele>459.41507593205</ele>
        <time>2016-06-26T16:39:05Z</time>
      </trkpt>
      <trkpt lat="45.59021" lon="5.4179">
        <ele>459.41507593205</ele>
        <time>2016-06-26T16:39:10Z</time>
      </trkpt>
      <trkpt lat="45.59017" lon="5.41799">
        <ele>461.38183061182</ele>
        <time>2016-06-26T16:39:20Z</time>
      </trkpt>
      <trkpt lat="45.59012" lon="5.41803">
        <ele>461.38183061182</ele>
        <time>2016-06-26T16:39:25Z</time>
      </trkpt>
      <trkpt lat="45.59001" lon="5.41804">
        <ele>464.28827547128</ele>
        <time>2016-06-26T16:39:35Z</time>
      </trkpt>
      <trkpt lat="45.58999" lon="5.41802">
        <ele>464.28827547128</ele>
        <time>2016-06-26T16:39:40Z</time>
      </trkpt>
      <trkpt lat="45.58989" lon="5.41795">
        <ele>466.08638988436</ele>
        <time>2016-06-26T16:39:50Z</time>
      </trkpt>
      <trkpt lat="45.58983" lon="5.41795">
        <ele>466.08638988436</ele>
        <time>2016-06-26T16:39:55Z</time>
      </trkpt>
      <trkpt lat="45.58972" lon="5.41812">
        <ele>468.78725004678</ele>
        <time>2016-06-26T16:40:05Z</time>
      </trkpt>
      <trkpt lat="45.58967" lon="5.41818">
        <ele>468.78725004678</ele>
        <time>2016-06-26T16:40:10Z</time>
      </trkpt>
      <trkpt lat="45.58957" lon="5.41834">
        <ele>470.86518207986</ele>
        <time>2016-06-26T16:40:20Z</time>
      </trkpt>
      <trkpt lat="45.58953" lon="5.41842">
        <ele>470.86518207986</ele>
        <time>2016-06-26T16:40:25Z</time>
      </trkpt>
      <trkpt lat="45.58941" lon="5.41863">
        <ele>472.50809364557</ele>
        <time>2016-06-26T16:40:40Z</time>
      </trkpt>
      <trkpt lat="45.58937" lon="5.41871">
        <ele>472.50809364557</ele>
        <time>2016-06-26T16:40:45Z</time>
      </trkpt>
      <trkpt lat="45.58927" lon="5.41887">
        <ele>473.81937394181</ele>
        <time>2016-06-26T16:40:55Z</time>
      </trkpt>
      <trkpt lat="45.58922" lon="5.41894">
        <ele>473.81937394181</ele>
        <time>2016-06-26T16:41:00Z</time>
      </trkpt>
      <trkpt lat="45.58911" lon="5.41896">
        <ele>474.95350607431</ele>
        <time>2016-06-26T16:41:10Z</time>
      </trkpt>
      <trkpt lat="45.58903" lon="5.41894">
        <ele>474.95350607431</ele>
        <time>2016-06-26T16:41:15Z</time>
      </trkpt>
      <trkpt lat="45.5889" lon="5.41892">
        <ele>475.62189276746</ele>
        <time>2016-06-26T16:41:25Z</time>
      </trkpt>
      <trkpt lat="45.58882" lon="5.4189">
        <ele>475.62189276746</ele>
        <time>2016-06-26T16:41:30Z</time>
      </trkpt>
      <trkpt lat="45.58868" lon="5.41889">
        <ele>475.35677918524</ele>
        <time>2016-06-26T16:41:40Z</time>
      </trkpt>
      <trkpt lat="45.58859" lon="5.41887">
        <ele>475.08211114816</ele>
        <time>2016-06-26T16:41:45Z</time>
      </trkpt>
      <trkpt lat="45.58842" lon="5.41882">
        <ele>474.67409101101</ele>
        <time>2016-06-26T16:41:55Z</time>
      </trkpt>
      <trkpt lat="45.58833" lon="5.41878">
        <ele>474.36429518862</ele>
        <time>2016-06-26T16:42:00Z</time>
      </trkpt>
      <trkpt lat="45.58815" lon="5.41875">
        <ele>473.92028809247</ele>
        <time>2016-06-26T16:42:10Z</time>
      </trkpt>
      <trkpt lat="45.58808" lon="5.41873">
        <ele>473.92028809247</ele>
        <time>2016-06-26T16:42:15Z</time>
      </trkpt>
      <trkpt lat="45.58793" lon="5.41868">
        <ele>472.81004084967</ele>
        <time>2016-06-26T16:42:25Z</time>
      </trkpt>
      <trkpt lat="45.58787" lon="5.41866">
        <ele>472.81004084967</ele>
        <time>2016-06-26T16:42:30Z</time>
      </trkpt>
      <trkpt lat="45.58763" lon="5.41862">
        <ele>470.91714488148</ele>
        <time>2016-06-26T16:42:45Z</time>
      </trkpt>
      <trkpt lat="45.58755" lon="5.4186">
        <ele>470.91714488148</ele>
        <time>2016-06-26T16:42:50Z</time>
      </trkpt>
      <trkpt lat="45.5874" lon="5.41857">
        <ele>468.75557435897</ele>
        <time>2016-06-26T16:43:00Z</time>
      </trkpt>
      <trkpt lat="45.58732" lon="5.41856">
        <ele>468.75557435897</ele>
        <time>2016-06-26T16:43:05Z</time>
      </trkpt>
      <trkpt lat="45.58713" lon="5.41856">
        <ele>465.82227796611</ele>
        <time>2016-06-26T16:43:15Z</time>
      </trkpt>
      <trkpt lat="45.58686" lon="5.41852">
        <ele>463.06551902722</ele>
        <time>2016-06-26T16:43:20Z</time>
      </trkpt>
      <trkpt lat="45.58632" lon="5.41857">
        <ele>460.55626391308</ele>
        <time>2016-06-26T16:43:30Z</time>
      </trkpt>
      <trkpt lat="45.586" lon="5.41856">
        <ele>457.91268080562</ele>
        <time>2016-06-26T16:43:35Z</time>
      </trkpt>
      <trkpt lat="45.58545" lon="5.4187">
        <ele>454.86766000828</ele>
        <time>2016-06-26T16:43:45Z</time>
      </trkpt>
      <trkpt lat="45.58534" lon="5.41862">
        <ele>451.95284752662</ele>
        <time>2016-06-26T16:43:50Z</time>
      </trkpt>
      <trkpt lat="45.58509" lon="5.41807">
        <ele>450.42404856409</ele>
        <time>2016-06-26T16:44:00Z</time>
      </trkpt>
      <trkpt lat="45.58497" lon="5.41779">
        <ele>449.16374846434</ele>
        <time>2016-06-26T16:44:05Z</time>
      </trkpt>
      <trkpt lat="45.58451" lon="5.41761">
        <ele>447.92814870026</ele>
        <time>2016-06-26T16:44:15Z</time>
      </trkpt>
      <trkpt lat="45.58425" lon="5.41756">
        <ele>446.79368579725</ele>
        <time>2016-06-26T16:44:20Z</time>
      </trkpt>
      <trkpt lat="45.58369" lon="5.41745">
        <ele>445.80183648708</ele>
        <time>2016-06-26T16:44:35Z</time>
      </trkpt>
      <trkpt lat="45.58362" lon="5.41742">
        <ele>445.80183648708</ele>
        <time>2016-06-26T16:44:40Z</time>
      </trkpt>
      <trkpt lat="45.58349" lon="5.41737">
        <ele>445.39390510771</ele>
        <time>2016-06-26T16:44:50Z</time>
      </trkpt>
      <trkpt lat="45.58342" lon="5.41735">
        <ele>445.39390510771</ele>
        <time>2016-06-26T16:44:55Z</time>
      </trkpt>
      <trkpt lat="45.5833" lon="5.41732">
        <ele>445.08341817917</ele>
        <time>2016-06-26T16:45:05Z</time>
      </trkpt>
      <trkpt lat="45.5833" lon="5.41725">
        <ele>445.08341817917</ele>
        <time>2016-06-26T16:45:10Z</time>
      </trkpt>
      <trkpt lat="45.58335" lon="5.41707">
        <ele>445.03881713322</ele>
        <time>2016-06-26T16:45:20Z</time>
      </trkpt>
      <trkpt lat="45.58337" lon="5.41698">
        <ele>445.03881713322</ele>
        <time>2016-06-26T16:45:25Z</time>
      </trkpt>
      <trkpt lat="45.58342" lon="5.41683">
        <ele>445.44402996908</ele>
        <time>2016-06-26T16:45:35Z</time>
      </trkpt>
      <trkpt lat="45.58344" lon="5.41677">
        <ele>445.44402996908</ele>
        <time>2016-06-26T16:45:40Z</time>
      </trkpt>
      <trkpt lat="45.58353" lon="5.41648">
        <ele>445.9636182183</ele>
        <time>2016-06-26T16:45:55Z</time>
      </trkpt>
      <trkpt lat="45.58355" lon="5.4164">
        <ele>445.9636182183</ele>
        <time>2016-06-26T16:46:00Z</time>
      </trkpt>
      <trkpt lat="45.58358" lon="5.41625">
        <ele>446.48802836858</ele>
        <time>2016-06-26T16:46:10Z</time>
      </trkpt>
      <trkpt lat="45.58359" lon="5.41617">
        <ele>446.48802836858</ele>
        <time>2016-06-26T16:46:15Z</time>
      </trkpt>
      <trkpt lat="45.58361" lon="5.41599">
        <ele>447.70817721821</ele>
        <time>2016-06-26T16:46:25Z</time>
      </trkpt>
      <trkpt lat="45.58362" lon="5.41593">
        <ele>447.70817721821</ele>
        <time>2016-06-26T16:46:30Z</time>
      </trkpt>
      <trkpt lat="45.58366" lon="5.41577">
        <ele>449.49832870475</ele>
        <time>2016-06-26T16:46:40Z</time>
      </trkpt>
      <trkpt lat="45.58369" lon="5.41569">
        <ele>449.49832870475</ele>
        <time>2016-06-26T16:46:45Z</time>
      </trkpt>
      <trkpt lat="45.58374" lon="5.4155">
        <ele>451.178212129</ele>
        <time>2016-06-26T16:46:55Z</time>
      </trkpt>
      <trkpt lat="45.58376" lon="5.4154">
        <ele>451.178212129</ele>
        <time>2016-06-26T16:47:00Z</time>
      </trkpt>
      <trkpt lat="45.58383" lon="5.41523">
        <ele>451.95919641843</ele>
        <time>2016-06-26T16:47:10Z</time>
      </trkpt>
      <trkpt lat="45.58389" lon="5.41517">
        <ele>451.95919641843</ele>
        <time>2016-06-26T16:47:15Z</time>
      </trkpt>
      <trkpt lat="45.58401" lon="5.41507">
        <ele>452.02090236325</ele>
        <time>2016-06-26T16:47:25Z</time>
      </trkpt>
      <trkpt lat="45.58407" lon="5.41503">
        <ele>452.02090236325</ele>
        <time>2016-06-26T16:47:30Z</time>
      </trkpt>
      <trkpt lat="45.58425" lon="5.41487">
        <ele>451.67579553744</ele>
        <time>2016-06-26T16:47:45Z</time>
      </trkpt>
      <trkpt lat="45.58429" lon="5.41484">
        <ele>451.67579553744</ele>
        <time>2016-06-26T16:47:50Z</time>
      </trkpt>
      <trkpt lat="45.58439" lon="5.41475">
        <ele>451.54590443322</ele>
        <time>2016-06-26T16:48:00Z</time>
      </trkpt>
      <trkpt lat="45.58445" lon="5.4147">
        <ele>451.54590443322</ele>
        <time>2016-06-26T16:48:05Z</time>
      </trkpt>
      <trkpt lat="45.58459" lon="5.41461">
        <ele>451.15487276467</ele>
        <time>2016-06-26T16:48:15Z</time>
      </trkpt>
      <trkpt lat="45.58465" lon="5.41457">
        <ele>451.15487276467</ele>
        <time>2016-06-26T16:48:20Z</time>
      </trkpt>
      <trkpt lat="45.58477" lon="5.41448">
        <ele>450.22051829565</ele>
        <time>2016-06-26T16:48:30Z</time>
      </trkpt>
      <trkpt lat="45.58483" lon="5.41444">
        <ele>450.22051829565</ele>
        <time>2016-06-26T16:48:35Z</time>
      </trkpt>
      <trkpt lat="45.58501" lon="5.4143">
        <ele>449.37632832793</ele>
        <time>2016-06-26T16:48:50Z</time>
      </trkpt>
      <trkpt lat="45.58508" lon="5.41426">
        <ele>449.37632832793</ele>
        <time>2016-06-26T16:48:55Z</time>
      </trkpt>
      <trkpt lat="45.58518" lon="5.41417">
        <ele>448.67571751444</ele>
        <time>2016-06-26T16:49:05Z</time>
      </trkpt>
      <trkpt lat="45.58526" lon="5.41412">
        <ele>448.67571751444</ele>
        <time>2016-06-26T16:49:10Z</time>
      </trkpt>
      <trkpt lat="45.58539" lon="5.41406">
        <ele>447.96594466334</ele>
        <time>2016-06-26T16:49:20Z</time>
      </trkpt>
      <trkpt lat="45.58545" lon="5.41402">
        <ele>447.96594466334</ele>
        <time>2016-06-26T16:49:25Z</time>
      </trkpt>
      <trkpt lat="45.58557" lon="5.41394">
        <ele>447.68188552866</ele>
        <time>2016-06-26T16:49:35Z</time>
      </trkpt>
      <trkpt lat="45.58562" lon="5.41393">
        <ele>447.68188552866</ele>
        <time>2016-06-26T16:49:40Z</time>
      </trkpt>
      <trkpt lat="45.58557" lon="5.41379">
        <ele>447.73522592495</ele>
        <time>2016-06-26T16:49:50Z</time>
      </trkpt>
      <trkpt lat="45.58555" lon="5.4137">
        <ele>447.73522592495</ele>
        <time>2016-06-26T16:49:55Z</time>
      </trkpt>
      <trkpt lat="45.58551" lon="5.41354">
        <ele>447.69725699844</ele>
        <time>2016-06-26T16:50:05Z</time>
      </trkpt>
      <trkpt lat="45.58548" lon="5.41346">
        <ele>447.69725699844</ele>
        <time>2016-06-26T16:50:10Z</time>
      </trkpt>
      <trkpt lat="45.5855" lon="5.4133">
        <ele>448.05003317816</ele>
        <time>2016-06-26T16:50:20Z</time>
      </trkpt>
      <trkpt lat="45.58555" lon="5.41321">
        <ele>448.05003317816</ele>
        <time>2016-06-26T16:50:25Z</time>
      </trkpt>
      <trkpt lat="45.58571" lon="5.413">
        <ele>448.59054427007</ele>
        <time>2016-06-26T16:50:40Z</time>
      </trkpt>
      <trkpt lat="45.58575" lon="5.41294">
        <ele>448.59054427007</ele>
        <time>2016-06-26T16:50:45Z</time>
      </trkpt>
      <trkpt lat="45.58586" lon="5.41279">
        <ele>448.91395040429</ele>
        <time>2016-06-26T16:50:55Z</time>
      </trkpt>
      <trkpt lat="45.58591" lon="5.41273">
        <ele>448.91395040429</ele>
        <time>2016-06-26T16:51:00Z</time>
      </trkpt>
      <trkpt lat="45.58599" lon="5.41263">
        <ele>449.42391921982</ele>
        <time>2016-06-26T16:51:10Z</time>
      </trkpt>
      <trkpt lat="45.586" lon="5.41263">
        <ele>449.42391921982</ele>
        <time>2016-06-26T16:51:15Z</time>
      </trkpt>
      <trkpt lat="45.58601" lon="5.41263">
        <ele>449.42391921982</ele>
        <time>2016-06-26T16:51:25Z</time>
      </trkpt>
      <trkpt lat="45.58602" lon="5.41263">
        <ele>449.42391921982</ele>
        <time>2016-06-26T16:51:30Z</time>
      </trkpt>
      <trkpt lat="45.58602" lon="5.41263">
        <ele>449.42391921982</ele>
        <time>2016-06-26T16:51:40Z</time>
      </trkpt>
      <trkpt lat="45.58602" lon="5.41262">
        <ele>449.42391921982</ele>
        <time>2016-06-26T16:51:45Z</time>
      </trkpt>
      <trkpt lat="45.58611" lon="5.41254">
        <ele>450.49391000867</ele>
        <time>2016-06-26T16:51:55Z</time>
      </trkpt>
      <trkpt lat="45.58616" lon="5.41248">
        <ele>450.49391000867</ele>
        <time>2016-06-26T16:52:00Z</time>
      </trkpt>
      <trkpt lat="45.58622" lon="5.4124">
        <ele>450.88313080265</ele>
        <time>2016-06-26T16:52:10Z</time>
      </trkpt>
      <trkpt lat="45.58624" lon="5.41233">
        <ele>450.88313080265</ele>
        <time>2016-06-26T16:52:15Z</time>
      </trkpt>
      <trkpt lat="45.58629" lon="5.41225">
        <ele>451.33168855863</ele>
        <time>2016-06-26T16:52:25Z</time>
      </trkpt>
      <trkpt lat="45.5863" lon="5.41222">
        <ele>451.33168855863</ele>
        <time>2016-06-26T16:52:30Z</time>
      </trkpt>
      <trkpt lat="45.58634" lon="5.41208">
        <ele>451.76135956759</ele>
        <time>2016-06-26T16:52:40Z</time>
      </trkpt>
      <trkpt lat="45.5864" lon="5.41199">
        <ele>451.76135956759</ele>
        <time>2016-06-26T16:52:45Z</time>
      </trkpt>
      <trkpt lat="45.58654" lon="5.41182">
        <ele>452.50323066867</ele>
        <time>2016-06-26T16:52:55Z</time>
      </trkpt>
      <trkpt lat="45.58661" lon="5.41177">
        <ele>452.50323066867</ele>
        <time>2016-06-26T16:53:00Z</time>
      </trkpt>
      <trkpt lat="45.58673" lon="5.41169">
        <ele>453.2867531375</ele>
        <time>2016-06-26T16:53:10Z</time>
      </trkpt>
      <trkpt lat="45.58678" lon="5.41165">
        <ele>453.2867531375</ele>
        <time>2016-06-26T16:53:15Z</time>
      </trkpt>
      <trkpt lat="45.5869" lon="5.41153">
        <ele>453.74585918715</ele>
        <time>2016-06-26T16:53:30Z</time>
      </trkpt>
      <trkpt lat="45.58692" lon="5.41148">
        <ele>453.74585918715</ele>
        <time>2016-06-26T16:53:35Z</time>
      </trkpt>
      <trkpt lat="45.58697" lon="5.41133">
        <ele>454.11874487601</ele>
        <time>2016-06-26T16:53:45Z</time>
      </trkpt>
      <trkpt lat="45.58697" lon="5.4113">
        <ele>454.11874487601</ele>
        <time>2016-06-26T16:53:50Z</time>
      </trkpt>
      <trkpt lat="45.587" lon="5.41128">
        <ele>454.11874487601</ele>
        <time>2016-06-26T16:54:00Z</time>
      </trkpt>
      <trkpt lat="45.587" lon="5.41127">
        <ele>454.11874487601</ele>
        <time>2016-06-26T16:54:05Z</time>
      </trkpt>
      <trkpt lat="45.587" lon="5.41127">
        <ele>454.11874487601</ele>
        <time>2016-06-26T16:54:15Z</time>
      </trkpt>
      <trkpt lat="45.587" lon="5.41127">
        <ele>454.11874487601</ele>
        <time>2016-06-26T16:54:20Z</time>
      </trkpt>
    </trkseg>
  </trk>
</gpx>